Details of LTEs during September - 2014

1 2 3 4 5 6 7 8 9
Sl No Unit Tender No. Tender Date Last date & time of bid submission TE Opening date & time Tender Description EMD (in Rs.) Bid Type
1 AFK 20140550 30/09/2014 2014-10-21 14:00 2014-10-21 14:30 PARAFIN LIQUID GRI SP-JSS 9160 05   0.00 Single
2 GSF 1400000946 30/09/2014 2014-11-03 00:00 2014-11-03 00:00 FORGED BLANK FOR ILLUMINATING TIME FUZE BODY TO OF,   275900.00 Single
3 OFA B4TE110454 30/09/2014 2014-10-28 14:30 2014-10-28 15:00 ,5 TON CAP.ELEC.WIRE ROPE HOIST. etc.   0.00 Single
4 OFA B4TE110455 30/09/2014 2014-10-28 14:30 2014-10-28 15:00 ,TRAY FOR 105MM CC (TOP).,TRAY FOR 105MM CC (BOTTOM) etc.   0.00 Single
5 OFA B4TE110456 30/09/2014 2014-10-28 14:30 2014-10-28 15:00 ,FLEXIBLE SHAFT OUTER METAL CASING etc.   0.00 Single
6 OFA B4TE110461 30/09/2014 2014-10-31 14:30 2014-10-31 15:00 ,HSS CENTRE DRILL TYPE A-4.0/10.0,HSS CENTRE DRILL TYPE A-1.6/4.0 etc.   0.00 Single
7 OFA B4TE110462 30/09/2014 2014-10-31 14:30 2014-10-31 15:00 ,HSS HAND & SHORT MACHINE TAP,M6 X1,HSS HAND AND SHORT MACHINE TAP,M14,HSS HAND TAP M10X1.5P,IS:6175(PT-2) etc.   0.00 Single
8 OFA B4TE120457 30/09/2014 2014-10-31 14:30 2014-10-31 15:00 ,STREET LIGHT INTEGRAL LUMINAIRE/FIT etc.   0.00 Single
9 OFA B4TE120459 30/09/2014 2014-10-31 14:30 2014-10-31 15:00 ,LIMIT SWITCH OIL TIGHT TYPE NLL2,LIMIT SWITCH OIL TIGHT TYPE-NLL1 etc.   0.00 Single
10 OFA B4TE130460 30/09/2014 2014-10-21 14:30 2014-10-21 15:00 ,DUPLICATING PAPER 210X297, A4 etc.   0.00 Single
11 OFA B4TE320458 30/09/2014 2014-10-17 14:30 2014-10-17 15:00 ,THYRISTOR POWER CONTROLLER PM3000E etc.   0.00 Single
12 OFK 14CST-0582 30/09/2014 2014-10-31 14:30 2014-10-31 13:00 TIMBER MANGO/ANY 25MMX110MMX1.7M   0.00 Single
13 OFK 14CST-0583 30/09/2014 2014-10-31 14:30 2014-10-31 13:00 SET OF INNER FITTMEN FOR BOX 520:9   0.00 Single
14 SAF 3143000772 30/09/2014 2014-10-14 14:30 2014-10-14 15:00 EXTRACTOR SMALL ARMS CARTRIDGE,   0.00 Single
15 HVF 0613322 30/09/2014 2014-10-14 12:00 2014-10-14 15:00 DRILLING MACHINE PORTABLE , etc.   0.00 Single
16 HVF 0613323 30/09/2014 2014-10-14 12:00 2014-10-14 15:00 CUTTER DEEP SHOULDER MILLING M300 STYLE , etc.   0.00 Single
17 HVF 0613324 30/09/2014 2014-10-17 12:00 2014-10-17 15:00 DEPRESSED CENTRE WHEEL TYPE 27 , etc.   0.00 Single
18 HVF 0613325 30/09/2014 2014-10-17 12:00 2014-10-17 15:00 DEPRESSED CENTRE WHEEL RESIN BONDED , etc.   0.00 Single
19 OFV 20140300 30/09/2014 2014-11-18 14:30 2014-11-18 15:00 ORIENTATION BLOCK FOR STEEL CORE,   22400.00 Single
20 OFV 20140301 30/09/2014 2014-11-18 14:30 2014-11-18 15:00 PEDESTAL FAN 18",   37012.50 Single
21 OFV 20140302 30/09/2014 2014-11-21 14:30 2014-11-21 15:00 SPUR GEAR BUSH (UPPER),SPUR GEAR BUSH (LOWER),   62775.00 Single
22 OFV 20140303 30/09/2014 2014-11-21 14:30 2014-11-21 15:00 SITOP POWER SUPPLY, TYPE-6EP1 436-,   26772.72 Single
23 OFV 20140304 30/09/2014 2014-11-21 14:30 2014-11-21 15:00 MPCB,THERMAL RELEASE 6.30 TO 10.00A,MPCB,THERMAL RELEASE 1.00 TO 1.60A,   65692.50 Single
24 OFV 20140305 30/09/2014 2014-11-21 14:30 2014-11-21 15:00 COMBINATION FUSE SWITCH UNIT (CFS),   93397.50 Single
25 OFV 20140306 30/09/2014 2014-11-21 14:30 2014-11-21 15:00 HEX HD NUT M14(GRADE 8),   32250.00 Single
26 OFV 20140308 30/09/2014 2014-11-25 14:30 2014-11-25 15:00 ELECTRICAL SAFETY SHOE WITH LOW,   82274.13 Single
27 OFAJ FS2140108 30/09/2014 2014-10-31 14:00 2014-10-31 15:00 CONV.AL.ROD 65MM DIA TO SLUG TPT DI   0.00 Single
28 OFAJ IS2140260 30/09/2014 2014-10-22 14:00 2014-10-22 15:00 SEMI AUTOMATED BIOCHEMISTRY   0.00 Single
29 OFT D600R93315 30/09/2014 2014-10-21 14:30 2014-10-21 15:00 PAPER COMPUTER SIZE 25.5 X   0.00 Single
30 OFT D680Z52416 30/09/2014 2014-10-28 14:30 2014-10-28 15:00 FLUSHING, VAPOCURING OF 0.315   0.00 Single
31 OFT D720L93314 30/09/2014 2014-10-28 14:30 2014-10-28 15:00 TO MAINTAIN WATER PURIFIER   0.00 Single
32 OFCH 201400388 30/09/2014 2014-10-20 14:00 2014-10-20 14:30 PLUG REPRESENTING FUZE B429   31375.00 Single
33 FGK 340530 30/09/2014 2014-10-28 00:00 2014-10-28 00:00 DIN 50-ADB ER TAPING CHUCK FOR,   0.00 Single
34 FGK 340531 30/09/2014 2014-10-28 00:00 2014-10-28 00:00 i)DIN 50 ADB SIDE LOCK HOLDER,   0.00 Single
35 FGK 340532 30/09/2014 2014-11-13 00:00 2014-11-13 00:00 VERNIER HEIGHT GAUGE SERIES 51,   0.00 Single
36 FGK 340534 30/09/2014 2014-12-04 00:00 2014-12-04 00:00 1.CUTTER DIA 20MM (R218.20-122,   0.00 Single
37 FGK 340535 30/09/2014 2014-12-02 00:00 2014-12-02 00:00 HTS PILOT DRILL SIZE: 20MM DIA,   0.00 Single
38 FGK 340536 30/09/2014 2014-12-02 00:00 2014-12-02 00:00 DELTA DRILL SIZE:17.5MM DIA AS,   0.00 Single
39 FGK 340537 30/09/2014 2014-12-02 00:00 2014-12-02 00:00 GLYSANTIN G-48, MAKE:BASF,   0.00 Single
40 OFPM C412214 30/09/2014 2015-02-24 14:00 2015-02-24 15:00 STANDARD ARGON GAS 99.99% PURE   0.00 Single
41 OFPM D405914 30/09/2014 2014-11-25 14:00 2014-11-25 15:00 LEMON SQUASH IN A BOTTLE OF 700 ML.   0.00 Single
42 OFPM S411614 30/09/2014 2014-10-28 14:00 2014-10-28 15:00 ENCODER TY:6FX2001-2CC50-2500 PPR   0.00 Single
43 EFA 14600150 30/09/2014 2014-10-14 00:00 2014-10-14 00:00 STEEL GRITS G-25; SIZE 0.6MM   0.00 Single
44 EFA 14700046 30/09/2014 2014-10-28 00:00 2014-10-28 00:00 CF 890. 14.12 RW CHAINFLEX   0.00 Single
45 OLF 1406010469 30/09/2014 2014-11-10 15:00 2014-11-10 15:00 BALL BEARING S/R 10X22X6 MM,BALL BEARING S/R 10X21X5 MM,S/R BEARING 8X22X7 BRASS CAGE,BALL BEARING G-10058-75   14145.00 Single
46 AFK 20140539 29/09/2014 2014-10-24 14:00 2014-10-24 14:30 GATE VALVE LTB SCREWED 40 MM, GATE VALVE LTB SCREWED 50 MM, GATE VALVE LEADED TIN BRONZE SCREWE, GATE VALVE LTB SCREWED 25 MM ETC.   0.00 Single
47 MSF 14TE210443 29/09/2014 2014-11-07 14:30 2014-11-07 14:30 CATCH CLIP ASSY. D/NO.14028. etc.   Single
48 MSF 14TE210444 29/09/2014 2014-11-07 14:30 2014-11-07 14:30 SIDEPLATE EMBOSSED&TRIMMED,VA-141/A etc.   Single
49 MSF 14TE210445 29/09/2014 2014-11-07 14:30 2014-11-07 14:30 HANDLE CLIP MSF DR.NO. 17370/1 etc.   Single
50 MSF 14TE210446 29/09/2014 2014-11-07 14:30 2014-11-07 14:30 STRENGHTHENING PLATE AS PER CQA(A) etc.   Single
51 MSF 14TE210447 29/09/2014 2014-11-07 14:30 2014-11-07 14:30 HINGE CLIP ASSEMBLY - DRG.NO.14030 etc.   Single
52 MSF 14TE220448 29/09/2014 2014-10-22 14:30 2014-10-22 14:30 TRANSITION JOINTING KIT,HEAT SHRINK etc.   Single
53 MSF 14TE220449 29/09/2014 2014-10-24 14:30 2014-10-24 14:30 EXHAUST FAN 18" SWEEP,SINGLE PHASE etc.   Single
54 MSF 14TE220450 29/09/2014 2014-10-24 14:30 2014-10-24 14:30 FLUID COUPLING OF WELLMAN ANNEALING etc.   Single
55 MSF 14TE220451 29/09/2014 2014-10-29 14:30 2014-10-29 14:30 WATER COOLED FEED ROLLER OF W/H FUR CONVEYOR CHAIN COMPLETE ASSEMBLED etc.   14730.00 Single
56 MSF 14TE220452 29/09/2014 2014-10-29 14:30 2014-10-29 14:30 INDUCTION CORE ASSEMB.MP-1060/16/1 etc.   12300.00 Single
57 MSF 14TE220453 29/09/2014 2014-10-31 14:30 2014-10-31 14:30 D.R.D.G.BALL BEARING SKF NO.4308 A SPH.R.BEARING CLY. BORE SKF 22207 E SPHERICAL ROLLER BEARING SKF-22210C S.R.T.ROLLER BEARING SKF NO.30221 TIMKEN ROLLER BEARING 67885NM/67820 etc.   Single
58 MSF 14TE220454 29/09/2014 2014-10-31 14:30 2014-10-31 14:30 BLOW DOWN VALVE - 40 NB SPRING LOADED SAFETY VALVE 80N 50 NB FLANGE TYPE GLOBE VALVE 4 WAY 4 PORTS 3 POSITIONS 0-10 BAR etc.   Single
59 CFA 14PVTE0247 29/09/2014 2014-10-21 13:00 2014-10-21 14:00 COAT SERGE BLUE FOR IES.   0.00 Single
60 CFA 14PVTE0248 29/09/2014 2014-10-21 13:00 2014-10-21 14:00 TROUSER SERGE KHAKI FOR IES.OVER COST SERGE BLUE FOR WOMEN   0.00 Single
61 CFA 14PVTE0249 29/09/2014 2014-10-21 13:00 2014-10-21 14:00 TROUSER SERGE BLUE FOR IES.COAT SERGE KHAKI FOR IES.   0.00 Single
62 OPF 110140374 29/09/2014 2014-10-16 14:00 2014-10-16 14:30 (1) FABRICTN.OF TROUSERS GARBERDINE ICK (2) FABRICATION OF JACKET GARBERDIN ICK   0.00 Single
63 OFK 14CST-0579 29/09/2014 2014-10-28 14:30 2014-10-28 13:00 POLYSTER STRIP 30MM X 400MM D/GREEN   0.00 Single
64 OFK 14CST-0580 29/09/2014 2014-10-28 14:30 2014-10-28 13:00 POLY LAY FLAT TUBE I/D 23X0.05MM TH   0.00 Single
65 OCFC 2014LTE352 29/09/2014 2014-10-21 00:00 2014-10-21 00:00 ,PLUG SHRG20P4ESH8 ,PLUG FEMALE SHR32P10ESH1 ,PLUG FEMALE SSHR32P10ESH4 ,PLUG FEMALE SHR40P16ESH2   0.00 Single
66 HVF 0413355 29/09/2014 2014-11-04 12:00 2014-11-04 15:00 SUB ASSYS/LOOSE ITEMS(37 ITEMS) , etc.   0.00 Single
67 HVF 0413356 29/09/2014 2014-10-22 12:00 2014-10-22 15:00 WIPER ASSEMBLY DRAWING , etc.   0.00 Single
68 HVF 0413357 29/09/2014 2014-10-22 12:00 2014-10-22 15:00 SHEATING , etc.   0.00 Single
69 HVF 0413358 29/09/2014 2014-10-22 12:00 2014-10-22 15:00 BUSHING , etc.   0.00 Single
70 HVF 0413359 29/09/2014 2014-10-25 12:00 2014-10-25 15:00 ROLLER 5.0X44.8A5 , etc.   0.00 Single
71 HVF 0413360 29/09/2014 2014-11-19 12:00 2014-11-19 15:00 BUSHING , etc.   0.00 Single
72 HVF 0413361 29/09/2014 2014-11-05 12:00 2014-11-05 15:00 PIPE , etc.   0.00 Single
73 HVF 0413362 29/09/2014 2014-11-05 12:00 2014-11-05 15:00 SOCKET WRENCH ASSY. , etc.   0.00 Single
74 HVF 0413364 29/09/2014 2014-11-30 12:00 2014-11-30 15:00 BALL 25.4-100 , etc.   0.00 Single
75 HVF 0413365 29/09/2014 2014-10-21 12:00 2014-10-21 15:00 BAG ASSY , etc.   0.00 Single
76 HVF 0413366 29/09/2014 2014-10-21 12:00 2014-10-21 15:00 PIPE , etc.   0.00 Single
77 HVF 0413367 29/09/2014 2014-10-17 12:00 2014-10-17 15:00 PIN , etc.   0.00 Single
78 HVF 0511392 29/09/2014 2014-10-31 12:00 2014-10-31 15:00 PRE-PRINTED FILE COVER 566GSM (MATERIAL) , etc.   0.00 Single
79 HVF 0613320 29/09/2014 2014-10-24 12:00 2014-10-24 15:00 GRINDING WHEEL TYPE 5 , etc.   0.00 Single
80 HVF 0613321 29/09/2014 2014-10-14 12:00 2014-10-14 15:00 DIE GRINDER PNEUMATIC , etc.   0.00 Single
81 OFV 20140297 29/09/2014 2014-10-14 14:30 2014-10-14 15:00 FLANGED END GLOBE VALVE(SWIVEL DISC,"Y" TYPE FLANGED END GLOBE VALVE,   477225.00 Single
82 OFV 20140299 29/09/2014 2014-10-07 14:30 2014-10-07 15:00 3 DIMENSIONAL SCULPTURE MADE OUT,   47250.00 Single
83 OFAJ IS2140258 29/09/2014 2014-09-29 14:00 2014-09-29 15:00 HANGSTERFERS CC 22STRAT.CUTTING OIL   0.00 Single
84 OFAJ IS2140259 29/09/2014 2014-09-29 14:00 2014-09-29 15:00 DRO BASED DIAL CALIBRATOR TESTER   0.00 Single
85 OFAJ RS2140277 29/09/2014 2014-10-28 14:00 2014-10-28 15:00 MODULAR FLUSH TYPE SOCKET 6 AMPS., MODULAR FLUSH TYPE SWITCH 6 AMPS., MODULAR SOCKET 6A/16A COMBINED 2 MO, MODULAR SWITCH 1 WAY 16 AMPS.1 MODU, MODULATOR FAN REGULATOR,120W 5 STEP, SWITCH PUSH BUTTON   0.00 Single
86 OFAJ RS2140278 29/09/2014 2014-10-28 14:00 2014-10-28 15:00 PROXIMITY SWITCH 220 V AC, PROXIMITY SWITCH 220 V AC IND.TYPE   0.00 Single
87 OFCH 201400379 29/09/2014 2014-11-10 14:00 2014-11-10 14:30 CLUTCH MASTER CYL.ASSY.-TATA M ASSY.SLAVE CYL.(23.8MM DIA)- T CLUTCH COVER ASSY- TURBO SUMO CLUTCH PLATE - TURBO SUMO ARMATURE ASSY FOR TATA SUMO BRUSH CARRIER ASSY. FOR TATA S CYLINDER HEAD GASKET (   8097.00 Single
88 OFCH 201400384 29/09/2014 2014-11-10 14:00 2014-11-10 14:30 LASER PRINTER AS PER SPECIFICA   0.00 Single
89 OFCH 201400387 29/09/2014 2014-10-30 14:00 2014-10-30 14:30 PUMP TYPE 65UL-65G PUMP SIZE 6 CENTRIFUGAL MONO-BLOCK PUMP3.7 CENTRIFUGAL MONO-BLOCK PUMP 2. CENTRIFUGAL MONO-BLOCK PUMP 1.   9208.00 Single
90 FGK 340529 29/09/2014 2014-10-21 00:00 2014-10-21 00:00 LINER/BEARING SLEEVE AS PER,   0.00 Single
91 OFPM B406314 29/09/2014 2014-11-25 14:00 2014-11-25 15:00 HRC FUSE LINK 50 AMPS, TYPE_TIS 50,415V.   0.00 Single
92 OFPM B406414 29/09/2014 2014-10-28 14:00 2014-10-28 15:00 3 POLEPOWER CONTACTOR TYPE:ML 2,32A 3 POLE POWER CONTACTOR TYPE:ML 1   0.00 Single
93 OFPM B406514 29/09/2014 2014-10-21 14:00 2014-10-21 15:00 LIMIT SWITH TYPE:LL2,10A,600V,1NO+1NC.   0.00 Single
94 OFPM B406614 29/09/2014 2014-12-02 14:00 2014-12-02 15:00 AMMETER SIZE:95MMX95MM RANGE:0-200AMPS AMMETER SIZE:95MMX95MM RANGE:0-250AMPS   0.00 Single
95 OFPM C412014 29/09/2014 2014-11-04 14:00 2014-11-04 15:00 CLEANER MAGNA FLUX MAKE,IS:3658, ITW MAK   0.00 Single
96 OFPM D405814 29/09/2014 2014-12-23 14:00 2014-12-23 15:00 SOCKS COTTON (BLACK COLOUR )   0.00 Single
97 OFPM E405814 29/09/2014 2014-10-21 14:00 2014-10-21 15:00 TRANSPORTATION OF PINAKA PODS IN 9 MT   0.00 Single
98 OFPM E405914 29/09/2014 2014-10-21 14:00 2014-10-21 15:00 TRANSPORTATION OF STORES IN 6 MT CAPACIT   0.00 Single
99 OFPM R405514 29/09/2014 2014-10-24 14:00 2014-10-24 15:00 ST SQ BAR 6MM X 6MM GR:ISSQ IS:1732-89   0.00 Single
100 EFA 14800016 29/09/2014 2014-10-14 00:00 2014-10-14 00:00 INTEGRATED MANAGEMENT SYSTEM (IMS)   0.00 Single
101 OLF 1406010466 29/09/2014 2014-11-17 15:00 2014-11-17 15:00 THERMISTOR,TOC-MD-5.75K +-0.7K,THERMISTOR,TOC-D,THERMISTOR KMT-17V-10 KOHM   12073.00 Single
102 OLF 1406010468 29/09/2014 2014-11-17 15:00 2014-11-17 15:00 SWITCH,MP3-1,CORE,ADJUSTING CORE M1500NM3-2PR2.2,CHOKE 20/22 MICROHENERY +/-10%,CORE 30/19-HP3C,INDUCTOR 470 MICRO H, 10%,INSULATOR ISSH-1-250,MICRO SWITCH P1M10-2B,BULB, MN 26-0.12-V-1,LED RED-3MM,BU   18539.00 Single
103 OFDR 2014000313 29/09/2014 2014-10-21 14:30 2014-10-21 15:00 1. DYE OIL ORANGE COLOUR   0.00 Single
104 OFDR 2014000314 29/09/2014 2014-10-21 14:30 2014-10-21 15:00 1. HEXACHLOROETHENE POWDER   0.00 Single
105 OFDR 2014000315 29/09/2014 2014-10-21 14:30 2014-10-21 15:00 1. FERROSILICONE 63 MICROMETRE IS   0.00 Single
106 OFDR 2014000316 29/09/2014 2014-10-21 14:30 2014-10-21 15:00 1. RED LEAD FOR EXPLOSIVE AND PYROTECH   0.00 Single
107 OFDR 2014000317 29/09/2014 2014-10-21 14:30 2014-10-21 15:00 1. APC NO.224 (SHELLAC VARNISH 20%)   0.00 Single
108 OFDR 2014000318 29/09/2014 2014-10-21 14:30 2014-10-21 15:00 1. EXPANDED POLYSTERENE FOAM 20MM   0.00 Single
109 OFDR 2014000319 29/09/2014 2014-10-28 14:30 2014-10-28 15:00 1. HYDRAULIC PRESS 10 TON   2.00 Single
110 OFDR 2014000320 29/09/2014 2014-10-28 14:30 2014-10-28 15:00 1. ELECTRONIC ATTENDANCE SYSTEM   2.00 Single
111 OFDR 2014000321 29/09/2014 2014-10-28 14:30 2014-10-28 15:00 1. COMMINUTING MILL   2.00 Single
112 OFDR 2014000322 29/09/2014 2014-10-28 14:30 2014-10-28 15:00 1. SEAMING MACHINE   2.00 Single
113 AFK 20140535 28/09/2014 2014-10-07 14:00 2014-10-07 14:30 REFILLING OF CE505A TONER WITH OPC, REFILLING OF TONER CARTRIDEG, REFILLING OF TONER CARTRIDGE ETC.   0.00 Single
114 AFK 20140537 28/09/2014 2014-10-31 14:00 2014-10-31 14:30 PHYSICAL TESTING OF METAL-SALT SPRA, PHYSICAL TESTING OF METALS - GRAIN, PHYSICAL TESTING OF METAL-MICRO HAR ETC.   0.00 Single
115 MSF 14TE230441 28/09/2014 2014-10-22 14:30 2014-10-22 14:30 BULK DENSITY & APPARENT POROSITY etc.   Single
116 OPF 110140369 28/09/2014 2014-10-16 14:00 2014-10-16 14:30 (1) CORDAGE NYLON BRAIDED 345N CORELESS   0.00 Single
117 OPF 110140370 28/09/2014 2014-10-16 14:00 2014-10-16 14:30 (1) RING 14.5 (2) GUIDE RING FR.HARNS.MIRAGE &SEA HRR   0.00 Single
118 OPF 110140371 28/09/2014 2014-10-16 14:00 2014-10-16 14:30 (1) THIMBLE FOR 120MM BOMB PARACHUTE   0.00 Single
119 OPF 110140372 28/09/2014 2014-10-16 14:00 2014-10-16 14:30 (1) WEBBING NYLN 25.4 MM UD   0.00 Single
120 OPF 110140373 28/09/2014 2014-10-16 14:00 2014-10-16 14:30 (1) THREAD SEWG.COTN.U/D BASTG.BS=9.8 N (2) LOCKING THREAD BS:5 KGS(EXPANDABLE)   0.00 Single
121 OFKAT 2014000230 28/09/2014 2014-10-30 14:30 2014-10-30 14:30 LAMP CFL 5 WATTS   0.00 Single
122 OFKAT 2014000231 28/09/2014 2014-11-04 14:30 2014-11-04 14:30 FLANGE MILD STEEL 80MM, G.I. UNION 20MM., G.I. ELBOW 3/4", G.I.REDUCING ELBOW 25MM X20MM, G.I.SOCKET 15MM., G.I.SOCKET 3/4", G.I. UNION 15MM., G.I. TEE 15mm (1/2"), G.I. TEE 25MM ( HEAVY DUTY).   0.00 Single
123 OFK 14CST-0578 28/09/2014 2014-10-21 14:30 2014-10-21 13:00 BRASS ROD 17MM SPECN.IS-319-89 GR-2   0.00 Single
124 SAF 3143000770 28/09/2014 2014-10-10 14:30 2014-10-10 15:00 MOUNTING TRIPOD 7.62MM MGL 4A1,   0.00 Single
125 SAF 3143000771 28/09/2014 2014-10-17 14:30 2014-10-17 15:00 ELECTRONIC COMPONENT/PCB CLEAN,   0.00 Single
126 OCFAV 233/14-15 28/09/2014 2014-10-20 14:30 2014-10-20 14:30 NEEDLE SIZE:22 PART NO.DP X 17 NEEDLE SIZE: 18 (135X7)   0.00 Single
127 OCFAV 234/14-15 28/09/2014 2014-10-20 14:30 2014-10-20 14:30 ENAMELLED COPPER WIRE FOR WINDING ENAMELLED COPPER CONDUCTOR 27 SWG ENAMMLED COPPER CONDUCTOR 28 SWG ENAMELLED COPPER CONDUCTOR 36 SWG   0.00 Single
128 OCFAV 235/14-15 28/09/2014 2014-10-20 14:30 2014-10-20 14:30 RE - PROGRAMMING THE CONTROL BOARD   0.00 Single
129 HVF 0413350 28/09/2014 2014-10-15 12:00 2014-10-15 15:00 COVER PLATE , etc.   0.00 Single
130 HVF 0413351 28/09/2014 2014-10-15 12:00 2014-10-15 15:00 BRACKET , etc.   0.00 Single
131 HVF 0413352 28/09/2014 2014-10-15 12:00 2014-10-15 15:00 CONNECTOR , etc.   0.00 Single
132 HVF 0413353 28/09/2014 2014-10-15 12:00 2014-10-15 15:00 BRACKET ASSY , etc.   0.00 Single
133 HVF 0413354 28/09/2014 2014-10-15 12:00 2014-10-15 15:00 CLAMP ASSY , etc.   0.00 Single
134 HVF 0511391 28/09/2014 2014-10-21 12:00 2014-10-21 15:00 BERNAD TORCH ASSY.UNIT FOR CO^2 TORCH. , etc.   0.00 Single
135 OFV 20140296 28/09/2014 2014-10-07 14:30 2014-10-07 15:00 SUPPLY OF ACP PANEL BOARD SEMI,   84375.00 Single
136 OFAJ FS2140106 28/09/2014 2014-09-28 14:00 2014-09-28 15:00 CAP TO PART NO. QX-438   0.00 Single
137 OFAJ IS2140251 28/09/2014 2014-10-23 14:00 2014-10-23 15:00 G.M.GATE VALVE SIZE: 1"(25 MM)   0.00 Single
138 OFAJ IS2140252 28/09/2014 2014-10-22 14:00 2014-10-22 15:00 CHAINLINK 1.75 MTR.WIDTH, G.I BARBERED WIRE   0.00 Single
139 OFAJ IS2140253 28/09/2014 2014-10-22 14:00 2014-10-22 15:00 AUDCO/LEADER MAKE BALL VALVE-3/4".   0.00 Single
140 OFAJ IS2140254 28/09/2014 2014-09-28 14:00 2014-09-28 15:00 COTTON DRILL KHAKI COLOUR TROUSER   0.00 Single
141 OFAJ IS2140255 28/09/2014 2014-09-28 14:00 2014-09-28 15:00 HIRING OF AMBULANCE VEHICLE   0.00 Single
142 OFAJ IS2140256 28/09/2014 2014-09-28 14:00 2014-09-28 15:00 S CUTTING OIL FOR AL CUTTING   0.00 Single
143 OFAJ IS2140257 28/09/2014 2014-09-28 14:00 2014-09-28 15:00 NEUTRALISATION OF CYANIDE EFFLUENTS   0.00 Single
144 OFAJ RS2140275 28/09/2014 2014-10-28 14:00 2014-10-28 15:00 RWINDING OF STATOR GEC MAKE F.MOTOR   0.00 Single
145 OFAJ RS2140276 28/09/2014 2014-10-28 14:00 2014-10-28 15:00 CONTROL TRANSFORMER 7.5 KVA   0.00 Single
146 OFCH 201400385 28/09/2014 2014-10-30 14:00 2014-10-30 14:30 WIRE COPPER ROUND EN.INS. 31 S CU SUP ENA COATED WIRE INSU 32   0.00 Single
147 OFPM B406214 28/09/2014 2014-10-21 14:00 2014-10-21 15:00 EXHAUST FAN COMPLETE UNIT SZ:380MM   0.00 Single
148 OFPM C411914 28/09/2014 2014-10-28 14:00 2014-10-28 15:00 ENAMEL JADE GREEN AS PER JSS:8010-10   0.00 Single
149 OLF 1406010465 28/09/2014 2014-11-14 15:00 2014-11-14 15:00 PROTECTIVE GLASS   343633.00 Single
150 AFK 20140533 27/09/2014 2014-10-07 14:00 2014-10-07 14:30 ELEC.T.P.710X765X.25MM THICK (11.2   0.00 Single
151 AFK 20140534 27/09/2014 2014-10-14 14:00 2014-10-14 14:30 FUZE (EMPTY) FOR ROUND 40 MM MGL   0.00 Single
152 MSF 14TE210438 27/09/2014 2014-10-17 14:30 2014-10-17 14:30 S.G IRON INGOT MOULD 20" X 2500 MM etc.   38107.00 Single
153 MSF 14TE210439 27/09/2014 2014-10-29 14:30 2014-10-29 14:30 ELECTRICALLY OPERATED HYDRAULIC etc.   Single
154 MSF 14TE210440 27/09/2014 2014-10-29 14:30 2014-10-29 14:30 PAINT ALUMINIUM etc.   Single
155 CFA 14PVTE0244 27/09/2014 2014-10-17 13:00 2014-10-17 14:00 C.S.GATE VALVE 4 INCH DRILLED   0.00 Single
156 CFA 14PVTE0245 27/09/2014 2014-10-17 13:00 2014-10-17 14:00 GATE VALVE 150 MM (6")   0.00 Single
157 OFA B4TE120453 27/09/2014 2014-10-28 14:30 2014-10-28 15:00 ,REALIGNMENT OF RAILS IN MP-RMH SEC. etc.   0.00 Single
158 OFA B4TE130452 27/09/2014 2014-10-21 14:30 2014-10-21 15:00 ,CARTG.CE-278A/78A etc.   0.00 Single
159 OFKAT 2014000228 27/09/2014 2014-10-30 14:30 2014-10-30 14:30 AL.SOCKET FLAT TYPE:120 SQMM, AL SOCKETFLAT TYPE 185SQmm200A, AlSOCKETSIMPLEXTYPE300Sqmm300A, AL.TUBULAR LONG SOCKET 400SQMM   0.00 Single
160 OFKAT 2014000229 27/09/2014 2014-10-30 14:30 2014-10-30 14:30 HIRING OF PVT. 8 SEATER WAGON   0.00 Single
161 OFK 14CST-0577 27/09/2014 2014-10-21 14:30 2014-10-21 13:00 BEND MALLEABLE CI PIPE 50MM,ELBOW GI W/Q 19M,ELBOW G.I. W/Q 15 MM,G.I.TUBE 20 MM MEDIUM CLASS,GI TUBE 15 MM MEDIUM CLASS,SOCKET GI W/Q 15 MM TYPE M2,SOCKET GI W/Q 20 MM,SOCKET G.I H/DUTY 2" DIA X 4",   0.00 Single
162 SAF 3143000769 27/09/2014 2014-10-10 14:30 2014-10-10 15:00 MOUNTING TRIPOD 7.62MM MGL 4A1,   0.00 Single
163 OCFAV 229/14-15 27/09/2014 2014-10-22 14:30 2014-10-22 14:30 BUTTON PLASTIC 13 MM LIGHT BLUE BUTTON NYLON 13 MM WHITE-FOR IAF BUTTON PLASTIC 16 MM DARK BLUE GREY BUTTON PLASTIC 16 MM O.G.   0.00 Single
164 OCFAV 231/14-15 27/09/2014 2014-10-16 10:45 2014-10-16 10:45 P.S.F. MSD KHAKI 73 CM (NHQ) P.S.F. MSD KHAKI 78 CM (NHQ). P.S.F. MSD KHAKI 84 CM (NHQ). P.S.F. MSD KHAKI 67 CM (NHQ)   57050.00 Single
165 OFBA 140450 27/09/2014 2014-11-04 14:30 2014-11-04 14:30 TRANSPORT CARRIAGE-OFBA/NR/431   0.00 Single
166 OFBA 140451 27/09/2014 2014-11-04 14:30 2014-11-04 14:30 PTFE LINED PIPE SECT.40NBX2000   14700.00 Single
167 OFBA 140452 27/09/2014 2014-10-30 14:30 2014-10-30 14:30 PIPE STEAM M.S.3/4   1.00 Single
168 OFBA 140453 27/09/2014 2014-10-28 14:30 2014-10-28 14:30 HEXAGONAL HEAD BOLT M12 X 75MM   0.00 Single
169 OFBA 140454 27/09/2014 2014-10-30 14:30 2014-10-30 14:30 G.M./BNONZE PRESSURE REDUCING   0.00 Single
170 OFBA 140455 27/09/2014 2014-10-30 14:30 2014-10-30 14:30 CS STEAM GLOBE VALVE SZ-2 1/2"   0.00 Single
171 OFBA 140456 27/09/2014 2014-10-21 14:30 2014-10-21 14:30 PEN WITH TWO EXTRA RIFILLS.   0.00 Single
172 OCFC 2014LTE341 27/09/2014 2014-10-21 00:00 2014-10-21 00:00 ,PLUG SHRG20P4ESH8 ,PLUG FEMALE SHR32P10ESH1 ,PLUG FEMALE SSHR32P10ESH4 ,PLUG FEMALE SHR40P16ESH2   0.00 Single
173 OCFC 2014LTE342 27/09/2014 2014-10-21 00:00 2014-10-21 00:00 ,PLUG SHRG20P4ESH8 ,PLUG FEMALE SHR32P10ESH1 ,PLUG FEMALE SSHR32P10ESH4 ,PLUG FEMALE SHR40P16ESH2   0.00 Single
174 OCFC 2014LTE343 27/09/2014 2014-10-21 00:00 2014-10-21 00:00 ,PLUG SHRG20P4ESH8 ,PLUG FEMALE SHR32P10ESH1 ,PLUG FEMALE SSHR32P10ESH4 ,PLUG FEMALE SHR40P16ESH2   0.00 Single
175 OCFC 2014LTE344 27/09/2014 2014-10-21 00:00 2014-10-21 00:00 ,PLUG SHRG20P4ESH8 ,PLUG FEMALE SHR32P10ESH1 ,PLUG FEMALE SSHR32P10ESH4 ,PLUG FEMALE SHR40P16ESH2   0.00 Single
176 OCFC 2014LTE345 27/09/2014 2014-10-21 00:00 2014-10-21 00:00 ,PLUG SHRG20P4ESH8 ,PLUG FEMALE SHR32P10ESH1 ,PLUG FEMALE SSHR32P10ESH4 ,PLUG FEMALE SHR40P16ESH2   0.00 Single
177 OCFC 2014LTE346 27/09/2014 2014-10-14 00:00 2014-10-14 00:00 ,PLUG SHRG20P4ESH8 ,PLUG FEMALE SHR32P10ESH1 ,PLUG FEMALE SSHR32P10ESH4 ,PLUG FEMALE SHR40P16ESH2   0.00 Single
178 OCFC 2014LTE347 27/09/2014 2014-10-28 00:00 2014-10-28 00:00 ,PLUG SHRG20P4ESH8 ,PLUG FEMALE SHR32P10ESH1 ,PLUG FEMALE SSHR32P10ESH4 ,PLUG FEMALE SHR40P16ESH2   0.00 Single
179 OCFC 2014LTE348 27/09/2014 2014-10-28 00:00 2014-10-28 00:00 ,PLUG SHRG20P4ESH8 ,PLUG FEMALE SHR32P10ESH1 ,PLUG FEMALE SSHR32P10ESH4 ,PLUG FEMALE SHR40P16ESH2   245000.00 Single
180 OCFC 2014LTE349 27/09/2014 2014-10-28 00:00 2014-10-28 00:00 ,PLUG SHRG20P4ESH8 ,PLUG FEMALE SHR32P10ESH1 ,PLUG FEMALE SSHR32P10ESH4 ,PLUG FEMALE SHR40P16ESH2   0.00 Single
181 OCFC 2014LTE350 27/09/2014 2014-10-28 00:00 2014-10-28 00:00 ,PLUG SHRG20P4ESH8 ,PLUG FEMALE SHR32P10ESH1 ,PLUG FEMALE SSHR32P10ESH4 ,PLUG FEMALE SHR40P16ESH2   0.00 Single
182 OCFC 2014LTE351 27/09/2014 2014-10-28 00:00 2014-10-28 00:00 ,PLUG SHRG20P4ESH8 ,PLUG FEMALE SHR32P10ESH1 ,PLUG FEMALE SSHR32P10ESH4 ,PLUG FEMALE SHR40P16ESH2   0.00 Single
183 OFDC 140386M4LT 27/09/2014 2014-10-17 00:00 2014-10-17 14:30 MANUFACTURE AND SUPPLY   0.00 Single
184 HVF 0108937 27/09/2014 2014-10-24 12:00 2014-10-24 15:00 SUPPORT ASSEMBLY DRAWING , etc.   0.00 Single
185 HVF 0108938 27/09/2014 2014-10-21 12:00 2014-10-21 15:00 FRONT LEFT FENDER , etc.   0.00 Single
186 HVF 0413344 27/09/2014 2014-10-27 12:00 2014-10-27 15:00 GRIP JAWS , etc.   0.00 Single
187 HVF 0413345 27/09/2014 2014-10-21 12:00 2014-10-21 15:00 GASKET , etc.   0.00 Single
188 HVF 0413346 27/09/2014 2014-10-20 12:00 2014-10-20 15:00 CLAMP , etc.   0.00 Single
189 HVF 0413347 27/09/2014 2014-10-21 12:00 2014-10-21 15:00 SPRING , etc.   0.00 Single
190 HVF 0413348 27/09/2014 2014-10-21 12:00 2014-10-21 15:00 SPRING , etc.   0.00 Single
191 HVF 0413349 27/09/2014 2014-10-21 12:00 2014-10-21 15:00 LOCK , etc.   0.00 Single
192 OFAJ IS2140248 27/09/2014 2014-09-27 14:00 2014-09-27 15:00 GLOW-SING APPLE GREEN, GLOW-SING WHITE, PAINT LEMON YELLOW ., PAINT POST OFFICE RED, PAINT SILVER, PAINT SKY BLUE,IS:133 OF 1975., SEMI GLOSSY BLACK PAINT   0.00 Single
193 OFAJ IS2140249 27/09/2014 2014-09-27 14:00 2014-09-27 15:00 AMUL TAZA MILK 1/2 LTR.   0.00 Single
194 OFAJ IS2140250 27/09/2014 2014-09-27 14:00 2014-09-27 15:00 HALF SLEEVES SHIRT KHAKI COTTON   0.00 Single
195 OFAJ NS2140025 27/09/2014 2014-10-08 14:00 2014-10-08 15:00 PIN FOR LOCKING CAT-1102   0.00 Single
196 OFAJ NS2140026 27/09/2014 2014-10-08 14:00 2014-10-08 15:00 AXLE GUARD CAT 1326.   0.00 Single
197 OFAJ NS2140027 27/09/2014 2014-10-08 14:00 2014-10-08 15:00 DUBO RETAINING RING FORM 303.   0.00 Single
198 OFAJ NS2140028 27/09/2014 2014-10-08 14:00 2014-10-08 15:00 STRAP TO CAT 1150   0.00 Single
199 OFAJ NS2140029 27/09/2014 2014-10-08 14:00 2014-10-08 15:00 PIN CAT-1255   0.00 Single
200 OFAJ RS2140273 27/09/2014 2014-10-21 14:00 2014-10-21 15:00 TRACTION BATTERY 30 V,289/300 AH.   0.00 Single
201 OFAJ RS2140274 27/09/2014 2014-10-28 14:00 2014-10-28 15:00 REPAIRING OF ACTIVE LINE MODULE., REPAIRING OF DEFECTIVE DOUBLE MOTOR, REPAIRING OF SINGLE MOTOR MODULE.   0.00 Single
202 OFAJ SS2140070 27/09/2014 2014-10-22 14:00 2014-10-22 15:00 CARBIDE FORM TOOL FS/T-2832/B., SOLID C/SHANK END MILL CUT SIZE 2.1, SOLID CARBIDE ENDMILL CUTTER.   0.00 Single
203 OFAJ SS2140071 27/09/2014 2014-10-22 14:00 2014-10-22 15:00 PARTING INSERT TO SPECIFICN:06-6030   0.00 Single
204 OFT D110L52413 27/09/2014 2014-10-16 14:30 2014-10-16 15:00 DIAZED FUSES TYPE SICF-2 ,FUSE DZ CYL. TIME DELAY UPTO 4 ,DIAZED FUSES TYPE SICF-6   0.00 Single
205 OFT D190H52406 27/09/2014 2014-10-21 14:30 2014-10-21 15:00 INSERTS SPKN1203 EDR GRADE P30   0.00 Single
206 OFT D190H52412 27/09/2014 2014-10-21 14:30 2014-10-21 15:00 DIMOND CHISEL 0.5CT .01" - 5/1   0.00 Single
207 OFT D210H52403 27/09/2014 2014-10-21 14:30 2014-10-21 15:00 FRAME HACKSAW SIZE 12".   0.00 Single
208 OFT D220H52404 27/09/2014 2014-10-21 14:30 2014-10-21 15:00 SPARE CLAMPING SLOTTED NUT TO   0.00 Single
209 OFT D491H52407 27/09/2014 2014-10-21 14:30 2014-10-21 15:00 LUGGED CARBIDE STEPPED HOLEMIL   0.00 Single
210 OFT D49UH52405 27/09/2014 2014-10-21 14:30 2014-10-21 15:00 MG.SC.CC.END MILL DIA 10 MM   0.00 Single
211 OFT D49UH52408 27/09/2014 2014-10-21 14:30 2014-10-21 15:00 M.C. S.C. TICN COATED ENDMILL   0.00 Single
212 OFT D49UH52409 27/09/2014 2014-10-21 14:30 2014-10-21 15:00 MICROGRAIN SOLID CARBIDE TICN   0.00 Single
213 OFT D49UH52410 27/09/2014 2014-10-21 14:30 2014-10-21 15:00 M.G.S.C.BALL NOSE ENDMILL   0.00 Single
214 OFT D49UH52411 27/09/2014 2014-10-21 14:30 2014-10-21 15:00 M.C. S.C. TIALN COATED CENTRE   0.00 Single
215 OFT D49UH52414 27/09/2014 2014-10-21 14:30 2014-10-21 15:00 CARBIDE BALL NOSE DIA 22.2 MM   0.00 Single
216 OFT D49UH52415 27/09/2014 2014-10-21 14:30 2014-10-21 15:00 CARBIDE 'T' SLOT CUTTER DIA 15   0.00 Single
217 OFCH 201400375 27/09/2014 2014-11-03 14:00 2014-11-03 14:30 SET OF LABORATORY SCIENTIFIC B   0.00 Single
218 OFCH 201400377 27/09/2014 2014-10-20 14:00 2014-10-20 14:30 HMT WRIST WATCHES-RETIRING EMP   0.00 Single
219 OFCH 201400378 27/09/2014 2014-10-27 14:00 2014-10-27 14:30 DISTEMPER SYNTHETIC WASHABLE PAINT WHITE PLASTIC EMULSION B PAINT SYNTHETIC ENAMEL SMOKE G PAINT ENAMLE SYNTHETIC EXTER/ PAINT SY.ENAMEL EXTERIOR -WHIT   8918.00 Single
220 OFCH 201400380 27/09/2014 2014-11-06 14:00 2014-11-06 14:30 WEIGHT BAR FOR EBW CAP   10672.00 Single
221 OFCH 201400381 27/09/2014 2014-09-29 14:00 2014-09-29 14:30 CAP PT.NO.2-4 & SMALL CUP PT.N   0.00 Single
222 OFPM A404314 27/09/2014 2014-10-28 14:00 2014-10-28 15:00 PAINTING OF BMP VEHICLES(OE,OH,VARIANTS)   0.00 Single
223 OFPM B406114 27/09/2014 2014-10-28 14:00 2014-10-28 15:00 HRC FUSE 63 AMPS, TYPE TIS 63,415V,A.C.   0.00 Single
224 OFPM F403714 27/09/2014 2014-10-24 14:00 2014-10-24 15:00 SLEEVE 765-82-563   0.00 Single
225 OFPM H427314 27/09/2014 2014-12-23 14:00 2014-12-23 15:00 FILTER 765-84-CD147   0.00 Single
226 OFPM T416614 27/09/2014 2014-10-14 14:00 2014-10-14 15:00 SOLID CARBIDE P.S END MILL 4FL DIA 5MM   0.00 Single
227 EFA 14100622 27/09/2014 2014-10-31 00:00 2014-10-31 00:00 COTTER PIN 2.5 X 20   0.00 Single
228 EFA 14100623 27/09/2014 2014-10-31 00:00 2014-10-31 00:00 FITTED BOLT M9X50   0.00 Single
229 EFA 14300062 27/09/2014 2014-10-13 00:00 2014-10-13 00:00 EXHAUST CAMSHAFT   0.00 Single
230 OFDR 2014000312 27/09/2014 2014-10-17 14:30 2014-10-17 15:00 1. HIRING OF VEHICLE 9 TON CAPACITY   3.00 Single
231 AFK 20140528 26/09/2014 2014-10-21 14:00 2014-10-21 14:30 REPAIRING & TESTING OF WATER METER   0.00 Single
232 AFK 20140530 26/09/2014 2014-10-21 14:00 2014-10-21 14:30 HIRING OF COVERED TRUCK OF 15 MT   0.00 Single
233 AFK 20140532 26/09/2014 2014-09-26 14:00 2014-09-26 14:30 TORQUE WRENCH, DIGITAL TORQUE ADAPTER ETC.   0.00 Single
234 OEFC 20140373 26/09/2014 2014-10-08 13:30 2014-10-08 14:00 PLASTIC LAST MODEL NO.9150 FOR BOOT ANKLE DVS , PLASTIC LAST MODEL NO.9150 FOR BOOT ANKLE DVS , PLASTIC LAST MODEL NO.9150 FOR BOOT ANKLE DVS , PLASTIC LAST MODEL NO.9150 FOR BOOT A   101000.00 Single
235 OEFC 20140374 26/09/2014 2014-10-08 13:30 2014-10-08 14:00 PLASTIC SLIDE FASTNER LIGHT SPECIAL DUTY AUTO LOCK, PLASTIC SLIDE FASTENER LIGHT SPL. DUTY AUTO LOCK , ,   13180.00 Single
236 OEFC 20140377 26/09/2014 2014-09-26 13:30 2014-09-26 14:00 TRANSPORTATION OF STORES FROM OEF KANPURTO A.F.KIRKEE/OF DEHUROAD CAP.OF TRUCK 15 MT (22' LONG)   0.00 Single
237 OEFC 20140378 26/09/2014 2014-09-26 13:30 2014-09-26 14:00 TRANSPORTATION OF STORES FROM OEF KANPUR TO O.F.KHAMARIA/VEH. FY.JABALPUR/GCF/GIFJABALPUR/COD JABALPUR CAP. OF TRUCK 15 MT (22'LONG)   0.00 Single
238 MSF 14TE230436 26/09/2014 2014-10-17 14:30 2014-10-17 14:30 HP 818L BLACK INK CARTRIDGE HP PART etc.   Single
239 MSF 14TE230437 26/09/2014 2014-10-24 14:30 2014-10-24 14:30 COLLECTION&TRANSPORTATION OF ORDNAN etc.   Single
240 CFA 14PVTE0241 26/09/2014 2014-10-17 13:00 2014-10-17 14:00 VALVE DISCHARGE ASSY, KIR COMPVALVE SPRING SUCTION,KIR COMPRSUCTION VALVE RING,KIR COMPRESSHAFT SEAL ASSY, KIR COMPRESSOBUFFER SPRING,KIR COMPRESSOR   0.00 Single
241 CFA 14PVTE0242 26/09/2014 2014-10-17 13:00 2014-10-17 14:00 LIMITOR STROKE,KIR COMPRESSORKIT OIL PUMP GEAR,KIR COMPRESSFILTER PAPER,KIR COMPRESSORFILTER WIRE GAUGE,KIR COMPRESSGASKET/O RING/AL. PKG. KIT   0.00 Single
242 CFA 14PVTE0243 26/09/2014 2014-10-17 13:00 2014-10-17 14:00 SHAFT BEARING,KIR COMPRESSOROIL RETURN VALVE ASSY R1PISTON TIME DELAY,KIR COMPRESSPLUNGER HYD TIME DELAYSPRING HELICAL COMP 01.42 DIAA   0.00 Single
243 GSF 1400000940 26/09/2014 2014-10-30 00:00 2014-10-30 00:00 BALLAST(COPPER WOUND)CLORED 23O/25OV,4OW TUBELIGHT, BALLAST FOR 150 W METAL HALIDE LAMP,MAKE:PHILIPS/G, STARTER FOR 4O WTS FLUORESCENT TUBE LIGHT 22O/23OV,   0.00 Single
244 GSF 1400000941 26/09/2014 2014-10-30 00:00 2014-10-30 00:00 STAINLESS STEEL WIRE BUCKET DRG. NO. M-6603/4,   0.00 Single
245 GSF 1400000942 26/09/2014 2014-10-30 00:00 2014-10-30 00:00 NICROME ROD SIZE:DIA-20MM,LENGTH-1.5FT.40,   0.00 Single
246 GSF 1400000943 26/09/2014 2014-10-30 00:00 2014-10-30 00:00 LEAD ACID BATTERY 12 VOLTS 13O AH.,   0.00 Single
247 GSF 1400000944 26/09/2014 2014-10-30 00:00 2014-10-30 00:00 THERMOCOUPLE TYPE- K 0 - 1250 CENTIGRADE +/- CENTI, THERMOCOUPLE, TYPE-K, 0 TO 1250 DEGREE CENT.+2.2, THERMOCOUPLE 'L' SHAPE,TYPE (CHROMEL ALLUMEL).,   0.00 Single
248 OCFS 2014000254 26/09/2014 2014-10-07 14:30 2014-10-07 15:00 TAPE ELASTIC 19MM WHITE,TAPE ELASTIC 25 MM WIDE,WHITE   0.00 Single
249 OFA B4TE210451 26/09/2014 2014-10-21 14:30 2014-10-21 15:00 ,BACKUP ROLL DRG.NO.NRM-OO18 SHT.1/1 etc.   0.00 Single
250 OFKAT 2014000227 26/09/2014 2014-10-21 14:30 2014-10-21 14:30 SERVICE CONTRACT FOR HIRING OF   0.00 Single
251 SAF 3143000765 26/09/2014 2014-10-28 14:30 2014-10-28 15:00 INDUSTRIAL LEATHER SAFETY SHOE,   0.00 Single
252 SAF 3143000766 26/09/2014 2014-10-17 14:30 2014-10-17 15:00 ROLLEN SIDEWAYS MATERIAL,ROLLEN SIDEWAYS MATERIAL,ROLLEN SIDEWAYS MATGERIAL,   0.00 Single
253 SAF 3143000767 26/09/2014 2014-10-17 14:30 2014-10-17 15:00 DIAMOND STONE FOR FINISH HONIN,   0.00 Single
254 OCFAV 228/14-15 26/09/2014 2014-10-20 14:30 2014-10-20 14:30 ANNUAL MAINTENANCE CONTRACT FOR EL   0.00 Single
255 OCFAV 230/14-15 26/09/2014 2014-10-22 14:30 2014-10-22 14:30 BUTTON PLASTIC 13 MM KHAKI BUTTON PLASTIC 16 MM KHAKI   0.00 Single
256 OFBA 145079 26/09/2014 2014-10-23 14:30 2014-10-23 14:30 POTASSIUMM NITRATE   0.00 Single
257 OFBA 145080 26/09/2014 2014-10-28 14:30 2014-10-28 14:30 OLEUM TECH.GR.FOR EXPLOSIVE.   115400.00 Single
258 OCFC 2014LTE335 26/09/2014 2014-10-21 00:00 2014-10-21 00:00 ,PLUG SHRG20P4ESH8 ,PLUG FEMALE SHR32P10ESH1 ,PLUG FEMALE SSHR32P10ESH4 ,PLUG FEMALE SHR40P16ESH2   0.00 Single
259 OCFC 2014LTE336 26/09/2014 2014-10-16 00:00 2014-10-16 00:00 ,PLUG SHRG20P4ESH8 ,PLUG FEMALE SHR32P10ESH1 ,PLUG FEMALE SSHR32P10ESH4 ,PLUG FEMALE SHR40P16ESH2   0.00 Single
260 OCFC 2014LTE338 26/09/2014 2014-10-21 00:00 2014-10-21 00:00 ,PLUG SHRG20P4ESH8 ,PLUG FEMALE SHR32P10ESH1 ,PLUG FEMALE SSHR32P10ESH4 ,PLUG FEMALE SHR40P16ESH2   0.00 Single
261 OCFC 2014LTE340 26/09/2014 2014-10-16 00:00 2014-10-16 00:00 ,PLUG SHRG20P4ESH8 ,PLUG FEMALE SHR32P10ESH1 ,PLUG FEMALE SSHR32P10ESH4 ,PLUG FEMALE SHR40P16ESH2   0.00 Single
262 HVF 0413340 26/09/2014 2014-10-17 12:00 2014-10-17 15:00 GASKET , etc.   0.00 Single
263 HVF 0511390 26/09/2014 2014-11-11 12:00 2014-11-11 15:00 THREE BURNER GAS COOKING RANGE , etc.   0.00 Single
264 OFAJ FS2140105 26/09/2014 2014-10-06 14:00 2014-10-06 15:00 BASE A-1228 B1 + HARDENER A-1228 B2, DOW CORNING 3140-MIL-A-46146 RTV   0.00 Single
265 OFAJ NS2140024 26/09/2014 2014-10-30 14:00 2014-10-30 15:00 AL.- CR. MASTER ALLOY WITH 5% CR .   0.00 Single
266 OFAJ RS2140270 26/09/2014 2014-09-26 14:00 2014-09-26 15:00 FANUC MAKE SENSOR HEAD   0.00 Single
267 OFAJ RS2140271 26/09/2014 2014-10-21 14:00 2014-10-21 15:00 ACCELERATOR WIRE, ALTERNATOR PT.NO.26021282 ., ASSY FILTER ELEMENT, BELT "V" PT.NO. 77 RF0118381A, BLADE WIPER, CLUTCH MASTER CYLINDER ASSY, COMBINATION SWITCH, COVER CLUTCH (PRESSURE PLATE), CYLINDER   0.00 Single
268 OFAJ RS2140272 26/09/2014 2014-10-28 14:00 2014-10-28 15:00 COMPR.AMC OF PLOTTER & PRINTER   0.00 Single
269 OFT D490H93302 26/09/2014 2014-10-21 14:30 2014-10-21 15:00 External Right Hand 3.0/3.1mm   0.00 Single
270 OFT D490H93303 26/09/2014 2014-10-21 14:30 2014-10-21 15:00 INDEXABLE INSERT END MILL 25   0.00 Single
271 OFT D490H93304 26/09/2014 2014-10-21 14:30 2014-10-21 15:00 INDEXABLE ENDMILL DIA 20 MM   0.00 Single
272 OFT D490H93305 26/09/2014 2014-10-21 14:30 2014-10-21 15:00 INDEXABLE INSERTS ADKT 1505   0.00 Single
273 OFT D490H93306 26/09/2014 2014-10-21 14:30 2014-10-21 15:00 External Left Hand 3.0/3.1 MM   0.00 Single
274 OFT D490H93310 26/09/2014 2014-10-28 14:30 2014-10-28 15:00 INDEXABLE INSERT DRILL DIA 40.   0.00 Single
275 OFT D490H93311 26/09/2014 2014-10-28 14:30 2014-10-28 15:00 INDEXABLE INSERTED TYPE DRILL   0.00 Single
276 OFT D490H93312 26/09/2014 2014-10-28 14:30 2014-10-28 15:00 CARBIDE TIPPED MACHINE REAMER   0.00 Single
277 OFT D490H93313 26/09/2014 2014-10-28 14:30 2014-10-28 15:00 FACE MILL CUTTER DIA 125 MM   0.00 Single
278 OFT D540H93309 26/09/2014 2014-10-28 14:30 2014-10-28 15:00 C2001 PLATING FIXTURE   0.00 Single
279 OFT D550H93307 26/09/2014 2014-10-28 14:30 2014-10-28 15:00 HIGH PERFORMANCE (HP) POLISHIN   0.00 Single
280 OFT D550H93308 26/09/2014 2014-10-28 14:30 2014-10-28 15:00 diamond wheel 1.0ct 9/16x8" gr ,wheel diamond 2.5 ct 9/16" gr.   0.00 Single
281 OFCH 201400373 26/09/2014 2014-10-20 14:00 2014-10-20 14:30 FURNACE OIL DUPLEX FILTER - 50 FURNACE OIL DUPLEX FILTER - 80 FILTER ELEMENT 40 MESH - 50MM FILTER ELEMENT 40 MESH - 80 MM   0.00 Single
282 OFCH 201400374 26/09/2014 2014-10-30 14:00 2014-10-30 14:30 SWITCH DISCONNECTOR-FUSES UNIT SWITCH DISCONNECTOR-FUSES UNIT DIN TYPE HRC FUSE LINK 00 125 APFC RELAY MICROPROCESSOR BASE MOTHER BOARD FOR ELECTRONIC WE   6212.46 Single
283 OFCH 201400376 26/09/2014 2014-10-30 14:00 2014-10-30 14:30 5 IN 1 WITH 3 PIN 5A/15A SOCKE COPPER WOUND HID BALSAST -70W DOOR BELL DINGDONG 230/250 V   9878.13 Single
284 OFPM B405814 26/09/2014 2014-10-21 14:00 2014-10-21 15:00 AIR BREAK CONTACTOR TYPE:3TF4522 COILV24   0.00 Single
285 OFPM B405914 26/09/2014 2014-10-21 14:00 2014-10-21 15:00 PVC CASING/CAPPING TYPE STRIP 25MM WIDTH   0.00 Single
286 OFPM B406014 26/09/2014 2014-12-16 14:00 2014-12-16 15:00 CRATE NEELKAMAL MAKE NILKAMAL CRATE MODEL CC 64485. 600( L )   0.00 Single
287 OFPM H427214 26/09/2014 2014-12-23 14:00 2014-12-23 15:00 GASKET ADAPTOR BUSHING 765-06-533 UNION PIPE TO DRG NO. 765-08-253 PACKING PERFORMED 765-08-265 RETAINER PACKING MVP 1-00-04 ETC.   0.00 Single
288 OFPM K403714 26/09/2014 2014-12-26 14:00 2014-12-26 15:00 HOSE 40Y38-1.3(13) (IN CUT LENGTH OF 3mt HOSE 40Y-25-1.3(13] TY.005-6016-80 L.100 HOSE 40Y-27-1.3(13)L=100MM RUBBER BRAIDED HOSE 3T.20.15 TY 005.280- RUBBER RING DRG NO 903-01-85 ETC.   0.00 Single
289 OFPM R405214 26/09/2014 2014-10-17 14:00 2014-10-17 15:00 AL.ALLOY 1X915X2500MM IS:737   0.00 Single
290 OFPM R405314 26/09/2014 2014-10-15 14:00 2014-10-15 15:00 CARBON ST SEAMLESS ST.TUBE OD17.5 XID 10   0.00 Single
291 OFPM R405414 26/09/2014 2014-10-24 14:00 2014-10-24 15:00 ST SH 1.6X1000X1250MM GR:ST-42 IS:1079   0.00 Single
292 OFPM V412414 26/09/2014 2014-09-26 14:00 2014-09-26 15:00 COVER FOR PROTECTION DRG NO495-22-0000-1   0.00 Single
293 OLF 1406010462 26/09/2014 2014-11-10 15:00 2014-11-10 15:00 SET OF DIODES & TRANSISTORS,SET OF CAPACITORS,SET OF RESISTORS,SET OF ELECTRONIC COMPONENTS   10050.00 Single
294 OLF 1406010463 26/09/2014 2014-11-10 15:00 2014-11-10 15:00 BATTERY LITHUM 3V, SIZE-1/3   6237.00 Single
295 OLF 1406010464 26/09/2014 2014-10-17 15:00 2014-10-17 15:00 BUSH   0.00 Single
296 OFDR 2014000311 26/09/2014 2014-10-28 14:30 2014-10-28 15:00 1. HYDRAULIC PRESS 120 TON CAPACITY.   2.00 Single
297 AFK 20140526 25/09/2014 2014-10-17 14:00 2014-10-17 14:30 HIRING OF MANPOWER FOR SCANNING   0.00 Single
298 OEFC 20140366 25/09/2014 2014-11-14 13:30 2014-11-14 14:00 REPAIRING OF USG MACHINE BY CHANGE/PURCHASE OF MST ASSY UNDER PAC.   0.00 Single
299 MSF 14TE210429 25/09/2014 2014-10-15 14:30 2014-10-15 14:30 OIL CUTTING SOLUBLE/SERVOCUT-S etc.   29517.00 Single
300 MSF 14TE210430 25/09/2014 2014-10-22 14:30 2014-10-22 14:30 HANDLE FOR STEELBOXG70,DRGNO VA/137 etc.   Single
301 MSF 14TE210431 25/09/2014 2014-10-22 14:30 2014-10-22 14:30 ELECTRONIC WEIGHING MACHINE,1 TON etc.   Single
302 MSF 14TE210432 25/09/2014 2014-10-22 14:30 2014-10-22 14:30 10 TON AUTOMATIC TONG FOR NGF/291 etc.   Single
303 MSF 14TE230434 25/09/2014 2014-10-10 14:30 2014-10-10 14:30 DESPATCH/COLLECTION OF MSF TO AVADI etc.   14094.00 Single
304 CFA 14PVTE0237 25/09/2014 2014-10-16 13:00 2014-10-16 14:00 TYRE FOR TATA ACE HTTYRE FOR TATA 407 BS III REAR   0.00 Single
305 CFA 14PVTE0238 25/09/2014 2014-10-16 13:00 2014-10-16 14:00 PISTON ASSY FOR KIRLOSKAR COMPBUSH CONNECTING ROD, KIR COMPRCONNECTING ROD WITH BOLTBRG BUSH HALVES STD BR THINSAFETY PLATE,KIRLOSKAR COMPRES   0.00 Single
306 CFA 14PVTE0239 25/09/2014 2014-10-16 13:00 2014-10-16 14:00 CYLINDER LINER,KIRLOSKAR COMPRSPRING,KIRLOSKAR COMPRESSORS/P PISTON ASSY KIR COMPRESSORRING TEFLON,KIR COMPRESSOR S/PKIT DELY VALVE RING/SPRING   0.00 Single
307 GSF 1400000939 25/09/2014 2014-10-31 00:00 2014-10-31 00:00 CONTAINER AS PER DRG.NO.M-9120B.,   0.00 Single
308 OFA B4TE110448 25/09/2014 2014-10-28 14:30 2014-10-28 15:00 ,HSS HAND TAP,SIZE:M22 X 2.5 PITCH.,HAND TAPS HSS 8MM,HSS R.H. & SHORT M/C TAP, M24 X 3 P etc.   0.00 Single
309 OFA B4TE110450 25/09/2014 2014-10-16 14:30 2014-10-16 15:00 ,ROLL COOLANT OIL, ROLMET N-34 etc.   0.00 Single
310 OFA B4TE120449 25/09/2014 2014-09-26 14:30 2014-09-26 15:00 ,ERECTN & COMMSNG OF ETR REEL ASSY. etc.   0.00 Single
311 OFA B4TE130447 25/09/2014 2014-10-17 14:30 2014-10-17 15:00 ,ODONIL STICK 75GMS etc.   0.00 Single
312 OFK 14CST-0575 25/09/2014 2014-10-21 14:30 2014-10-21 13:00 MINERAL JELLY AMMN JSS-8030-09   0.00 Single
313 OFK 14CST-0576 25/09/2014 2014-10-17 14:30 2014-10-17 13:00 STEEL ROD 14MM 12.43-3 GOST:1435-74   0.00 Single
314 SAF 3143000759 25/09/2014 2014-10-17 14:30 2014-10-17 15:00 FUSE SWITCH DISCONNECTOR UNIT,SWITCH DISCONNECTOR FUSE UNIT,   0.00 Single
315 SAF 3143000760 25/09/2014 2014-10-17 14:30 2014-10-17 15:00 SUBMERSIBLE PUMP FOR AIR COOLE,   0.00 Single
316 SAF 3143000761 25/09/2014 2014-10-17 14:30 2014-10-17 15:00 HONING TOOL FOR DIA 9.9MM BARR,   0.00 Single
317 SAF 3143000762 25/09/2014 2014-10-17 14:30 2014-10-17 15:00 S/C THROUGH COOLANT DRILL DIA.,   0.00 Single
318 SAF 3143000763 25/09/2014 2014-10-14 14:30 2014-10-14 15:00 BRUSH CLEANING SA NO.3MK-I.FOR,   0.00 Single
319 SAF 3143000764 25/09/2014 2014-10-14 14:30 2014-10-14 15:00 TOOL ADJUSTING SA NO.1 MK-1 TO,   0.00 Single
320 OCFAV 227/14-15 25/09/2014 2014-10-20 14:30 2014-10-20 14:30 SCISSORS TAILOR SIZE 10"   0.00 Single
321 OFBA 145078 25/09/2014 2014-10-16 14:30 2014-10-16 14:30 PACKING BOX OF FLSC-10,DRG.272   30200.00 Single
322 OCFC 2014LTE337 25/09/2014 2014-10-21 00:00 2014-10-21 00:00 ,PLUG SHRG20P4ESH8 ,PLUG FEMALE SHR32P10ESH1 ,PLUG FEMALE SSHR32P10ESH4 ,PLUG FEMALE SHR40P16ESH2   0.00 Single
323 OCFC 2014LTE339 25/09/2014 2014-10-21 00:00 2014-10-21 00:00 ,PLUG SHRG20P4ESH8 ,PLUG FEMALE SHR32P10ESH1 ,PLUG FEMALE SSHR32P10ESH4 ,PLUG FEMALE SHR40P16ESH2   0.00 Single
324 HVF 0108935 25/09/2014 2014-10-19 12:00 2014-10-19 15:00 L.H PLATE OF BULK HEAD , etc.   0.00 Single
325 HVF 0108936 25/09/2014 2014-10-25 12:00 2014-10-25 15:00 LEVER , etc.   0.00 Single
326 HVF 0413305 25/09/2014 2014-10-16 12:00 2014-10-16 15:00 NUT , etc.   0.00 Single
327 HVF 0413306 25/09/2014 2014-10-18 12:00 2014-10-18 15:00 GASKET , etc.   0.00 Single
328 HVF 0413307 25/09/2014 2014-12-20 12:00 2014-12-20 15:00 INNER SHIELDING , etc.   0.00 Single
329 HVF 0413308 25/09/2014 2014-10-06 12:00 2014-10-06 15:00 HOOK , etc.   0.00 Single
330 HVF 0413309 25/09/2014 2014-10-16 12:00 2014-10-16 15:00 NEEDLE ROLLER 5X43.8A5 , etc.   0.00 Single
331 HVF 0413310 25/09/2014 2014-10-04 12:00 2014-10-04 15:00 BEARING 100704 , etc.   0.00 Single
332 HVF 0413312 25/09/2014 2014-12-20 12:00 2014-12-20 15:00 GUSSET , etc.   0.00 Single
333 HVF 0413317 25/09/2014 2014-10-16 12:00 2014-10-16 15:00 SPINDLE , etc.   0.00 Single
334 HVF 0413318 25/09/2014 2014-10-09 12:00 2014-10-09 15:00 GASKET , etc.   0.00 Single
335 HVF 0413319 25/09/2014 2014-10-03 12:00 2014-10-03 15:00 SWITCH (V-45-M) , etc.   0.00 Single
336 HVF 0413320 25/09/2014 2014-10-14 12:00 2014-10-14 15:00 CLAMP , etc.   0.00 Single
337 HVF 0413321 25/09/2014 2014-11-05 12:00 2014-11-05 15:00 FABRICATED COMPONENTS , etc.   0.00 Single
338 HVF 0413322 25/09/2014 2014-10-18 12:00 2014-10-18 15:00 OIL FILTER ASSY , etc.   0.00 Single
339 HVF 0812559 25/09/2014 2014-10-21 12:00 2014-10-21 15:00 YMCKT RIBBON OF CP80 FOR DATACARD PRINT , etc.   0.00 Single
340 HVF 0812560 25/09/2014 2014-10-21 12:00 2014-10-21 15:00 INDUCTIVE DISTANCE SENSOR M30 , etc.   0.00 Single
341 OFAJ FS2140103 25/09/2014 2014-10-06 14:00 2014-10-06 15:00 DELAY BODY UPPER TO DRG.NO.FS-2767B   0.00 Single
342 OFAJ FS2140104 25/09/2014 2014-10-06 14:00 2014-10-06 15:00 DELAY BODY LOWER DRG.NO.FS-2766 B.   0.00 Single
343 OFAJ IS2140247 25/09/2014 2014-09-25 14:00 2014-09-25 15:00 ELBOW G.I. SIZE:1/2", G.I. NIPPLE SIZE-1"(25MM), LEAD INGOT 99% PURITY, PVC BALL COCK M/O PTMT H.P. SZ-15MM, PVC CONNECTION SIZE:-1/2X18 INCH.   0.00 Single
344 OFAJ NS2140021 25/09/2014 2014-10-07 14:00 2014-10-07 15:00 JOINT BAND DRG NO.1192A   0.00 Single
345 OFAJ NS2140022 25/09/2014 2014-10-07 14:00 2014-10-07 15:00 OBLIQUE COUPLING DRG NO 23719   0.00 Single
346 OFAJ NS2140023 25/09/2014 2014-10-07 14:00 2014-10-07 15:00 PIN LOCKING TO CAT NO.1101   0.00 Single
347 OFAJ RS2140269 25/09/2014 2014-10-16 14:00 2014-10-16 15:00 COLLECTOR FOR ELECTROSTATIC L/CLEAN   0.00 Single
348 OFCH 201400372 25/09/2014 2014-10-20 14:00 2014-10-20 14:30 CORD NYLON 15MM CIRCUM FOR RKT   0.00 Single
349 OFPM D405514 25/09/2014 2014-11-18 14:00 2014-11-18 15:00 MS PIPE   0.00 Single
350 OFPM D405614 25/09/2014 2014-10-28 14:00 2014-10-28 15:00 SET OF HEAVY DUTY BENDS   0.00 Single
351 OFPM D405714 25/09/2014 2014-11-18 14:00 2014-11-18 15:00 MS PIPE MS PIPE MS PIPE   0.00 Single
352 OFPM H426914 25/09/2014 2014-12-30 14:00 2014-12-30 15:00 COCK 765-08-CD390 PRESSURISATION METER 765-71-CD593 VALVE 765-71-CD582 VALVE 765-84-SB210 INJECTOR 765-84-sb253   0.00 Single
353 OFPM H427014 25/09/2014 2014-12-16 14:00 2014-12-16 15:00 765-08-CD261 PIPE BRACKET ASSY 765-14-CD130 INTAKE PIPE 765-71-CD559 COMPENSATOR TO DRG.NO:765-71-CD362 CLAMP 765-71-SB415 ETC.   0.00 Single
354 OFPM H427114 25/09/2014 2014-12-30 14:00 2014-12-30 15:00 WIRE ROPE ASSY.SINGLE LEG 765-93-CD134 WIRE ROPE ASSY.SINGLE LEG 765-93-SB195 WIRE ROPE ASSY. SINGLE LEG 765-93-CD120 WIRE ROPE 765-100-CD104   0.00 Single
355 OFPM T416514 25/09/2014 2014-09-30 14:00 2014-09-30 15:00 SOLID CARBIDE END MILL DIA 16MM X 50MM.   0.00 Single
356 EFA 14100621 25/09/2014 2014-10-31 00:00 2014-10-31 00:00 RING   0.00 Single
357 EFA 14300058 25/09/2014 2014-10-24 00:00 2014-10-24 00:00 SLEEVE (FORGING)   0.00 Single
358 EFA 14300059 25/09/2014 2014-10-24 00:00 2014-10-24 00:00 VERTICAL SHAFT GEAR (TOP) FORGING   0.00 Single
359 EFA 14300060 25/09/2014 2014-10-24 00:00 2014-10-24 00:00 GEAR (FORGING).   0.00 Single
360 EFA 14300061 25/09/2014 2014-10-24 00:00 2014-10-24 00:00 OIL PUMP DRIVE GEAR   0.00 Single
361 EFA 14600149 25/09/2014 2014-10-14 00:00 2014-10-14 00:00 12 WAY PENDENT CONTROL STATION   0.00 Single
362 OLF 1406010458 25/09/2014 2014-10-06 15:00 2014-10-06 15:00 SEALANT YT-32   18000.00 Single
363 OLF 1406010459 25/09/2014 2014-10-31 15:00 2014-10-31 15:00 STUD (*),STUD (*),WASHER,CLAMP,SHACKLE,SCREW,NUT,NUT,NUT,WASHER   0.00 Single
364 OLF 1406010460 25/09/2014 2014-10-31 15:00 2014-10-31 15:00 CONTACT LUG,WASHER,KNOB (*),CLAMP,CLAMP,RING,RING,AXLE,SCREW,WASHER,RING,RING   0.00 Single
365 OLF 1406010461 25/09/2014 2014-10-31 15:00 2014-10-31 15:00 SCREW (*),SCREW (*),SCREW (*),SCREW (*),SCREW,BASE,RING,SPRING,GASKET,CLAMP   0.00 Single
366 OFDR 2014000310 25/09/2014 2014-10-10 14:30 2014-10-10 15:00 1. FULL SERVICE AMC FOR XEROX COPIER   3.00 Single
367 AFK 20140524 24/09/2014 2014-10-28 14:00 2014-10-28 14:30 NORMALLY OPEN PLUG IN TYPE PNP.   0.00 Single
368 AFK 20140525 24/09/2014 2014-10-17 14:00 2014-10-17 14:30 HMT WTIST WATCHES FOR LADIES, HMT WRIST WATCHES WITH AFK LOGO ETC.   0.00 Single
369 MSF 14TE230427 24/09/2014 2014-10-15 14:30 2014-10-15 14:30 INSPECTION GAUGE "GO" G-1803/2 WORKSHOP GAUGE "GO" G-1803/1. etc.   Single
370 GSF 1400000938 24/09/2014 2014-10-24 00:00 2014-10-24 00:00 INSERT NO.N331-1A-115008 MPM GR.4240., TOOL HOLDER TO ISO NO:SVJBR 2525 M 16., S/C BORING BAR TO WIDIA ORD.CODE E12Q SCLCR 06, BORING TOOL HOLDER NO:S25-S PCLNR-12., INSERT NO. R331.1A-115048H-WL-10   18700.00 Single
371 OCFS 2014000253 24/09/2014 2014-09-24 14:30 2014-09-24 15:00 LDPE SHEETFOR PEAK I/LING.SZ-MEDIUM   0.00 Single
372 HEF TE14150074 24/09/2014 2014-10-21 00:00 2014-10-21 00:00 -PIPE M.S.HEAVY QUALITY 401845203800   0.00 Single
373 OFA B4TE230445 24/09/2014 2014-10-28 14:30 2014-10-28 15:00 ,ANTI MALARIAL SPRAY MATERIAL etc.   0.00 Single
374 OFA B4TE320446 24/09/2014 2014-10-10 14:30 2014-10-10 15:00 ,REPAIRING OF I/O CARD,REPAIRING OF CARD FOR CNC MACHINE,REPAIRING OF CONTROL CARD NC-CPU,REPAIRING OF INPUT OUTPUT CARD etc.   0.00 Single
375 OFKAT 2014000224 24/09/2014 2014-09-24 14:30 2014-09-24 14:30 BLANK CONT STY (255X305MM)PT-3   0.00 Single
376 OFKAT 2014000225 24/09/2014 2014-10-28 14:30 2014-10-28 14:30 SUPER ENAMALLED C.WIRE 1.219MM   0.00 Single
377 OFKAT 2014000226 24/09/2014 2014-09-24 14:30 2014-09-24 14:30 COMPLETE ELECTRICAL LAMP SHADE, PURCHASE OF GLASS CORNER STAND, STITCHED CURTAINS WITH DECORAT, STITCHED CURTAINS WITH DECORAT   0.00 Single
378 OFK 14CST-0572 24/09/2014 2014-10-14 14:30 2014-10-14 13:00 PAPER LAMINATED GR.III (102MM)   0.00 Single
379 SAF 3143000748 24/09/2014 2014-10-28 14:30 2014-10-28 15:00 FIXTURE ALONGWITH NECESS. TOOL,FIXTURE ALONGWITH NECESS. TOOL,   0.00 Single
380 SAF 3143000749 24/09/2014 2014-10-28 14:30 2014-10-28 15:00 FIXTURE ALONGWITH NECESS. TOOL,FIXTURE ALONGWITH NECESS. TOOL,FIXTURE ALONGWITH NECESS. TOOL,   0.00 Single
381 SAF 3143000750 24/09/2014 2014-10-28 14:30 2014-10-28 15:00 FIXTURE ALONGWITH NECESS. TOOL,FIXURE ALONGWITH NECESS. TOOLI,   0.00 Single
382 SAF 3143000751 24/09/2014 2014-10-28 14:30 2014-10-28 15:00 FIXTURE ALONGWITH NECESS. TOOL,FIXTURE ALONGWITH NECESS. TOOL,FIXTURE ALONGWITH NECESS. TOOL,FIXTURE ALONGWITH NECESS. TOOL,   0.00 Single
383 SAF 3143000752 24/09/2014 2014-10-17 14:30 2014-10-17 15:00 S/C HOLE MILL DIA.12.8 MM, FL-,   0.00 Single
384 SAF 3143000753 24/09/2014 2014-10-17 14:30 2014-10-17 15:00 COUNTER SINK CUTTER 60 DEG.,   0.00 Single
385 SAF 3143000754 24/09/2014 2014-10-17 14:30 2014-10-17 15:00 CARBIDE FORM MILLING CUTTER,   0.00 Single
386 SAF 3143000755 24/09/2014 2014-10-17 14:30 2014-10-17 15:00 PULL STUD FOR HMT MACHINE AS P,   0.00 Single
387 SAF 3143000756 24/09/2014 2014-10-17 14:30 2014-10-17 15:00 SOLID CARBIDE THRU COOLANT DRI,   0.00 Single
388 SAF 3143000757 24/09/2014 2014-10-17 14:30 2014-10-17 15:00 S/C DRILL DIA 5.0MM, MICROGRAI,S/C DRILL DIA 6.5MM X FL45MM X,   0.00 Single
389 SAF 3143000758 24/09/2014 2014-10-17 14:30 2014-10-17 15:00 BI METAL BAND SAW SIZE:-4100X,   0.00 Single
390 OCFAV 225/14-15 24/09/2014 2014-09-26 14:30 2014-09-26 14:30 TRANSPORTATION OF DEFENCE CON   0.00 Single
391 OCFAV 226/14-15 24/09/2014 2014-09-26 14:30 2014-09-26 14:30 OCF AVADI TO 9FOD   0.00 Single
392 OFBA 140447 24/09/2014 2014-10-16 14:30 2014-10-16 14:30 ENVELOP (BROWN PAPER) SE-5   0.00 Single
393 OFBA 140448 24/09/2014 2014-10-21 14:30 2014-10-21 14:30 INKJET CARTRIDGE HP-56 (BLACK)   0.00 Single
394 OFBA 140449 24/09/2014 2014-10-21 14:30 2014-10-21 14:30 OFFICE FILE EXTRA STRONG GREEN   0.00 Single
395 OCFC 2014LTE334 24/09/2014 2014-10-14 00:00 2014-10-14 00:00 ,PLUG SHRG20P4ESH8 ,PLUG FEMALE SHR32P10ESH1 ,PLUG FEMALE SSHR32P10ESH4 ,PLUG FEMALE SHR40P16ESH2   12900.00 Single
396 OFV 20140278 24/09/2014 2014-10-28 14:30 2014-10-28 15:00 FUSION POT (HEAVY),   171360.00 Single
397 OFV 20140279 24/09/2014 2014-10-14 14:30 2014-10-14 15:00 CORK SHEET,25 MM THICK,   294700.00 Single
398 OFV 20140280 24/09/2014 2014-11-11 14:30 2014-11-11 15:00 GUIDE SUPPORT SEGMENT,   65880.00 Single
399 OFV 20140281 24/09/2014 2014-11-11 14:30 2014-11-11 15:00 FINGER CAM HOUSING,   46830.00 Single
400 OFV 20140282 24/09/2014 2014-11-11 14:30 2014-11-11 15:00 FEEDING FINGER,SENSOR BLOCK,   111600.00 Single
401 OFV 20140283 24/09/2014 2014-11-11 14:30 2014-11-11 15:00 L.H.CLUTCH,DRG.NO.-V/C/SP/P3/0023-A,   64912.50 Single
402 OFV 20140284 24/09/2014 2014-11-14 14:30 2014-11-14 15:00 CUP FEEDING HOLDER,REP. NO.4 JAW(RIGHT),   152210.00 Single
403 OFV 20140285 24/09/2014 2014-11-14 14:30 2014-11-14 15:00 INDUCTION MOTOR WITH GEAR BOX,,   69260.40 Single
404 OFV 20140286 24/09/2014 2014-11-14 14:30 2014-11-14 15:00 HOUSING II (BOTTOM),EXTRACTOR BLOCK,SLIDE BLOCK,BUSH,FEEDING CAM,   217990.20 Single
405 OFV 20140287 24/09/2014 2014-11-14 14:30 2014-11-14 15:00 FLAMEPROOF SOLONIDE VALVE OPERATING,   31960.00 Single
406 OFV 20140288 24/09/2014 2014-11-14 14:30 2014-11-14 15:00 VARIABLE FREQUENCY DRIVE,,   39899.26 Single
407 OFV 20140289 24/09/2014 2014-11-18 14:30 2014-11-18 15:00 INDUCTIVE PROXIMITY SWITCH,M30,,   23490.00 Single
408 OFV 20140290 24/09/2014 2014-11-18 14:30 2014-11-18 15:00 OIL SAFE DRUM LID LAOS 09743,OIL SAFE DRUM LID 09750,OIL SAFE 5 LITRE DRUM,OIL SAFE 10 LITRE DRUM,   148141.08 Single
409 OFV 20140291 24/09/2014 2014-11-18 14:30 2014-11-18 15:00 POLYURETHENE TUBE PU-6-BL,   27940.00 Single
410 OFCH 201400363 24/09/2014 2014-11-03 14:00 2014-11-03 14:30 DIAL THERMOM/250 MM DIA RAG 0- COPPER WELDING CABLE 600A FLEX HYD.JACK TROLLEY REP.SEAL KIT PNEUMATIC CYLINDER TYPE-C150 C BAND SAW BLADE FOR HS VERTICAL   7428.00 Single
411 OFCH 201400368 24/09/2014 2014-10-27 14:00 2014-10-27 14:30 TONER CARTRIDGE FOR HP LASER J   8902.00 Single
412 OFCH 201400369 24/09/2014 2014-10-27 14:00 2014-10-27 14:30 DECORATIVE ULTRA SLIM BOX FIXT ISI MARKED HPSV LAMP 70 W PVC CABLE 6SQ.MM 4CORE COPPER CRUCILITE HEATING ELEMENT 12 K   8622.81 Single
413 OFCH 201400370 24/09/2014 2014-10-20 14:00 2014-10-20 14:30 APC11(CEMENT RD1154),JSS 8030-   0.00 Single
414 OFCH 201400371 24/09/2014 2014-10-27 14:00 2014-10-27 14:30 LANDSCAPE LIGHTING COLONNA INSULATION TESTER (MEGGER) INSULATION TESTER (MEGGER) EARTH TESTER HAND DRIVEN HOLDER PORCELAIN E-27CAP DRG E CONDUIT BEND NORMAL SCREWED 19 CONDUIT PIPE HGERW SCREW TY 19   0.00 Single
415 FGK 340523 24/09/2014 2014-09-24 00:00 2014-09-24 00:00 TRANSPORTATION OF RBU-6000,RBU,   0.00 Single
416 FGK 340524 24/09/2014 2014-12-23 00:00 2014-12-23 00:00 ELECTRODE GRAPHITE WITH NIPPLE,   52560.00 Single
417 FGK 340525 24/09/2014 2014-11-04 00:00 2014-11-04 00:00 LINK FOR CHARGE SUSPENSION TAC,   10080.00 Single
418 FGK 340526 24/09/2014 2014-11-04 00:00 2014-11-04 00:00 COLLAR FOR CHARGE SUSPENSION T,   8700.00 Single
419 FGK 340527 24/09/2014 2015-06-13 00:00 2015-06-13 00:00 YOKE FOR CHARGE SUSPENSION TAC,   24560.00 Single
420 FGK 340528 24/09/2014 2014-10-30 00:00 2014-10-30 00:00 KIT OF SPARES FOR TOOL HOLDER,   0.00 Single
421 OFPM C411614 24/09/2014 2014-10-21 14:00 2014-10-21 15:00 MECATEC EXPRESS PUTTY OF L & T MAKE   0.00 Single
422 OFPM C411714 24/09/2014 2014-09-30 14:00 2014-09-30 15:00 INTERSHEEN PAINT-WHITE SHADE.   0.00 Single
423 OFPM D405414 24/09/2014 2014-12-23 14:00 2014-12-23 15:00 KEVLAR HAND GLOVES.   0.00 Single
424 OFPM H426814 24/09/2014 2014-10-17 14:00 2014-10-17 15:00 HOOK ASSY. 8603-01-01-01-06-000-00XB   0.00 Single
425 OFPM M401514 24/09/2014 2014-12-16 14:00 2014-12-16 15:00 RISER PIPE FOR LPDC M/C, DRG NO.00281   0.00 Single
426 OFPM S411314 24/09/2014 2014-10-14 14:00 2014-10-14 15:00 AIR OPERATED DOUBLE DIAPHRAGM   0.00 Single
427 OFPM S411514 24/09/2014 2014-12-23 14:00 2014-12-23 15:00 SPARES FOR WHITNEY TORCH IC-300,649-961   0.00 Single
428 OFPM V412314 24/09/2014 2014-10-16 14:00 2014-10-16 15:00 LIMIT SWITCH 675-41-CD141   0.00 Single
429 OLF 1406010438 24/09/2014 2014-10-20 15:00 2014-10-20 15:00 CONNECTOR,2RMD33KPE32G5V1,SOCKET,2RM18KPE7G1V1,CONNECTOR (S) DAM15S,SOCKET 2RM22KPE10G1V1,CONNECTOR (S) 2RMG18B7G1E2B,CONNECTOR BLOCK SHRG28P7ESH9,CONNECTOR PLUG-DAM15P500,CONNECTOR(PLUG), 2RM18B7SH1V   68978.00 Single
430 OLF 1406010439 24/09/2014 2014-10-24 15:00 2014-10-24 15:00 CAP ELECT.AXIAL 10 MF 10% 63V,CAP ELECTROLYTIC 22 MF, 100V,CAP.CERA 6800PF+50-20%160V N30,CAP CREAMIC 0.047MF +/-10%,50V,CAPACITOR CERAMIC 0.022MF, 50V,CAP CERAMIC 680PF 5%, 100V,RESISTOR WW 1.5 OHM,   69248.00 Single
431 OLF 1406010440 24/09/2014 2014-10-27 15:00 2014-10-27 15:00 SHELDING BRAID (PML)- 10X16MM,SHIELDING BRAID (PML)-24X30,SHIELDING BRAID (PML)-6X10,WIRE-MGSHV-0.75 SQMM,WIRE-MGSHV-1.0 SQMM,WIRE-PEVNKH-1-0.2,WIRE-PSHCH-1.0,GOST-9125,SHIELDING BRAID (PML)- 16X24,WI   53737.00 Single
432 OLF 1406010441 24/09/2014 2014-10-27 15:00 2014-10-27 15:00 COMPLETE M/C OF FLANGE DC/117,COMPLETE M/C OF HANDLE DC/150,COMPLETE M/C OF HANDLE DC/153,COMPLETE M/C OF FLANGE DC/196   10415.00 Single
433 OLF 1406010446 24/09/2014 2014-10-27 15:00 2014-10-27 15:00 HOLDER CASTING,STRIP CASTING,PRESSURE DIE CASTING BRACKET,PRESSURE DIE CASTING BODY,PRESSURE DIE CASTING FLANGE,DIE CASTING BODY,DIE CASTING FLANGE,DIE CASTING HOLDER,DIE CASTING HOLDER   13411.00 Single
434 OLF 1406010447 24/09/2014 2014-10-27 15:00 2014-10-27 15:00 PLATE,HOLDER,CLAMP,NUT,WASHER (*),LOCK PIN (*)   0.00 Single
435 OLF 1406010449 24/09/2014 2014-10-27 15:00 2014-10-27 15:00 NUT,EXPANSION WASHER,LEVER,SPRING,SPRING,END PIECE OF CABLE,GASKET,GASKET,GASKET,GASKET   0.00 Single
436 OLF 1406010453 24/09/2014 2014-10-27 15:00 2014-10-27 15:00 RING (*),BUSHING,RING,HOLDER,SLEEVE,BUSHING,ROTOR PLATE,STATOR PLATE,HOUSING,RING,RING   14843.00 Single
437 OLF 1406010457 24/09/2014 2014-10-31 15:00 2014-10-31 15:00 PLATE,NIPPLE,SCREW (*),BRACKET,BRACKET,SPRING,WASHER,WASHER,WASHER,WASHER,WASHER   0.00 Single
438 OLF 1406040444 24/09/2014 2014-12-05 15:00 2014-12-05 15:00 MOTOR DPM 25-N1-01,MOTOR,D12-TF-2SERIES,MOTOR,DID-3TV   65371.00 Single
439 OLF 1406040448 24/09/2014 2014-12-05 15:00 2014-12-05 15:00 RELAY RES-10,RS4.529.031-06,RELAY-REH-33,PF4.510.021-00-01,RELAY,RES-49(RS45694210501),RELAY-RPS-5(RS4-522-302),RELAY RES-10(RS4-529-031-03),RELAY RES-90,RELAY TKE-52PD1,RELAY TKE-54PD1,RELAY RES-47   77273.00 Single
440 OLF 1406040450 24/09/2014 2014-12-05 15:00 2014-12-05 15:00 CAPACITOR KM-6-A-N90-0.1 MKF,CAPACITOR KM-4B-M47-62 PF 10%,CAPACITOR KM-4A-M75-91 PF +-5%,CAPACITOR KM-6-A-N90-1.0 MKF,CAPACITOR K10-17-2A-N90-0.15MF,CAP.KM-4A-M47-120PF +/-10%,CAP KM-6B-M75-620 PF +/   88086.00 Single
441 OLF 1406040451 24/09/2014 2014-12-05 15:00 2014-12-05 15:00 TOGGLE SWITCH T-1,RESISTOR S5-5-2W-100 OHM,1%,RESISTOR S5-5-2W-160 OHM, 1%,T0GGLE SWITCH- TP1-2,SWITCH (MICRO),D-701,SWITCH (PUSH BUTTON),TYPE-KNPT,SWITCH (MICRO) ,MP-11,SWITCH TOGGLE, PIT-1-1,SW   24620.00 Single
442 OLF 1406040452 24/09/2014 2014-12-05 15:00 2014-12-05 15:00 CONNECTOR(PLUG), RSG7BTV,CONNECTOR(PLUG), RS19BTB,CONNECTOR(S)RS10TV WITH CASING,CONNECTOR(S)RS19TV WITH CASING,CONNECTOR(S)RS32TV WITH CASING,CONNECTOR(PLUG),RP15-32SHVV,PLUG,RSH AB-6,SOCKET,RSH AB-   39278.00 Single
443 OLF 1406040454 24/09/2014 2014-12-05 15:00 2014-12-05 15:00 CHIP-140UD1A,TRANSISTOR 2P103V,TRANSISTOR 2P303V,CHIP 123 UN1B,TRANSISTOR 2T-203G,CHIP(INTIGRTD CIRCUIT)122UN1B,TRANSISTOR 2T312B,TRANSISTOR 2T630B,TRANSISTOR 2T825A,TRANSISTOR MATRIX -1NT-251,TRANSIS   68407.00 Single
444 OLF 1406040455 24/09/2014 2014-12-05 15:00 2014-12-05 15:00 DIODE ZENER D818G,DIODE 2TS106A,DIODE D231A,DIODE D237A,DIODE 2D102A,DIODE 2D 103A,DIODE L.E.D.- AL307GM,DIODE ZENER 2S182A,DIODE ZENER 2S168V,DIODE D 223,PHOTO DIODE LFD-2(LFD-2A),ZENER DIODE 2S162A   74134.00 Single
445 OLF 1406040456 24/09/2014 2014-12-05 15:00 2014-12-05 15:00 POTENTIOMETER SP5-3-1W-22K+-5%,POTENTIOMETER PP3-41-68 OHMS,POT.SP5-30-I-25E-47 OHM +/-10%,POTENTIOMETER-SP5-1-1W-470 OHM,POT.PPB-15G-13-100 OHM +/-10%,POT. SP5-2V-1W-1.5 KOHM,POT. SP5-2V-1W-15 KOHM,L   156557.00 Single
446 OFDR 2014000309 24/09/2014 2014-10-17 14:30 2014-10-17 15:00 1. BODY UPPER & BODY LOWER (FLASH 2A)   3.00 Single
447 AFK 20140517 23/09/2014 2014-10-28 14:00 2014-10-28 14:30 CONVEYER PLATE-BOTTOM DRG NO.2433   0.00 Single
448 AFK 20140518 23/09/2014 2014-10-28 14:00 2014-10-28 14:30 WORKER CLOTH LOCKER CABINET- METAL   0.00 Single
449 AFK 20140520 23/09/2014 2014-10-28 14:00 2014-10-28 14:30 S SOLENOID VALVE 3/2 WAY,24V AC,3/4   0.00 Single
450 AFK 20140521 23/09/2014 2014-10-21 14:00 2014-10-21 14:30 PRINTING OF MULTICOLOUR BROCHURE   0.00 Single
451 AFK 20140522 23/09/2014 2014-10-28 14:00 2014-10-28 14:30 RAM FOR LEAD WIRE EXTRUSION PRESS   0.00 Single
452 AFK 20140523 23/09/2014 2014-10-28 14:00 2014-10-28 14:30 SINGLE ACTING PISTON IN CYLINDER   0.00 Single
453 OEFC 20140364 23/09/2014 2014-10-15 13:30 2014-10-15 14:00 COTTON SEWING THREAD 270 D TEX/9 WHITE   0.00 Single
454 MSF 14TE210426 23/09/2014 2014-10-17 14:30 2014-10-17 14:30 HSS TAPS (DRG. NO.- T-5455). etc.   Single
455 GSF 1400000937 23/09/2014 2014-10-24 00:00 2014-10-24 00:00 ULTRA FINE SOLID CARBIDE(GRADE:TSF44 OR EQUIVALENT, ULTRA FINE SOLID CARBIDE(GRADE:TSF44 OR EQUIVALENT, ULTRA FINE SOLID CARBIDE(GRADE TSF44 OR EQUIVALENT, ULTRA FINE SOLID CARBIDE(GRADE TSF44 OR EQU   0.00 Single
456 OFA B4TE220443 23/09/2014 2014-10-21 14:30 2014-10-21 15:00 ,SLIPRING INDUCTION MOTOR 110KW,SLIP RING INDUCTION MOTOR 90 KW etc.   0.00 Single
457 OFA B4TE220444 23/09/2014 2014-10-21 14:30 2014-10-21 15:00 ,TEMPERATURE RECORDER GRAPHIC etc.   0.00 Single
458 SAF 3143000746 23/09/2014 2014-10-10 14:30 2014-10-10 15:00 TONED MILK (TO BE SUPPLIED 299,   0.00 Single
459 OFBA 140445 23/09/2014 2014-10-14 14:30 2014-10-14 14:30 FOLIO BAG MADE UP OF NYLON MAT   0.00 Single
460 OFBA 140446 23/09/2014 2014-10-14 14:30 2014-10-14 14:30 PAPER SHREDDER   0.00 Single
461 OFBA 149002 23/09/2014 2014-10-09 14:30 2014-10-09 14:30 C.AMC OF 8PCS,7 PRINTERS   0.00 Single
462 OCFC 2014LTE331 23/09/2014 2014-10-16 00:00 2014-10-16 00:00 ,PLUG SHRG20P4ESH8 ,PLUG FEMALE SHR32P10ESH1 ,PLUG FEMALE SSHR32P10ESH4 ,PLUG FEMALE SHR40P16ESH2   0.00 Single
463 OCFC 2014LTE332 23/09/2014 2014-10-16 00:00 2014-10-16 00:00 ,PLUG SHRG20P4ESH8 ,PLUG FEMALE SHR32P10ESH1 ,PLUG FEMALE SSHR32P10ESH4 ,PLUG FEMALE SHR40P16ESH2   0.00 Single
464 OCFC 2014LTE333 23/09/2014 2014-09-25 00:00 2014-09-25 00:00 ,PLUG SHRG20P4ESH8 ,PLUG FEMALE SHR32P10ESH1 ,PLUG FEMALE SSHR32P10ESH4 ,PLUG FEMALE SHR40P16ESH2   0.00 Single
465 OFDC 140381M2LT 23/09/2014 2014-10-17 00:00 2014-10-17 14:30 COOLANT PUMP,1.1 KW,3 PHASE   0.00 Single
466 OFDC 140382M2LT 23/09/2014 2014-10-17 00:00 2014-10-17 14:30 ATC SETTING FIXTURE   0.00 Single
467 HVF 0108934 23/09/2014 2014-10-31 12:00 2014-10-31 15:00 COVER , etc.   0.00 Single
468 OFCH 201400365 23/09/2014 2014-10-16 14:00 2014-10-16 09:30 PAPER LAMINATED GR I 914 MM W   41741.00 Single
469 OFCH 201400366 23/09/2014 2014-11-03 14:00 2014-11-03 14:30 O -RING ID:260 COD DIA:6 FOR H `O'RING ID:260 COD DIA:6MM HDC `O'RING ID:92 COD DIA:5 FOR HD FLAT O-RING OD:70 ID:58 TH:3 H   7690.00 Single
470 OFCH 201400367 23/09/2014 2014-10-20 14:00 2014-10-20 14:30 PORC.KIT KAT FUSE CARRI.16A 24 OUTDOOR UNIT COMPLETE CONDENSO OUTDOOR UNIT WITH CONDENSER CO CRIMPING TOOL SIZE:6 TO 400 SQ MAN.OPERATED CRIMPING TOOL 50 IMPACT DRILL 2 SPEED I/P 701 W   0.00 Single
471 OFPM C411314 23/09/2014 2015-01-19 14:00 2015-01-19 15:00 "SAFETY SHOES" SIZE: 5 "SAFETY SHOES" SIZE: 6 "SAFETY SHOES" SIZE: 7 "SAFETY SHOES" SIZE: 8 "SAFETY SHOES" SIZE: 9 ETC.   0.00 Single
472 OFPM C411414 23/09/2014 2014-10-28 14:00 2014-10-28 15:00 HELIUM GAS CONFIRMING TO INTERNATIONAL   0.00 Single
473 OFPM E405714 23/09/2014 2014-09-30 14:00 2014-09-30 15:00 TRANSPORTATION OF CRN-91 GUN WITH SOP   0.00 Single
474 OFPM H426714 23/09/2014 2014-10-17 14:00 2014-10-17 15:00 ANTIROATATION KEY, 01-01-00-01-008-00XA   0.00 Single
475 OFPM R405114 23/09/2014 2014-10-31 14:00 2014-10-31 15:00 HOT RLD ST.SH 2X1000X2500MM GR- DD STEEL SHEET 2 X 1250 X 2500 MM IS:1079   0.00 Single
476 OFPM U402714 23/09/2014 2014-12-19 14:00 2014-12-19 15:00 ZIRFLOR (ZIRCON FLOOR)   0.00 Single
477 HAPP 14/0175 23/09/2014 2014-10-21 14:00 2014-10-21 14:30 PLUG REAR FOR BOMB BODY 81MM HE   0.00 Single
478 OLF 1406010436 23/09/2014 2014-10-20 15:00 2014-10-20 15:00 SWITCH,MP3-1,CORE 30/19-HP3C,ADJUSTING CORE M1500NM3-2PR2.2,CHOKE 20/22 MICROHENERY +/-10%,CORE,INDUCTOR 470 MICRO H, 10%,INSULATOR ISSH-1-250,MICRO SWITCH P1M10-2B,BULB, MN 26-0.12-V-1,LED RED-3MM,BU   37081.00 Single
479 OLF 1406010437 23/09/2014 2014-10-20 15:00 2014-10-20 15:00 TRIODE 3CW 20000 A7   8615.00 Single
480 AFK 20140506 22/09/2014 2014-10-17 14:00 2014-10-17 14:30 SHOCK ABSORBER   0.00 Single
481 AFK 20140507 22/09/2014 2014-10-21 14:00 2014-10-21 14:30 TOOL STEEL RD 3MM EN 31.   0.00 Single
482 AFK 20140508 22/09/2014 2014-10-14 14:00 2014-10-14 14:30 CLOTH CAMBRIC (BLEACHED) 762 MM;   0.00 Single
483 AFK 20140512 22/09/2014 2014-10-17 14:00 2014-10-17 14:30 WET GRINDER WITH 1.5 HP MOTOR, STAINLESS STEEL SNACK BOX ETC.   0.00 Single
484 AFK 20140514 22/09/2014 2014-10-21 14:00 2014-10-21 14:30 PARALLEL SHANK END MILL 16N   0.00 Single
485 AFK 20140515 22/09/2014 2014-10-21 14:00 2014-10-21 14:30 HEAVY DUTY DEMOLITION HAMMER GSH-5   0.00 Single
486 AFK 20140516 22/09/2014 2014-10-10 14:00 2014-10-10 14:30 LIFEBUOY TOTAL SOAP   16000.00 Single
487 OEFC 20140359 22/09/2014 2014-09-22 13:30 2014-09-22 14:00 BEARING NO.NJ417 M MAKE FAG/SKF   0.00 Single
488 OEFC 20140360 22/09/2014 2014-09-22 13:30 2014-09-22 14:00 SUBMERSIBLE PUMP WITH MOTOR,30 HP,3 PHASE,440 VAC,TOTAAL HEAD-72 MTR.(MIN),3 STAGE MAKE: KSB,CROMPTON,TEXMO,CRI   0.00 Single
489 OEFC 20140361 22/09/2014 2014-09-22 13:30 2014-09-22 14:00 "O"RING OR 81300 WITH RP 81300 PT.NO.136FOR TECNO , "O" RING 81050 WITH RP 810150 PT.NO.126 FOR TECNO , ,   0.00 Single
490 MSF 14TE210423 22/09/2014 2014-10-22 14:30 2014-10-22 14:30 CARBIDE INSERT SNMM-250724 S6 etc.   Single
491 MSF 14TE210424 22/09/2014 2014-10-22 14:30 2014-10-22 14:30 RUBBER HOSE 8MM ID BLUE FOR OXYGEN etc.   Single
492 MSF 14TE230425 22/09/2014 2014-10-15 14:30 2014-10-15 14:30 CHAMBER GAUGE DRG NO.G-1802/1. etc.   Single
493 OFA B4TE120441 22/09/2014 2014-10-21 14:30 2014-10-21 15:00 ,WELDING EQUIPMENT,DUTY CYCLE 200A etc.   0.00 Single
494 OFA B4TE120442 22/09/2014 2014-10-21 14:30 2014-10-21 15:00 ,REDN.GEAR BOX,ROTOFLEX MODEL:43 K-I,REDCTN.GEAR BOX WITH MTR,33KH-71M4. etc.   0.00 Single
495 OFKAT 2014000223 22/09/2014 2014-10-31 14:30 2014-10-31 14:30 AL.ALLOY PIN.   0.00 Single
496 OFK 14CST-0571 22/09/2014 2014-10-17 14:30 2014-10-17 13:00 SET CONSITING OF 3 RUBBER COMPONENT   0.00 Single
497 SAF 3143000745 22/09/2014 2014-09-30 14:30 2014-09-30 15:00 INSERT FOR HOLDER (NO.T490E90L,MINI TANG FOR MILLING AS PER C,   0.00 Single
498 OCFAV 224/14-15 22/09/2014 2014-10-09 11:00 2014-10-09 11:00 PSF LSD BLUE GREY - 20 CM PSF LSD CLOSED AL BLUE GREY 18 CM PSF LSD CLOSED AL BLUE GREY 19 CM   13900.00 Single
499 OCFC 2014LTE323 22/09/2014 2014-10-14 00:00 2014-10-14 00:00 ,PLUG SHRG20P4ESH8 ,PLUG FEMALE SHR32P10ESH1 ,PLUG FEMALE SSHR32P10ESH4 ,PLUG FEMALE SHR40P16ESH2   0.00 Single
500 OCFC 2014LTE324 22/09/2014 2014-10-16 00:00 2014-10-16 00:00 ,PLUG SHRG20P4ESH8 ,PLUG FEMALE SHR32P10ESH1 ,PLUG FEMALE SSHR32P10ESH4 ,PLUG FEMALE SHR40P16ESH2   8638.00 Single
501 OCFC 2014LTE325 22/09/2014 2014-10-16 00:00 2014-10-16 00:00 ,PLUG SHRG20P4ESH8 ,PLUG FEMALE SHR32P10ESH1 ,PLUG FEMALE SSHR32P10ESH4 ,PLUG FEMALE SHR40P16ESH2   0.00 Single
502 OCFC 2014LTE326 22/09/2014 2014-10-16 00:00 2014-10-16 00:00 ,PLUG SHRG20P4ESH8 ,PLUG FEMALE SHR32P10ESH1 ,PLUG FEMALE SSHR32P10ESH4 ,PLUG FEMALE SHR40P16ESH2   0.00 Single
503 OCFC 2014LTE327 22/09/2014 2014-10-16 00:00 2014-10-16 00:00 ,PLUG SHRG20P4ESH8 ,PLUG FEMALE SHR32P10ESH1 ,PLUG FEMALE SSHR32P10ESH4 ,PLUG FEMALE SHR40P16ESH2   0.00 Single
504 OCFC 2014LTE328 22/09/2014 2014-10-16 00:00 2014-10-16 00:00 ,PLUG SHRG20P4ESH8 ,PLUG FEMALE SHR32P10ESH1 ,PLUG FEMALE SSHR32P10ESH4 ,PLUG FEMALE SHR40P16ESH2   9514.00 Single
505 OCFC 2014LTE329 22/09/2014 2014-10-16 00:00 2014-10-16 00:00 ,PLUG SHRG20P4ESH8 ,PLUG FEMALE SHR32P10ESH1 ,PLUG FEMALE SSHR32P10ESH4 ,PLUG FEMALE SHR40P16ESH2   0.00 Single
506 OCFC 2014LTE330 22/09/2014 2014-10-16 00:00 2014-10-16 00:00 ,PLUG SHRG20P4ESH8 ,PLUG FEMALE SHR32P10ESH1 ,PLUG FEMALE SSHR32P10ESH4 ,PLUG FEMALE SHR40P16ESH2   0.00 Single
507 HVF 0108933 22/09/2014 2014-10-15 12:00 2014-10-15 15:00 ENGINE BED , etc.   0.00 Single
508 HVF 0413304 22/09/2014 2014-10-13 12:00 2014-10-13 15:00 CABLE ASSY. , etc.   0.00 Single
509 HVF 0701962 22/09/2014 2014-10-15 12:00 2014-10-15 15:00 PIPE 14X1.5 ST GR:B10 , etc.   0.00 Single
510 OFV 20140277 22/09/2014 2014-10-21 14:30 2014-10-21 15:00 SINGLE POINT DIAMOND DRESSER,,HSS DRILL 4MM DIA.X 200MM X250 MM,   144675.50 Single
511 OFAJ IS2140244 22/09/2014 2014-10-14 14:00 2014-10-14 15:00 CAUSTIC SODA TO SPN IS-252:1991   0.00 Single
512 OFAJ IS2140245 22/09/2014 2014-10-14 14:00 2014-10-14 15:00 ION EXCHANGE RESIN-MB102.   0.00 Single
513 OFAJ IS2140246 22/09/2014 2014-10-14 14:00 2014-10-14 15:00 SINK WASTE COUPLING OF OUTER BODY   0.00 Single
514 OFAJ RS2140267 22/09/2014 2014-10-30 14:00 2014-10-30 15:00 AFTER FILTER FOR FINE PARTICLES., ANTI VIBRATION MOUNTS 04NOS EACH SE, FILTER 04 PADS EACH SET, LID DEAL FOR OIL MIST FILTER COLLEC, OIL MIST COLLECTOR,FOR TORNOS CNC, SILINCER PADS 02 PADS EACH SET   0.00 Single
515 OFAJ RS2140268 22/09/2014 2014-10-28 14:00 2014-10-28 15:00 DUPLOMATIC MAKE FLEXIBLE JOINT   0.00 Single
516 OFT D182E52401 22/09/2014 2014-10-14 14:30 2014-10-14 15:00 HOUSING HAMMER - 1332   0.00 Single
517 OFT D182G52395 22/09/2014 2014-10-14 14:30 2014-10-14 15:00 WRENCH,ADJUSTING FORESIGHT   0.00 Single
518 OFT D182G52399 22/09/2014 2014-10-14 14:30 2014-10-14 15:00 CONTAINER CLEANING KIT RIFLE   0.00 Single
519 OFT D212A52396 22/09/2014 2014-10-14 14:30 2014-10-14 15:00 STEEL STRIP 22BG X 2.625" EN42   0.00 Single
520 OFT D212B52397 22/09/2014 2014-10-14 14:30 2014-10-14 15:00 IC LOCATING PIECE (ICR 1505)   0.00 Single
521 OFT D212E52398 22/09/2014 2014-10-14 14:30 2014-10-14 15:00 PLUNGER   0.00 Single
522 OFT D21BA52393 22/09/2014 2014-10-14 14:30 2014-10-14 15:00 Steel Sheet 1.6mm   0.00 Single
523 OFT D21BA52394 22/09/2014 2014-10-14 14:30 2014-10-14 15:00 Steel Sheet 1.6mm   0.00 Single
524 OFT D560N52402 22/09/2014 2014-10-14 14:30 2014-10-14 15:00 ANTI-WEAR HYDRAULIC OIL IS-105   0.00 Single
525 OFT D685E52400 22/09/2014 2014-10-16 14:30 2014-10-16 15:00 PLATE BUTT TO DRG. NO.SP-49   0.00 Single
526 OFCH 201400362 22/09/2014 2014-10-16 14:00 2014-10-16 14:30 VOCAL MICROPHONE-MODEL NO.PG-5 SOUND BOX 100W RMS SRX - 120 D POWER SUPPLY 24V DC 5A MLFB 6E ELECT CONTROL PANEL AIR CONDIT OP77B MLFB 6A V66410CA010AX1 D.V.D.PLAYER WITH AUDIO AMPLIF   0.00 Single
527 OFCH 201400364 22/09/2014 2014-10-20 14:00 2014-10-20 14:30 TAPE COTTON WEBING TYPE 25 MM   6479.00 Single
528 OEFHZ 20140067 22/09/2014 2014-09-30 00:00 2014-09-30 00:00 REPAIRING OF 500 KVA D.G.SET MAKE KIRLOSKAR   0.00 Single
529 FGK 340507 22/09/2014 2014-10-14 00:00 2014-10-14 00:00 STEEL SHEET SIZE-735MMX735MMX3,   0.00 Single
530 FGK 340508 22/09/2014 2014-10-28 00:00 2014-10-28 00:00 SKIN TURN&UT PASS NOZZLE FRONT,   0.00 Single
531 FGK 340509 22/09/2014 2014-12-09 00:00 2014-12-09 00:00 WELDING ELECTRODE FOR CAST IRO,   0.00 Single
532 FGK 340510 22/09/2014 2014-12-02 00:00 2014-12-02 00:00 SPL TIGER HP TRAINGULAR INSERT,   0.00 Single
533 FGK 340511 22/09/2014 2014-11-18 00:00 2014-11-18 00:00 HSS HAND TAP SIZE-4BA.HARDENED,   0.00 Single
534 FGK 340512 22/09/2014 2014-12-02 00:00 2014-12-02 00:00 SOLID CARBIDE DRILL 2.3MM DIA,   0.00 Single
535 FGK 340513 22/09/2014 2014-12-02 00:00 2014-12-02 00:00 INSERT DNMG 150608 (COATED GRA,   0.00 Single
536 FGK 340514 22/09/2014 2014-12-09 00:00 2014-12-09 00:00 BALL END MILL P/SHANK3.95MMDIA,   0.00 Single
537 FGK 340515 22/09/2014 2014-12-04 00:00 2014-12-04 00:00 TOOL SHAVING AS PER DRG.NO T-1,   0.00 Single
538 FGK 340516 22/09/2014 2014-12-02 00:00 2014-12-02 00:00 END MILL CUTTER 4.5 MM (SOLID,   0.00 Single
539 FGK 340517 22/09/2014 2014-12-02 00:00 2014-12-02 00:00 FILE SQUARE SMOOTH SIZE-4" WIT,   0.00 Single
540 FGK 340518 22/09/2014 2014-12-16 00:00 2014-12-16 00:00 BEARING DOUBLE ROW SELF ALING,   0.00 Single
541 FGK 340519 22/09/2014 2014-12-11 00:00 2014-12-11 00:00 CERTANIUM - 707 SP. SIZE:2.5mm,   0.00 Single
542 FGK 340520 22/09/2014 2014-12-16 00:00 2014-12-16 00:00 SET OF ANGULAR CONTACT BALL BE,   0.00 Single
543 OFPM C411114 22/09/2014 2014-10-14 14:00 2014-10-14 15:00 TONER CARTRIDGE FOR HP P1007.   0.00 Single
544 OFPM C411214 22/09/2014 2014-09-22 14:00 2014-09-22 15:00 PETROL,(MS)   0.00 Single
545 OFPM R405014 22/09/2014 2014-10-10 14:00 2014-10-10 15:00 ALUMINIUM CHEQUERED PLATE 6MM   0.00 Single
546 OFPM V412114 22/09/2014 2015-01-17 14:00 2015-01-17 15:00 TACHOMETER GENERATOR D-4 (MP2.320.010)   0.00 Single
547 OFPM V412214 22/09/2014 2014-09-25 14:00 2014-09-25 15:00 EJECTOR AND AIR CLEANER, DRG-675-10-CD2   0.00 Single
548 EFA 14100620 22/09/2014 2014-09-30 00:00 2014-09-30 00:00 VALVE GUIDE(STANDARD SIZE)   0.00 Single
549 EFA 14600145 22/09/2014 2014-10-14 00:00 2014-10-14 00:00 GREASE SERVOGEM-2   0.00 Single
550 EFA 14600146 22/09/2014 2014-10-14 00:00 2014-10-14 00:00 HYDRAULIC FILTER ELEMENT   0.00 Single
551 EFA 14600147 22/09/2014 2014-10-14 00:00 2014-10-14 00:00 CABLE ELECTRIC 1100VOLTS GRADE; 16 SQ.MM COPPER LUG; 25 SQ.MM COPPER LUG.; COPPER TUBULAR TERMINAL LUGS; CU.TUBULAR TERMINAL LUGS-50SQMM; LUGS COPPER DOWELL MAKE OF;   0.00 Single
552 EFA 14600148 22/09/2014 2014-10-14 00:00 2014-10-14 00:00 LOCTITE-5922,CAPACITY:200 ML; LOCTITE-5205,CAPACITY:300 ML; ULTRA CLEAN 2000(20 LTR CONTAINER);   0.00 Single
553 OLF 1406010434 22/09/2014 2014-10-20 15:00 2014-10-20 15:00 BALLAST COPPER WIRE WOUND 240V   0.00 Single
554 OLF 1406010435 22/09/2014 2014-10-20 15:00 2014-10-20 15:00 3POLE POWER CONTACTOR TY ML-6   0.00 Single
555 OLF 1406040433 22/09/2014 2014-12-01 15:00 2014-12-01 15:00 GREASE PROTON,PRESSURE DIE CASTING OF BODY,PRESSURE DIE CASTING BODY   0.00 Single
556 OFBOL 14150222 22/09/2014 2014-10-21 14:30 2014-10-21 14:30 CONTAINER 38B DRG.NO-CIA/AMN/2008 &   13416.00 Single
557 OFDR 2014000308 22/09/2014 2014-10-14 14:30 2014-10-14 15:00 1. F.G.I.NO.1,MK-I YELLOW EMPTY SET   0.00 Single
558 GSF 1400000936 21/09/2014 2014-09-29 00:00 2014-09-29 00:00 Lacquer BT-987,BT-988 To GOST:6244-70,   0.00 Single
559 OFV 20140269 21/09/2014 2014-10-21 14:30 2014-10-21 15:00 TABLE TOP ELECTRONIC WEIGHING BALAN,TABLE TOP ELECTRONIC WEIGHING BALA,   221250.00 Single
560 OFV 20140270 21/09/2014 2014-11-07 14:30 2014-11-07 15:00 VIBRATORY MOTOR,3 PHASE,1440 RPM,   150007.09 Single
561 OFV 20140271 21/09/2014 2014-11-07 14:30 2014-11-07 15:00 3 POLE POWER CONTACTOR WITH 2NO+2NC,   136150.00 Single
562 OFV 20140272 21/09/2014 2014-12-05 14:30 2014-12-05 15:00 INTEGRAL CFL POST TOP LANTERNS,PEDESTAL FAN 24",   229313.00 Single
563 OFV 20140274 21/09/2014 2014-10-24 14:30 2014-10-24 15:00 PAPER ROLL WHITE,   56700.00 Single
564 OFV 20140275 21/09/2014 2014-10-24 14:30 2014-10-24 15:00 TABLES FOR PROPELLANT WEIGHING BAL.,   239760.00 Single
565 OFAJ SS2140067 21/09/2014 2014-10-15 14:00 2014-10-15 15:00 INT.THRD I LOCK T/HOLDER 266RKF3216, THRD/HOLDER 266 RKF 32-16   0.00 Single
566 AFK 20140502 20/09/2014 2014-10-17 14:00 2014-10-17 14:30 CAM SHAFT AS PER DRG.AFK/CSP 5454   0.00 Single
567 AFK 20140503 20/09/2014 2014-10-17 14:00 2014-10-17 14:30 HEXAGON SOCKET HEAD CAP SCREW   0.00 Single
568 GSF 1400000924 20/09/2014 2014-11-20 00:00 2014-11-20 00:00 LOCTITE-648,   0.00 Single
569 GSF 1400000926 20/09/2014 2014-10-20 00:00 2014-10-20 00:00 TRANSPORTATION FROM GSF TO PXE (TO & FRO)WITH SUMO,   10600.00 Single
570 GSF 1400000927 20/09/2014 2014-10-20 00:00 2014-10-20 00:00 SUPPLYING OF APPROPRIATE MANPOWER TO PROVIDE SERV.,   131200.00 Single
571 GSF 1400000928 20/09/2014 2014-10-20 00:00 2014-10-20 00:00 WORM WHEEL, HMT STOCK NO:E6096003, WORM 1 START, HMT STOCK NO:E7062003,   6100.00 Single
572 GSF 1400000929 20/09/2014 2014-10-27 00:00 2014-10-27 00:00 METAL HALIED FITTINGS CAT NO.MWF-330 SK / 400W., SINGLE ENDED TUBULAR HIGH PRESSURE MV BASED,   0.00 Single
573 GSF 1400000930 20/09/2014 2014-10-27 00:00 2014-10-27 00:00 CHANGE OVER SWITCH 3 PHASE 400V,1000AMPS,OFF LOAD,   0.00 Single
574 GSF 1400000931 20/09/2014 2014-10-27 00:00 2014-10-27 00:00 PORTABLE EMERGENCY LIGHT,   0.00 Single
575 GSF 1400000932 20/09/2014 2014-10-27 00:00 2014-10-27 00:00 HEATER 1.5KW,230V,AC AS PER GSF DRG.NO:M-11035,   0.00 Single
576 GSF 1400000933 20/09/2014 2014-10-27 00:00 2014-10-27 00:00 HALOGEN LAMP S-1000-W-240/250V., HALOGEN LIGHT FITTINGS OF 1000 WATT CAPACITY.,   0.00 Single
577 GSF 1400000934 20/09/2014 2014-10-27 00:00 2014-10-27 00:00 MCB DOUBLE POLE-25A 240/415V AC DUAL TRIPPING, MCB DOUBLE POLE 40A 240/415V AC.,   0.00 Single
578 OCFS 2014000248 20/09/2014 2014-10-01 14:30 2014-10-01 15:00 ONE PIECE FUSED COLLAR 39 CMS.,O/P FUSED S/STRAPS SZ-18.5,20.5 CMS   0.00 Single
579 OCFS 2014000250 20/09/2014 2014-10-01 14:30 2014-10-01 15:00 CORD NYLON 1785 N UNDYED( BL WHITE)   0.00 Single
580 OFKAT 2014000221 20/09/2014 2014-10-31 14:30 2014-10-31 14:30 ADAPTER OF PIERCER FOR DIA 190, CUTTING&CUPPING PUNCH BR.5.56F   0.00 Single
581 OFKAT 2014000222 20/09/2014 2014-09-20 14:30 2014-09-20 14:30 BILLET MOVING PLATE.   0.00 Single
582 OFK 14CST-0559 20/09/2014 2014-10-07 14:30 2014-10-07 13:00 BRASS ROD 11MM BS2874 CZ122 "M"   0.00 Single
583 OFK 14CST-0560 20/09/2014 2014-10-10 14:30 2014-10-10 13:00 BRASS STRIP 101.6X2.64 JSS-9535-02   0.00 Single
584 OFK 14CST-0561 20/09/2014 2014-10-10 14:30 2014-10-10 13:00 WIRE LEAD ANT 5.66TO 5.74MM JSS9530   0.00 Single
585 OFK 14CST-0562 20/09/2014 2014-10-14 14:30 2014-10-14 13:00 BRASS STRIP 56X1.59MM JSS:9535-02'A   0.00 Single
586 OFK 14CST-0563 20/09/2014 2014-10-14 14:30 2014-10-14 13:00 BRASS STRIP 31.75X0.558MM IS410CUZN   0.00 Single
587 OFK 14CST-0564 20/09/2014 2014-10-14 14:30 2014-10-14 13:00 BRASS STRIP 28X0.5MM BS2870 CZ102   0.00 Single
588 OFK 14CST-0565 20/09/2014 2014-10-17 14:30 2014-10-17 13:00 BRASS STRIP60.32X.315MM IS410CUZN30   0.00 Single
589 OFK 14CST-0566 20/09/2014 2014-10-17 14:30 2014-10-17 13:00 H.S.S ROD 25MM IS:7291 XT72W18CR4V1   0.00 Single
590 OFK 14CST-0567 20/09/2014 2014-10-17 14:30 2014-10-17 13:00 STEEL TOOL ROD 16MM GR.T105CR5 EN31   0.00 Single
591 OFK 14CST-0569 20/09/2014 2014-10-17 14:30 2014-10-17 13:00 STEEL ROD 29MM IS-1570 GR.40C10S18   0.00 Single
592 SAF 3143000736 20/09/2014 2014-10-07 14:30 2014-10-07 15:00 DIAMOND STONE FOR FINISH HONIN,   0.00 Single
593 SAF 3143000737 20/09/2014 2014-10-10 14:30 2014-10-10 15:00 CARBIDE TOOL SANDVIK NO.R216.2,   0.00 Single
594 SAF 3143000738 20/09/2014 2014-10-10 14:30 2014-10-10 15:00 DRILL S/C DIA7.8MM,   0.00 Single
595 SAF 3143000739 20/09/2014 2014-10-14 14:30 2014-10-14 15:00 SOLID CARBIDE REAMER DIA. 2.30,   0.00 Single
596 SAF 3143000740 20/09/2014 2014-10-14 14:30 2014-10-14 15:00 BORING&PROFILING INSERT HORN N,   0.00 Single
597 SAF 3143000741 20/09/2014 2014-10-10 14:30 2014-10-10 15:00 T-SLOT TYPE CARBIDE TIPPED BRA,   0.00 Single
598 SAF 3143000743 20/09/2014 2014-10-10 14:30 2014-10-10 15:00 HYDRA DRILL HEAD FOR STEEL R95,HYDRA BODY 3XD METRIC SHANK H8,   0.00 Single
599 OCFAV 222/14-15 20/09/2014 2014-10-15 14:30 2014-10-15 14:30 30 V TRACTION BATTERY 188/200 AMPS   0.00 Single
600 OCFAV 223/14-15 20/09/2014 2014-10-15 14:30 2014-10-15 14:30 HARD BOARD 1830 X 1220 X 6 MM(6X4')   0.00 Single
601 OFBA 140441 20/09/2014 2014-10-28 14:30 2014-10-28 14:30 DIAPHRAGM(TEFLON)SB1-A.   0.00 Single
602 OFBA 140442 20/09/2014 2014-10-28 14:30 2014-10-28 14:30 BATTERY 12 VOLT,65AH,SMF,OKAYA   8200.00 Single
603 OFBA 140443 20/09/2014 2014-10-28 14:30 2014-10-28 14:30 PIPE G.I.SIZE -1"(25 MM)   0.00 Single
604 OFBA 140444 20/09/2014 2014-09-30 14:30 2014-09-30 14:30 REPLACING S.A.TANK OF NC-II   0.00 Single
605 OCFC 2014LTE319 20/09/2014 2014-10-09 00:00 2014-10-09 00:00 ,PLUG SHRG20P4ESH8 ,PLUG FEMALE SHR32P10ESH1 ,PLUG FEMALE SSHR32P10ESH4 ,PLUG FEMALE SHR40P16ESH2   0.00 Single
606 OCFC 2014LTE320 20/09/2014 2014-10-14 00:00 2014-10-14 00:00 ,PLUG SHRG20P4ESH8 ,PLUG FEMALE SHR32P10ESH1 ,PLUG FEMALE SSHR32P10ESH4 ,PLUG FEMALE SHR40P16ESH2   0.00 Single
607 OCFC 2014LTE321 20/09/2014 2014-10-14 00:00 2014-10-14 00:00 ,PLUG SHRG20P4ESH8 ,PLUG FEMALE SHR32P10ESH1 ,PLUG FEMALE SSHR32P10ESH4 ,PLUG FEMALE SHR40P16ESH2   0.00 Single
608 OCFC 2014LTE322 20/09/2014 2014-10-16 00:00 2014-10-16 00:00 ,PLUG SHRG20P4ESH8 ,PLUG FEMALE SHR32P10ESH1 ,PLUG FEMALE SSHR32P10ESH4 ,PLUG FEMALE SHR40P16ESH2   0.00 Single
609 OFDC 140373M2LT 20/09/2014 2014-10-14 00:00 2014-10-14 14:30 BALL BEARING SKF-6205 ZZ. TAPER ROLLER BEARING(55X95X30) T/R BEARING NO.33112(60X100X30 BEARING NO. 16018, MAKE - SKF. TAPER ROLLER BEARING NO:32010X TAPER ROLLER BEARING,NO: 30208 TAPER   0.00 Single
610 OFDC 140374M2LT 20/09/2014 2014-10-14 00:00 2014-10-14 14:30 DELTA CONNECTED HEAVY DUTY   0.00 Single
611 OFDC 140375M4LT 20/09/2014 2014-10-14 00:00 2014-10-14 14:30 T-MAX T/HOLD.S-16R SCLCL 09 M PARTING INSERT HOLD.DGTR2020-3 INSERT:TM 151.2-4G 01-2251 42   0.00 Single
612 OFDC 140376M4LT 20/09/2014 2014-10-14 00:00 2014-10-14 14:30 INSERT:GSFP 3.12-0.22 IC-908 C.T.INSERT:GSFN-4-IC 328 SUITA   0.00 Single
613 OFDC 140377M4LT 20/09/2014 2014-10-14 00:00 2014-10-14 14:30 ISCAR INSERT 3 MM CODE GSFP3.1 END MILL,MAKE:ISCAR   0.00 Single
614 OFDC 140378M4LT 20/09/2014 2014-10-14 00:00 2014-10-14 14:30 THROUGH COOLANT STEP DRILL SPIRAL FLUTED THROUGH COOLANT   0.00 Single
615 OFDC 140379M4LT 20/09/2014 2014-10-14 00:00 2014-10-14 14:30 INSERT CNMG 120408 WM 4025   0.00 Single
616 OFDC 140380M4LT 20/09/2014 2014-10-14 00:00 2014-10-14 14:30 A 12 M SCLCL 06 14AE-L/05.5   0.00 Single
617 HVF 0413295 20/09/2014 2014-10-15 12:00 2014-10-15 15:00 PANEL , etc.   0.00 Single
618 HVF 0413296 20/09/2014 2014-10-15 12:00 2014-10-15 15:00 TRAY , etc.   0.00 Single
619 HVF 0413297 20/09/2014 2014-10-15 12:00 2014-10-15 15:00 CLAMP BOLT , etc.   0.00 Single
620 HVF 0413298 20/09/2014 2014-10-15 12:00 2014-10-15 15:00 DOWEL , etc.   0.00 Single
621 HVF 0413299 20/09/2014 2014-10-15 12:00 2014-10-15 15:00 TRAY FOR BSLA 12V 120AH AT 5 HRS RATE , etc.   0.00 Single
622 HVF 0701960 20/09/2014 2014-09-30 12:00 2014-09-30 15:00 RING , etc.   0.00 Single
623 HVF 0701961 20/09/2014 2014-10-16 12:00 2014-10-16 15:00 UNION PIPE , etc.   0.00 Single
624 OFAJ FS2140101 20/09/2014 2014-09-29 14:00 2014-09-29 15:00 "ROTOR HOLDER" TO OFAJ DRG.FS-2473B   0.00 Single
625 OFAJ FS2140102 20/09/2014 2014-09-29 14:00 2014-09-29 15:00 "ROTOR HOLDER"OFAJ DRG.NO.FS-2484 B   0.00 Single
626 OFAJ RS2140262 20/09/2014 2014-10-21 14:00 2014-10-21 15:00 SUPPLY AND INSTALLATION OF SCADA   0.00 Single
627 OFAJ TS2140128 20/09/2014 2014-10-10 14:00 2014-10-10 15:00 H.S.S T/SHANK DRILL 32 MM DIA., MT-5 TANGED END MILL 40 DIA X150F/L   0.00 Single
628 OFCH 201400359 20/09/2014 2014-10-09 14:00 2014-10-09 14:30 TAPE COTTON M PROOFED 25 MM WI   0.00 Single
629 OFPM C411014 20/09/2014 2014-10-14 14:00 2014-10-14 15:00 STEEL SHOTS SIZE:1 MM DIA IS:4606-1968   0.00 Single
630 OFPM D405314 20/09/2014 2014-10-14 14:00 2014-10-14 15:00 EXOTHERMIC SLEEVES FOR USE IN PRODUCTION   0.00 Single
631 OFPM F403614 20/09/2014 2014-11-21 14:00 2014-11-21 15:00 FORGING RING 675-65-492   0.00 Single
632 OFPM M401314 20/09/2014 2014-10-21 14:00 2014-10-21 15:00 FILTER ELEMENT F33AMG1/2, ITEM NO.750941   0.00 Single
633 OFPM M401414 20/09/2014 2014-10-21 14:00 2014-10-21 15:00 HEATING ELEMENT.COIL TYPE FOR PIT FURNAC   0.00 Single
634 OFPM S411014 20/09/2014 2014-10-28 14:00 2014-10-28 15:00 CAM YOKE ROLLER   0.00 Single
635 OFPM S411114 20/09/2014 2015-06-23 14:00 2015-06-23 15:00 TUBOTHAL HEATING ELEMENTS,BIRD CAGE TYPE   0.00 Single
636 OFPM S411214 20/09/2014 2014-10-21 14:00 2014-10-21 15:00 WASTE WATER DRAIN PUMP WITH FLOAT SWITCH   0.00 Single
637 OFPM T416314 20/09/2014 2014-11-18 14:00 2014-11-18 15:00 SPECIAL DRILL SPECIAL DRILL.   0.00 Single
638 OFPM T416414 20/09/2014 2014-11-18 14:00 2014-11-18 15:00 SPECIAL COATED THREAD MILLING CUTTER. SPECIAL COATED THREAD MILLING CUTTER.   0.00 Single
639 OFPM U402614 20/09/2014 2014-10-10 14:00 2014-10-10 15:00 DYCOTE 39 IN 25 KG POLYC   0.00 Single
640 EFA 14100609 20/09/2014 2014-10-17 00:00 2014-10-17 00:00 NUT   0.00 Single
641 EFA 14100610 20/09/2014 2014-10-17 00:00 2014-10-17 00:00 TUBE FOR OIL DISCHARGE TO OIL CLEAN   0.00 Single
642 EFA 14100611 20/09/2014 2014-10-17 00:00 2014-10-17 00:00 RING; GASKET; GASKET;   0.00 Single
643 EFA 14100612 20/09/2014 2014-10-17 00:00 2014-10-17 00:00 NUT   0.00 Single
644 EFA 14100613 20/09/2014 2014-10-17 00:00 2014-10-17 00:00 BUSH   0.00 Single
645 EFA 14100614 20/09/2014 2014-10-17 00:00 2014-10-17 00:00 SLIDING BLOCK; STRIP;   0.00 Single
646 EFA 14100615 20/09/2014 2014-10-17 00:00 2014-10-17 00:00 FIXTURE FOR MOUNTING EXHAUST MANIFO   0.00 Single
647 EFA 14100616 20/09/2014 2014-10-17 00:00 2014-10-17 00:00 BRACKET   0.00 Single
648 EFA 14100617 20/09/2014 2014-10-17 00:00 2014-10-17 00:00 PIPE; PIPE;   0.00 Single
649 EFA 14100618 20/09/2014 2014-10-17 00:00 2014-10-17 00:00 CASING   0.00 Single
650 EFA 14100619 20/09/2014 2014-10-11 00:00 2014-10-11 00:00 HOSE FROM OIL PUMP TO OIL CLEANER   0.00 Single
651 OLF 1406010423 20/09/2014 2014-10-17 15:00 2014-10-17 15:00 HAND TAP GROUND M2.5X0.45,HSS MACHINE TAP M4.0 X0.7 6H   0.00 Single
652 OLF 1406040424 20/09/2014 2014-11-21 15:00 2014-11-21 15:00 POTENTIOMETER SP5-3-1W-22K+-5%,POTENTIOMETER PP3-41-68 OHMS,POT.SP5-30-I-25E-47 OHM +/-10%,POTENTIOMETER-SP5-1-1W-470 OHM,POT.PPB-15G-13-100 OHM +/-10%,POT. SP5-2V-1W-1.5 KOHM,POT. SP5-2V-1W-15 KOHM,L   156557.00 Single
653 OLF 1406040425 20/09/2014 2014-11-21 15:00 2014-11-21 15:00 TOGGLE SWITCH T-1,RESISTOR S5-5-2W-100 OHM,1%,RESISTOR S5-5-2W-160 OHM, 1%,T0GGLE SWITCH- TP1-2,SWITCH (MICRO),D-701,SWITCH (PUSH BUTTON),TYPE-KNPT,SWITCH (MICRO) ,MP-11,SWITCH TOGGLE, PIT-1-1,SW   24620.00 Single
654 OLF 1406040426 20/09/2014 2014-11-21 15:00 2014-11-21 15:00 CONNECTOR(PLUG), RSG7BTV,CONNECTOR(PLUG), RS19BTB,CONNECTOR(S)RS10TV WITH CASING,CONNECTOR(S)RS19TV WITH CASING,CONNECTOR(S)RS32TV WITH CASING,CONNECTOR(PLUG),RP15-32SHVV,PLUG,RSH AB-6,SOCKET,RSH AB-   39278.00 Single
655 OLF 1406040427 20/09/2014 2014-11-21 15:00 2014-11-21 15:00 CHIP-140UD1A,TRANSISTOR 2P103V,TRANSISTOR 2P303V,CHIP 123 UN1B,TRANSISTOR 2T-203G,CHIP(INTIGRTD CIRCUIT)122UN1B,TRANSISTOR 2T312B,TRANSISTOR 2T630B,TRANSISTOR 2T825A,TRANSISTOR MATRIX -1NT-251,TRANSIS   68407.00 Single
656 OLF 1406040429 20/09/2014 2014-11-17 15:00 2014-11-17 15:00 DIODE ZENER D818G,DIODE 2TS106A,DIODE D231A,DIODE D237A,DIODE 2D102A,DIODE 2D 103A,DIODE L.E.D.- AL307GM,DIODE ZENER 2S182A,DIODE ZENER 2S168V,DIODE D 223,PHOTO DIODE LFD-2(LFD-2A),ZENER DIODE 2S162A   74134.00 Single
657 OLF 1406040430 20/09/2014 2014-11-17 15:00 2014-11-17 15:00 CAPACITOR KM-6-A-N90-0.1 MKF,CAPACITOR KM-4B-M47-62 PF 10%,CAPACITOR KM-4A-M75-91 PF +-5%,CAPACITOR KM-6-A-N90-1.0 MKF,CAPACITOR K10-17-2A-N90-0.15MF,CAP.KM-4A-M47-120PF +/-10%,CAP KM-6B-M75-620 PF +/   88086.00 Single
658 OLF 1406040431 20/09/2014 2014-11-17 15:00 2014-11-17 15:00 RELAY RES-10,RS4.529.031-06,RELAY-REH-33,PF4.510.021-00-01,RELAY,RES-49(RS45694210501),RELAY-RPS-5(RS4-522-302),RELAY RES-10(RS4-529-031-03),RELAY RES-90,RELAY TKE-52PD1,RELAY TKE-54PD1,RELAY RES-47   77273.00 Single
659 OLF 1406040432 20/09/2014 2014-11-17 15:00 2014-11-17 15:00 MOTOR DPM 25-N1-01,MOTOR,D12-TF-2SERIES,MOTOR,DID-3TV   65371.00 Single
660 OLF 1410120428 20/09/2014 2014-10-17 15:00 2014-10-17 15:00 PHENYL FOR CLEANING TOILETS   0.00 Single
661 OFDR 2014000307 20/09/2014 2014-09-30 14:30 2014-09-30 15:00 1. FUZE 213 MK-5(M-3) FOR 81MM ILLG.   3.00 Single
662 AFK 20140495 19/09/2014 2014-10-14 14:00 2014-10-14 14:30 EJECTOR FOR 2ND & 3RD STATION   0.00 Single
663 AFK 20140496 19/09/2014 2014-10-14 14:00 2014-10-14 14:30 FEEDER PLATE   0.00 Single
664 AFK 20140497 19/09/2014 2014-10-14 14:00 2014-10-14 14:30 NAUTILUS MAKE PRESSURE SWITCH   0.00 Single
665 AFK 20140498 19/09/2014 2014-10-14 14:00 2014-10-14 14:30 ALUMINIUM SHEET   0.00 Single
666 AFK 20140499 19/09/2014 2014-10-14 14:00 2014-10-14 14:30 POLYTHENE PLASTIC STORAGE BINS   0.00 Single
667 AFK 20140500 19/09/2014 2014-10-14 14:00 2014-10-14 14:30 SWING CHECK VALVE OF CLASS 125, G.M. LUG SPRING TO SUIT FIRE HYDRAN, COMPLETE MACHANICAL SHAFT SEAL ETC.   0.00 Single
668 OEFC 20140353 19/09/2014 2014-09-19 13:30 2014-09-19 14:00 TRADE ASSISTANCE FOR NICKLE CHROME PLAT-ING OF BUCKLE BRASS HAVERSACK RIGHT   0.00 Single
669 OEFC 20140354 19/09/2014 2014-09-19 13:30 2014-09-19 14:00 HINGE WITH LINK COMPLETE ASSEMBLED   0.00 Single
670 OEFC 20140355 19/09/2014 2014-09-19 13:30 2014-09-19 14:00 CONTINUOUS STATIONERY SUITABLE TO PRINT 80 CHARACT, CONTINUOUS STATIONERY SUITABLE TO PRINT 80 CHARACT, ,   0.00 Single
671 OEFC 20140356 19/09/2014 2014-09-19 13:30 2014-09-19 14:00 THREAD GUIDE PT.NO. 810 0587-000 PAGE NO.31, FOLDER ASSLY,18 MM FOR BINDING MACHINE MAKE :-GOL, HOOK PT.NO. L 6100-0A, FOR BINDIN, ROTARY HOOK ASSLY PT.NO.81017910-000 FORS   0.00 Single
672 MSF 14TE210417 19/09/2014 2014-10-17 14:30 2014-10-17 14:30 M.S. BLACK PIPE MEDIUM QUALITY SCRE etc.   19316.00 Single
673 MSF 14TE210419 19/09/2014 2014-10-10 14:30 2014-10-10 14:30 COMPRESSED ARGON GAS 99.99% PURE etc.   28994.00 Single
674 MSF 14TE220418 19/09/2014 2014-10-24 14:30 2014-10-24 14:30 KIT FILTER, PT. NO.- 2901194400 KIT ELEMENT MOUNTING PT.2901146000 KIT AIR/OIL FILTER PT.2901109600 SPARES FOR COMPRESSORS MODEL- BTDJM AIR SUCTION FILTER etc.   Single
675 GSF 1400000919 19/09/2014 2014-09-23 00:00 2014-09-23 00:00 INSERT.TO DRG.NO.AK-630.101-23 IN FINISHED CONDITI,   0.00 Single
676 GSF 1400000920 19/09/2014 2014-09-23 00:00 2014-09-23 00:00 BELLEVILLE SPRING.DRG.NO.AK 630 120-4,   0.00 Single
677 GSF 1400000921 19/09/2014 2014-10-27 00:00 2014-10-27 00:00 WOODEN PACKING BOX NO. CO-374 B (760 X 610 X 63 MM,   0.00 Single
678 GSF 1400000922 19/09/2014 2014-09-23 00:00 2014-09-23 00:00 CLAMP.,   0.00 Single
679 GSF 1400000923 19/09/2014 2014-10-20 00:00 2014-10-20 00:00 POLYPROPYLINE CORRUGATED PACKING BOX,DRG.NO.CO-484,   0.00 Single
680 HEF ME14150006 19/09/2014 2014-10-14 00:00 2014-10-14 00:00 -AMC FOR XEROX MACHINES 8070112050   0.00 Single
681 OFA B4TE120438 19/09/2014 2014-10-10 14:30 2014-10-10 15:00 ,APPLE GREEN SYNTHETIC ENAMEL PAINT. etc.   0.00 Single
682 OFA B4TE120439 19/09/2014 2014-10-21 14:30 2014-10-21 15:00 ,STEEL EN24 110MM DIA X 3 MTRS LONG etc.   0.00 Single
683 OFA B4TE120440 19/09/2014 2014-10-21 14:30 2014-10-21 15:00 ,35 mm DIA.STEEL ROD OF CLASS En-24, etc.   0.00 Single
684 OFA B4TE220437 19/09/2014 2014-10-21 14:30 2014-10-21 15:00 ,PIGEON HOLE STEEL CUPBOARD-8 DOORS etc.   0.00 Single
685 OFK 14CST-0547 19/09/2014 2014-10-14 14:30 2014-10-14 13:00 LUBRICATING OIL DRAWLUBE 3201   0.00 Single
686 OFK 14CST-0548 19/09/2014 2014-10-14 14:30 2014-10-14 13:00 BORAX CRYSTAL PURE GR IS-1109-80   0.00 Single
687 OFK 14CST-0549 19/09/2014 2014-10-14 14:30 2014-10-14 13:00 FLUX RUSTODINE - 125   0.00 Single
688 OFK 14CST-0550 19/09/2014 2014-10-14 14:30 2014-10-14 13:00 BARYTES TYPE-2 : JSS-6810-51-1993   0.00 Single
689 OFK 14CST-0551 19/09/2014 2014-10-17 14:30 2014-10-17 13:00 GINTHOX AL990 WITHITSADDITIVE NO685   0.00 Single
690 OFK 14CST-0552 19/09/2014 2014-10-17 14:30 2014-10-17 13:00 MAGNESIUM POWDER GRADE III   0.00 Single
691 OFK 14CST-0553 19/09/2014 2014-10-17 14:30 2014-10-17 13:00 PAINT TURQUOISEBLUE ISC102 TO IS168   0.00 Single
692 OFK 14CST-0555 19/09/2014 2014-10-10 14:30 2014-10-10 13:00 PRINTED ENVELOP SE-6.,PRINTED ENVELOP SE-7. etc.   0.00 Single
693 OFK 14CST-0556 19/09/2014 2014-10-10 14:30 2014-10-10 13:00 HIRING OF TATA SUMO/BOLERO(NON AC)   0.00 Single
694 OFK 14CST-0557 19/09/2014 2014-10-10 14:30 2014-10-10 13:00 HIRING OF TATA INDICA (NON AC)   0.00 Single
695 OFK 14CST-0558 19/09/2014 2014-10-17 14:30 2014-10-17 13:00 PAINT R.M A/D ADMIRALITY GRAY   0.00 Single
696 SAF 3143000726 19/09/2014 2014-09-30 14:30 2014-09-30 15:00 COVER & PLATE BRAZING TO DS CA,   0.00 Single
697 SAF 3143000727 19/09/2014 2014-10-28 14:30 2014-10-28 15:00 STRIKER MECHANISM HOUSING MODI,   0.00 Single
698 SAF 3143000728 19/09/2014 2014-10-28 14:30 2014-10-28 15:00 RIVET, CARTRIDGE STOP,   0.00 Single
699 SAF 3143000729 19/09/2014 2014-09-30 14:30 2014-09-30 15:00 TOOL CLEANING GAS HOLE ASSY.(G,   0.00 Single
700 SAF 3143000730 19/09/2014 2014-10-10 14:30 2014-10-10 15:00 STOP LEG BIPOD.DS CAT NO- 5340,   0.00 Single
701 SAF 3143000732 19/09/2014 2014-10-10 14:30 2014-10-10 15:00 SPRING DOWEL SLEEVE HEAVY, DIA,   0.00 Single
702 SAF 3143000733 19/09/2014 2014-10-10 14:30 2014-10-10 15:00 PIN,CATCH,LEG,BIPOD,DS CAT NO,   0.00 Single
703 SAF 3143000734 19/09/2014 2014-10-10 14:30 2014-10-10 15:00 SPRING LEAF MONOPOD TO DS CAT,   0.00 Single
704 SAF 3143000735 19/09/2014 2014-09-30 14:30 2014-09-30 15:00 AMOGH 5.56MMX30MM CHEST FOR 10,   0.00 Single
705 OFBA 140436 19/09/2014 2014-10-16 14:30 2014-10-16 14:30 CONCRETE DRILLING M/C,ROTARY H   0.00 Single
706 OFBA 140437 19/09/2014 2014-10-21 14:30 2014-10-21 14:30 PANEL PIN NO 17 SIZE 3/4"   0.00 Single
707 OFBA 140438 19/09/2014 2014-10-28 14:30 2014-10-28 14:30 DSI MODEM,TYPE-I,FOR BROADBAND   0.00 Single
708 OFBA 140439 19/09/2014 2014-10-21 14:30 2014-10-21 14:30 GLASS SHEETS 24"X 18"   0.00 Single
709 OFBA 140440 19/09/2014 2014-10-16 14:30 2014-10-16 14:30 PUTTY GRAY   0.00 Single
710 OFBA 145077 19/09/2014 2014-10-14 14:30 2014-10-14 14:30 POLYELECTROLYTE(ANIONIC) DWPE   19200.00 Single
711 OCFC 2014LTE313 19/09/2014 2014-10-14 00:00 2014-10-14 00:00 ,PLUG SHRG20P4ESH8 ,PLUG FEMALE SHR32P10ESH1 ,PLUG FEMALE SSHR32P10ESH4 ,PLUG FEMALE SHR40P16ESH2   0.00 Single
712 OCFC 2014LTE314 19/09/2014 2014-10-14 00:00 2014-10-14 00:00 ,PLUG SHRG20P4ESH8 ,PLUG FEMALE SHR32P10ESH1 ,PLUG FEMALE SSHR32P10ESH4 ,PLUG FEMALE SHR40P16ESH2   0.00 Single
713 OCFC 2014LTE315 19/09/2014 2014-10-14 00:00 2014-10-14 00:00 ,PLUG SHRG20P4ESH8 ,PLUG FEMALE SHR32P10ESH1 ,PLUG FEMALE SSHR32P10ESH4 ,PLUG FEMALE SHR40P16ESH2   0.00 Single
714 OCFC 2014LTE316 19/09/2014 2014-10-16 00:00 2014-10-16 00:00 ,PLUG SHRG20P4ESH8 ,PLUG FEMALE SHR32P10ESH1 ,PLUG FEMALE SSHR32P10ESH4 ,PLUG FEMALE SHR40P16ESH2   0.00 Single
715 OFDC 140370M2LT 19/09/2014 2014-10-10 00:00 2014-10-10 14:30 3-3/4 DIGITS DATA HOLD REL. ROTARY SWITCH OFF-ON,TYPE:FF   0.00 Single
716 OFDC 140371M1LT 19/09/2014 2014-09-23 00:00 2014-09-23 14:30 STUD ASSY.DET-40 TO ARDE-2121   0.00 Single
717 OFDC 140372M4LT 19/09/2014 2014-10-14 00:00 2014-10-14 14:30 SANDER DISC 7"X 7/8"-G-60.   0.00 Single
718 HVF 0108926 19/09/2014 2014-09-26 12:00 2014-09-26 15:00 LOWER GROOVE ASSY , etc.   0.00 Single
719 HVF 0108929 19/09/2014 2014-10-16 12:00 2014-10-16 15:00 ASSEMBLY OF ERA BRACKET-3 FOR UPPER , etc.   0.00 Single
720 HVF 0108930 19/09/2014 2014-10-09 12:00 2014-10-09 15:00 RIGHT-HAND BRACKET ASSY , etc.   0.00 Single
721 HVF 0108931 19/09/2014 2014-10-16 12:00 2014-10-16 15:00 TUBE , etc.   0.00 Single
722 HVF 0108932 19/09/2014 2014-10-19 12:00 2014-10-19 15:00 ROD , etc.   0.00 Single
723 HVF 0211430 19/09/2014 2014-10-03 12:00 2014-10-03 15:00 RING PACKING , etc.   0.00 Single
724 HVF 0211431 19/09/2014 2014-10-03 12:00 2014-10-03 15:00 PACKING SECTOR , etc.   0.00 Single
725 HVF 0211432 19/09/2014 2014-10-03 12:00 2014-10-03 15:00 BOLT , etc.   0.00 Single
726 HVF 0413289 19/09/2014 2014-10-30 12:00 2014-10-30 15:00 RING , etc.   0.00 Single
727 HVF 0413291 19/09/2014 2014-10-11 12:00 2014-10-11 15:00 ASSY PIPE , etc.   0.00 Single
728 HVF 0413293 19/09/2014 2014-10-20 12:00 2014-10-20 15:00 BRACKET ASSY , etc.   0.00 Single
729 HVF 0413294 19/09/2014 2014-10-17 12:00 2014-10-17 15:00 ELECTRO PNEUMATIC VALVE , etc.   0.00 Single
730 OFAJ FS2140100 19/09/2014 2014-09-19 14:00 2014-09-19 15:00 'O' RING AS PER OFAJ DRG.FS-519 D   0.00 Single
731 OFAJ IS2140240 19/09/2014 2014-09-19 14:00 2014-09-19 15:00 HEXAGONAL HEAD BOLT AND NUT M8.   0.00 Single
732 OFAJ IS2140241 19/09/2014 2014-09-19 14:00 2014-09-19 15:00 ECO FRIENDLY AQUEOUS & ORGANIC TYPE   0.00 Single
733 OFT D685B52392 19/09/2014 2014-09-25 14:30 2014-09-25 15:00 GUARD TRIGGER I.C SK-4312*12.   0.00 Single
734 OFCH 201400352 19/09/2014 2014-10-13 14:00 2014-10-13 14:30 REPAIR POT HOLES SYSTEM   11340.00 Single
735 OFCH 201400355 19/09/2014 2014-10-16 14:00 2014-10-16 14:30 PAINT OLIVE GREEN MATT FINISH   16377.00 Single
736 FGK 340505 19/09/2014 2014-10-28 00:00 2014-10-28 00:00 TRANSPORTATION FGK TO PXE BALA,   0.00 Single
737 FGK 340506 19/09/2014 2014-10-14 00:00 2014-10-14 00:00 REAR TYRE WITH TUBE & FLAP SIZ,TYRE-13.6X 28 FOR TACTOR.,TUBELESS TYRE-235 X 70R-16 FOR,   0.00 Single
738 OFPM A404214 19/09/2014 2014-10-21 14:00 2014-10-21 15:00 MAINTENANCE OF LAWN, FLOWER BEDS   0.00 Single
739 OFPM B405714 19/09/2014 2015-02-10 14:00 2015-02-10 15:00 SWITCH (INTERIORS) 100A TPN SK95157. FN-125 TPN SWITCH FUSE UNIT HRC CYLINDRICAL FUSE LINKS. POWER CONTACTOR 32A 230V AC,TYPE ML2 POWER CONTACTOR,3POLE,TY,ML-6,110A,415V. ETC.   0.00 Single
740 OFPM C410814 19/09/2014 2014-10-21 14:00 2014-10-21 15:00 WHITE SPIRIT IS-84 1950   0.00 Single
741 OFPM C410914 19/09/2014 2014-10-28 14:00 2014-10-28 15:00 OLIVE GREEN PAINT RFU FINISHING   0.00 Single
742 OFPM D405214 19/09/2014 2014-12-09 14:00 2014-12-09 15:00 FACE SHIELD   0.00 Single
743 OFPM E404114 19/09/2014 2014-09-30 14:00 2014-09-30 15:00 TRANSPORTATION OF BMP/AMBULANCE VEHICLE   0.00 Single
744 OFPM E404214 19/09/2014 2014-09-30 14:00 2014-09-30 15:00 TRANSPORTATION-BMP-OFMK-HISSAR -15MT   0.00 Single
745 OFPM E404314 19/09/2014 2014-09-30 14:00 2014-09-30 15:00 TRANSPORTATION-BMP-YDM-NABHA, PATIYALA   0.00 Single
746 OFPM E404414 19/09/2014 2014-09-30 14:00 2014-09-30 15:00 TRANSPORTATION OF BMP FROM OFMK-PATHANKO   0.00 Single
747 OFPM E404514 19/09/2014 2014-09-30 14:00 2014-09-30 15:00 TRANS-8 MT -OFMK-HVF& EF AVADI   0.00 Single
748 OFPM E404614 19/09/2014 2014-09-30 14:00 2014-09-30 15:00 TRANS-8 MT-OFMK-CAFVD KIRKEE,PUNE   0.00 Single
749 OFPM E404714 19/09/2014 2014-10-14 14:00 2014-10-14 15:00 TRANSPORTATION OF IMPORT STORES   0.00 Single
750 OFPM E404814 19/09/2014 2014-09-30 14:00 2014-09-30 15:00 TRANS-16 MT-OFMK-HVF &EFA AVADI   0.00 Single
751 OFPM E404914 19/09/2014 2014-10-14 14:00 2014-10-14 15:00 TRANSPORTATION OF IMPORT STORES   0.00 Single
752 OFPM E405014 19/09/2014 2014-10-14 14:00 2014-10-14 15:00 TRANSPORTATION MATERIAL TO OLF DEHRADUN   0.00 Single
753 OFPM E405114 19/09/2014 2014-10-14 14:00 2014-10-14 15:00 TRANSPORTATION OF STORES   0.00 Single
754 OFPM E405214 19/09/2014 2014-09-30 14:00 2014-09-30 15:00 TRANSPORTATION OF MATERIAL TO MTPF   0.00 Single
755 OFPM E405314 19/09/2014 2014-10-14 14:00 2014-10-14 15:00 TRANSPORTATION FROM OFMK TO TRICHY 3MT   0.00 Single
756 OFPM E405414 19/09/2014 2014-10-14 14:00 2014-10-14 15:00 TRANSPORTATION OF MATERIAL   0.00 Single
757 OFPM E405514 19/09/2014 2014-10-14 14:00 2014-10-14 15:00 TRANSPORTATION FROM OFMK TO BEML 6MT   0.00 Single
758 OFPM E405614 19/09/2014 2014-09-30 14:00 2014-09-30 15:00 TRANS-16 MT-OFMK-CAFVD KIRKEE   0.00 Single
759 OFPM H426614 19/09/2014 2014-10-03 14:00 2014-10-03 15:00 FILTER SECTION 675-05-CD155   0.00 Single
760 OFPM M401214 19/09/2014 2015-03-10 14:00 2015-03-10 15:00 BYSTRONIC PART:0-14651 CUTTING HEAD   0.00 Single
761 OFPM S410614 19/09/2014 2014-10-21 14:00 2014-10-21 15:00 INSULATING NUT PART.NO.0110913101   0.00 Single
762 OFPM S410714 19/09/2014 2014-10-21 14:00 2014-10-21 15:00 PLASTIC FLEXIBLE COOLANT PIPE SET OF 2 TYPES OF COOLANT PIPES   0.00 Single
763 OFPM S410814 19/09/2014 2014-10-21 14:00 2014-10-21 15:00 ECHO 600CC/CV TORCH SPARE CONTACT TIP   0.00 Single
764 OFPM S410914 19/09/2014 2014-10-21 14:00 2014-10-21 15:00 ELECTROMAGNETIC STATIONARY   0.00 Single
765 OFPM T415914 19/09/2014 2014-11-25 14:00 2014-11-25 15:00 MANUAL VERTICAL BAND SAW   0.00 Single
766 OFPM T416114 19/09/2014 2014-10-14 14:00 2014-10-14 15:00 SPECIAL HELICAL MILLING CUTTER DIA:63MM   0.00 Single
767 OFPM T416214 19/09/2014 2014-10-21 14:00 2014-10-21 15:00 SIDE&FACE MILLING CUTTER DIA 160X40X10MM   0.00 Single
768 EFA 14410013 19/09/2014 2014-09-30 00:00 2014-09-30 00:00 BLOCK   0.00 Single
769 EFA 14500132 19/09/2014 2014-10-07 00:00 2014-10-07 00:00 RESIN BONDED CBN WHEEL FOR   0.00 Single
770 EFA 14500133 19/09/2014 2014-10-07 00:00 2014-10-07 00:00 INSERT FOR TURNING / DRILLING; INSERT FOR TURNING; INSERT FOR TURNING / DRILLING;   0.00 Single
771 EFA 14500134 19/09/2014 2014-10-07 00:00 2014-10-07 00:00 BRAZED END MILL,PARALLEL SHANK   0.00 Single
772 OLF 1406010402 19/09/2014 2014-10-17 15:00 2014-10-17 15:00 WIRE-MGSHV-0.35 SQMM   21000.00 Single
773 OLF 1406010403 19/09/2014 2014-10-17 15:00 2014-10-17 15:00 THERMISTOR KMT-17V-10 KOHM,THERMISTOR,TOC-MD-5.75K +-0.7K,THERMISTOR,TOC-D   12098.00 Single
774 OLF 1406010404 19/09/2014 2014-10-07 10:00 2014-10-07 10:00 COMPLETE M/C OF COVER DC/198,MACHINING OF CARRIAGE IC/64M3,MACHINING OF GUIDE IC/225,MACHINING OF BODY DC/38,MACHINING OF BODY WITH FITTING   63858.00 Single
775 OLF 1406010405 19/09/2014 2014-10-07 10:00 2014-10-07 10:00 COMPLETE M/C OF LOOP DC/119,COMPLETE M/C OF CASING DC/027,MACHINING OF HOLDER IC/144M2,MACHINING OF BODY IC/202,MACHINING OF HOLDER IC/223,COMPLETE M/C OF IC/409   70934.00 Single
776 OLF 1406010406 19/09/2014 2014-10-07 10:00 2014-10-07 10:00 MACHINING OF BRACKET IC/062M1,MACHINIG OF BRACKET IC/78M1,COMPLETE M/C OF BODY DC/402,COMPLETE M/C OF CLAMP IC/304,MACHINING OF BODY,MACHINING OF HOLDER(IC/305)   44682.00 Single
777 OLF 1406010407 19/09/2014 2014-10-07 10:00 2014-10-07 10:00 BUSH,GUIDE,RING,RING,STAND,CAP,PLUG,ROLLER   75313.00 Single
778 OLF 1406010408 19/09/2014 2014-10-07 10:00 2014-10-07 10:00 COMPLETE MACHINING OF BODY   194250.00 Single
779 OLF 1406010409 19/09/2014 2014-10-07 10:00 2014-10-07 10:00 SCREW,SCREW M4-6G,RING,RING,RING   45329.00 Single
780 OLF 1406010410 19/09/2014 2014-10-06 10:00 2014-10-06 10:00 RING,RING,RING,RING,GLAND,SUPPORT,SCREW,THREADED RING   50623.00 Single
781 OLF 1406010411 19/09/2014 2014-10-09 10:00 2014-10-09 10:00 BEARING 016   27192.00 Single
782 OLF 1406010412 19/09/2014 2014-10-09 10:00 2014-10-09 10:00 RING,SCREW,FRAME WITH WINDING   48833.00 Single
783 OLF 1406010413 19/09/2014 2014-10-09 10:00 2014-10-09 10:00 FLANGE,HOUSING   63528.00 Single
784 OLF 1406010414 19/09/2014 2014-10-09 10:00 2014-10-09 10:00 AXILE,CLAMP,NUT,NUT,H.ASSY,MOUNT,MOUNT   41623.00 Single
785 OLF 1406010415 19/09/2014 2014-10-09 10:00 2014-10-09 10:00 SCREW,HOLDER,HOLDER,SCREW,SCREW,SCREW,SLEEVE   63501.00 Single
786 OLF 1406010416 19/09/2014 2014-10-09 10:00 2014-10-09 10:00 COVER,STOP,PILLAR,AXLE,BUSH,CASING,FLANGE   48819.00 Single
787 OLF 1406010417 19/09/2014 2014-10-09 10:00 2014-10-09 10:00 BRACKET,HOLDER,GASKET,BUSHING,QUADRANT   65136.00 Single
788 OLF 1406010418 19/09/2014 2014-10-10 10:00 2014-10-10 10:00 SCREW,HOLDER,HOLDER,HOLDER,RING,SCREW,SCREW,SCREW   61574.00 Single
789 OLF 1406010419 19/09/2014 2014-10-10 10:00 2014-10-10 10:00 GEAR,GEAR,GEAR,GEAR,GEAR,GEAR,WORM WHEEL,WORM WHEEL   51748.00 Single
790 OLF 1406010420 19/09/2014 2014-10-10 10:00 2014-10-10 10:00 BUSH,BUSH,COVER,COVER,CARDAN RING,GEAR   51857.00 Single
791 OLF 1406010421 19/09/2014 2014-10-10 10:00 2014-10-10 10:00 BODY,BODY,BODY,CAP,COVER,COVER,CARDAN HEAD   143752.00 Single
792 OLF 1406010422 19/09/2014 2014-10-10 10:00 2014-10-10 10:00 COVER FINISHED,PIN,CAM,LOCK PIN,FRAME,HOLDER,COVER,COVER,AXLE,CAM   40917.00 Single
793 OFBOL 14150221 19/09/2014 2014-11-14 14:30 2014-11-14 14:30 TRANSFORMER OIL TO IS:335-1993   8770.00 Single
794 OFBOL 20151605A5 19/09/2014 2016-03-14 14:30 2016-03-14 14:30 AMMUNITION CONTAINER BOX C 53-A   0.00 Single
795 AFK 20140491 18/09/2014 2014-10-10 14:00 2014-10-10 14:30 BODY TO DRG.ARDE 2078/30 DT.27/8/87   0.00 Single
796 AFK 20140492 18/09/2014 2014-10-10 14:00 2014-10-10 14:30 PARACHUTE RELEASER AFK/SK-2117   0.00 Single
797 AFK 20140493 18/09/2014 2014-10-10 14:00 2014-10-10 14:30 SQUIBS TO DRG NO.ERDL 1004 DET NO.1   0.00 Single
798 AFK 20140494 18/09/2014 2014-10-10 14:00 2014-10-10 14:30 STICKER LABEL IA 984   4080.00 Single
799 CFA 14PVTE0236 18/09/2014 2014-09-19 13:00 2014-09-19 14:00 XEROX DIGITAL PRINTER/COPIER/.   0.00 Single
800 GSF 1400000917 18/09/2014 2014-10-16 00:00 2014-10-16 00:00 SUPPLY OF SURGICAL ITEMS FOR GSF HOSPITAL(LP BASIS,   0.00 Single
801 GSF 1400000918 18/09/2014 2014-10-16 00:00 2014-10-16 00:00 ANN.MAINT/SERV.& CALIBRATION OF TENSILE TEST M/C., A.M.C. FOR HARDNESS TESTING MACHINES,   0.00 Single
802 OCFS 2014000244 18/09/2014 2014-09-26 14:30 2014-09-26 15:00 PL.BUTTON REV.19MM IN MATCH.PRT.PAT   0.00 Single
803 OFA B4TE120432 18/09/2014 2014-10-14 14:30 2014-10-14 15:00 ,REFRIGERANT GAS, R-22. etc.   0.00 Single
804 OFA B4TE120433 18/09/2014 2014-10-17 14:30 2014-10-17 15:00 ,4FT 40WATTS FLUROSCENT STREET LIGHT etc.   0.00 Single
805 OFA B4TE120434 18/09/2014 2014-10-17 14:30 2014-10-17 15:00 ,CYL.FUSE LINK, 4 AMPS,L 500 VAC etc.   0.00 Single
806 OFA B4TE120435 18/09/2014 2014-10-17 14:30 2014-10-17 15:00 ,PID TEMP CONTROLLER TTM-J4-R-AB etc.   0.00 Single
807 OFKAT 2014000220 18/09/2014 2014-09-18 14:30 2014-09-18 14:30 HIRING OF CONTRACT LABOUR.   0.00 Single
808 OFK 14CST-0543 18/09/2014 2014-10-10 14:30 2014-10-10 13:00 STRIKER LEVER DRG PT NO ITW-67   0.00 Single
809 SAF 3143000724 18/09/2014 2014-10-28 14:30 2014-10-28 15:00 ST BLANK OF RECEIVER PLATE LEF,   0.00 Single
810 OCFAV 221/14-15 18/09/2014 2014-09-19 14:30 2014-09-19 14:30 TRANSPORTATIO   7650.00 Single
811 OFBA 140433 18/09/2014 2014-10-16 14:30 2014-10-16 14:30 RECHARGING OF EMPTY CO2 GAS   0.00 Single
812 OFBA 140434 18/09/2014 2014-10-16 14:30 2014-10-16 14:30 S.S. ELECTRODE SIZE 2.5 MM   0.00 Single
813 OFBA 140435 18/09/2014 2014-10-28 14:30 2014-10-28 14:30 PNEUMATIC CONNECTORS SS 304   0.00 Single
814 OFBA 145076 18/09/2014 2014-10-07 14:30 2014-10-07 14:30 ROAD TRANSPORT OF AMMONIA   0.00 Single
815 OCFC 2014LTE311 18/09/2014 2014-10-09 00:00 2014-10-09 00:00 ,PLUG SHRG20P4ESH8 ,PLUG FEMALE SHR32P10ESH1 ,PLUG FEMALE SSHR32P10ESH4 ,PLUG FEMALE SHR40P16ESH2   0.00 Single
816 OCFC 2014LTE312 18/09/2014 2014-10-09 00:00 2014-10-09 00:00 ,PLUG SHRG20P4ESH8 ,PLUG FEMALE SHR32P10ESH1 ,PLUG FEMALE SSHR32P10ESH4 ,PLUG FEMALE SHR40P16ESH2   0.00 Single
817 OFDC 140364M2LT 18/09/2014 2014-10-10 00:00 2014-10-10 14:30 ELECTRONIC CONTROL SYSTEM   0.00 Single
818 OFDC 140365M2LT 18/09/2014 2014-10-10 00:00 2014-10-10 14:30 CHARGING OF NITROGEN GAS   0.00 Single
819 HVF 0211428 18/09/2014 2014-10-08 12:00 2014-10-08 15:00 OIL SEAL , etc.   0.00 Single
820 HVF 0211429 18/09/2014 2014-10-04 12:00 2014-10-04 15:00 SHIM , etc.   0.00 Single
821 HVF 0413279 18/09/2014 2014-10-15 12:00 2014-10-15 15:00 GASKET , etc.   0.00 Single
822 HVF 0413280 18/09/2014 2014-10-15 12:00 2014-10-15 15:00 CAP (GREEN) , etc.   0.00 Single
823 HVF 0413281 18/09/2014 2014-10-15 12:00 2014-10-15 15:00 LAMP (CM 28-2.8) , etc.   0.00 Single
824 HVF 0413282 18/09/2014 2014-10-11 12:00 2014-10-11 15:00 COMPENSATOR , etc.   0.00 Single
825 HVF 0413283 18/09/2014 2014-10-11 12:00 2014-10-11 15:00 RING PACKING , etc.   0.00 Single
826 HVF 0413284 18/09/2014 2014-10-11 12:00 2014-10-11 15:00 PACKING RING , etc.   0.00 Single
827 HVF 0413285 18/09/2014 2014-10-11 12:00 2014-10-11 15:00 COLLAR , etc.   0.00 Single
828 HVF 0413286 18/09/2014 2014-10-10 12:00 2014-10-10 15:00 PLUG , etc.   0.00 Single
829 HVF 0413288 18/09/2014 2014-10-13 12:00 2014-10-13 15:00 CLAMP ASSY. , etc.   0.00 Single
830 HVF 0900994 18/09/2014 2014-10-23 12:00 2014-10-23 15:00 HOSE CLAMP, PRESSURE LINE , etc.   0.00 Single
831 OFAJ FS2140099 18/09/2014 2014-10-20 14:00 2014-10-20 15:00 AL.ALLOY ROD 26 MM DIA, ALUMINIUM ALLOY ROD 14.5 MM DIA, ALUMINIUM ALLOY ROD 21 MM DIA   0.00 Single
832 OFAJ RS2140259 18/09/2014 2014-10-21 14:00 2014-10-21 15:00 PORTABLE INVERTER TYPE WELDING UNIT   0.00 Single
833 OFAJ TS2140127 18/09/2014 2014-09-18 14:00 2014-09-18 15:00 BIMETALIC BAND SAW BLADE 34X1.1X3/4   0.00 Single
834 OFT D050L52391 18/09/2014 2014-10-09 14:30 2014-10-09 15:00 HIRING OF TATA SUMO   0.00 Single
835 OFT D685B52390 18/09/2014 2014-09-25 14:30 2014-09-25 15:00 GUARD TRIGGER I.C SK-4312*12.   0.00 Single
836 OFCH 201400351 18/09/2014 2014-10-27 14:00 2014-10-27 14:30 OIL CUTTING SOLUBLE IS : 1115- OIL QUENCHING,SERVOQUENCH C-11   0.00 Single
837 FGK 340501 18/09/2014 2014-12-09 00:00 2014-12-09 00:00 SOLID CARBIDE END MILL CUTTER,   0.00 Single
838 FGK 340502 18/09/2014 2014-12-04 00:00 2014-12-04 00:00 BORING BAR S0812 JSWUB R-06 IS,   0.00 Single
839 FGK 340503 18/09/2014 2014-12-04 00:00 2014-12-04 00:00 SOLID CARBIDE END MILL CUTTER,   0.00 Single
840 FGK 340504 18/09/2014 2014-10-14 00:00 2014-10-14 00:00 RAW MATERIAL OF BARREL ST. ROD,   0.00 Single
841 OFPM B405614 18/09/2014 2015-02-10 14:00 2015-02-10 15:00 DOL STARTER IN S.S HOUSING WITH SPP BIRE SICOP BIMETAL OVERLOAD RELAY RANGE:1-1.6 AIR BREAK CONTACTOR 3TA67 01-OA,110 V. CONTACTOR 3TA67 01-OA,220 V.   0.00 Single
842 OFPM K403514 18/09/2014 2014-12-26 14:00 2014-12-26 15:00 HOSE 765-93-SB-263   0.00 Single
843 OFPM S410514 18/09/2014 2014-10-14 14:00 2014-10-14 15:00 TIMER,TYPE:AIDI-X,TIMER RANGE:0-30SEC.   0.00 Single
844 EFA 14100580 18/09/2014 2014-10-24 00:00 2014-10-24 00:00 FILTER FASTENING BELT ASSY.   0.00 Single
845 EFA 14100581 18/09/2014 2014-10-24 00:00 2014-10-24 00:00 SHIELD; COVER;   0.00 Single
846 EFA 14100582 18/09/2014 2014-10-24 00:00 2014-10-24 00:00 SPACE RING (2.8 MM)   0.00 Single
847 EFA 14100583 18/09/2014 2014-10-24 00:00 2014-10-24 00:00 FUEL PUMP OIL SUPPLY PIPE ASSY.   0.00 Single
848 EFA 14100584 18/09/2014 2014-10-24 00:00 2014-10-24 00:00 GASKET; GASKET;   0.00 Single
849 EFA 14100585 18/09/2014 2014-10-24 00:00 2014-10-24 00:00 LOCK WASHER   0.00 Single
850 EFA 14100586 18/09/2014 2014-10-24 00:00 2014-10-24 00:00 ASSY SLVEEVE   0.00 Single
851 EFA 14100587 18/09/2014 2014-10-24 00:00 2014-10-24 00:00 HOUSING COVER   0.00 Single
852 EFA 14100588 18/09/2014 2014-10-24 00:00 2014-10-24 00:00 RING   0.00 Single
853 EFA 14100589 18/09/2014 2014-10-28 00:00 2014-10-28 00:00 LOCKING RING; RING;   0.00 Single
854 EFA 14100590 18/09/2014 2014-10-28 00:00 2014-10-28 00:00 NUT(M10-5H6Hx)   0.00 Single
855 EFA 14100591 18/09/2014 2014-10-28 00:00 2014-10-28 00:00 NUT (M18 X 1.5 5H6H)   0.00 Single
856 EFA 14100592 18/09/2014 2014-10-28 00:00 2014-10-28 00:00 WASHER 12   0.00 Single
857 EFA 14100593 18/09/2014 2014-10-28 00:00 2014-10-28 00:00 PLUG   0.00 Single
858 EFA 14100594 18/09/2014 2014-10-28 00:00 2014-10-28 00:00 SEALING RING   0.00 Single
859 EFA 14100595 18/09/2014 2014-10-28 00:00 2014-10-28 00:00 GASKET   0.00 Single
860 EFA 14100596 18/09/2014 2014-10-28 00:00 2014-10-28 00:00 WASHER; NON-RETURN VALVE BODY;   0.00 Single
861 EFA 14100597 18/09/2014 2014-10-28 00:00 2014-10-28 00:00 RING   0.00 Single
862 EFA 14100598 18/09/2014 2014-10-28 00:00 2014-10-28 00:00 SELF LOCKING NUT   0.00 Single
863 EFA 14100599 18/09/2014 2014-10-28 00:00 2014-10-28 00:00 LOCK WASHER   0.00 Single
864 EFA 14100600 18/09/2014 2014-10-28 00:00 2014-10-28 00:00 BOLT; NUT M12x1;   0.00 Single
865 EFA 14100601 18/09/2014 2014-10-28 00:00 2014-10-28 00:00 OIL BY-PASS PIPE   0.00 Single
866 EFA 14100602 18/09/2014 2014-10-28 00:00 2014-10-28 00:00 CUP   0.00 Single
867 EFA 14100603 18/09/2014 2014-10-28 00:00 2014-10-28 00:00 CAP   0.00 Single
868 EFA 14100604 18/09/2014 2014-10-28 00:00 2014-10-28 00:00 SEALING RING   0.00 Single
869 EFA 14100605 18/09/2014 2014-10-28 00:00 2014-10-28 00:00 ADJUSTING RING   0.00 Single
870 EFA 14100606 18/09/2014 2014-10-28 00:00 2014-10-28 00:00 GASKET   0.00 Single
871 EFA 14100607 18/09/2014 2014-10-28 00:00 2014-10-28 00:00 SUSPENSION CLAMP   0.00 Single
872 EFA 14100608 18/09/2014 2014-10-28 00:00 2014-10-28 00:00 RING   0.00 Single
873 EFA 14500128 18/09/2014 2014-10-07 00:00 2014-10-07 00:00 DEVICE FOR DET. OF TOP DEAD CENTRE   0.00 Single
874 EFA 14500129 18/09/2014 2014-10-07 00:00 2014-10-07 00:00 PILOTED END COUNTERBORE CUTTER; PILOTED END COUNTERBORE CUTTER;   0.00 Single
875 EFA 14500130 18/09/2014 2014-10-07 00:00 2014-10-07 00:00 INTERNAL THREADING INSERT; THREADING INSERT;   0.00 Single
876 EFA 14500131 18/09/2014 2014-10-07 00:00 2014-10-07 00:00 SPHERICAL END CORE DRILL   0.00 Single
877 EFA 14760003 18/09/2014 2014-09-30 00:00 2014-09-30 00:00 TRANSPORT CONTRACT FOR SHIFTING   0.00 Single
878 OLF 1406010392 18/09/2014 2014-10-06 15:00 2014-10-06 15:00 CARRIAGE,HOLDER,PACKING RING,RING,SCALE,BUSH,BUSH   46788.00 Single
879 OLF 1406010394 18/09/2014 2014-10-06 10:00 2014-10-06 10:00 ECCENTRIC,AXLE,AXLE,ROLLER   58491.00 Single
880 OLF 1406010395 18/09/2014 2014-10-06 10:00 2014-10-06 10:00 GUIDE,GEAR,GEAR WHEEL,HOLDER,PLUG   53050.00 Single
881 OLF 1406010396 18/09/2014 2014-10-06 10:00 2014-10-06 10:00 AXLE,BODY,BODY,BRACKET,COVER,GUIDE,GUIDE   130222.00 Single
882 OLF 1406010397 18/09/2014 2014-10-06 10:00 2014-10-06 10:00 SLEEVE,BUSH,FLANGE,HOLDER   55582.00 Single
883 OLF 1406010398 18/09/2014 2014-10-06 10:00 2014-10-06 10:00 AXLE,MOUNT,ECCENTRIC,SCREW,COVER,SPRING   43385.00 Single
884 OLF 1406010399 18/09/2014 2014-10-06 10:00 2014-10-06 10:00 RING,TITANIUM,ANGLE PIECE,SHAFT,ROD .,SLEEVE,ROD   40773.00 Single
885 OLF 1406010400 18/09/2014 2014-10-06 15:00 2014-10-06 15:00 RING,YOKE,GEAR,GEAR,RING,RING,WASHER   46694.00 Single
886 OFDR 2014000305 18/09/2014 2014-09-30 14:30 2014-09-30 15:00 1. GUN POWDER G-7 TO SPECN.NO.JSS-1376   3.00 Single
887 OFDR 2014000306 18/09/2014 2014-10-21 14:30 2014-10-21 15:00 1. CALIBRATION OF LOAD CELLS   3.00 Single
888 AFK 20140482 17/09/2014 2014-10-10 14:00 2014-10-10 14:30 SUPPLY & INSTALLATION CCTV CAMERA   0.00 Single
889 AFK 20140483 17/09/2014 2014-10-10 14:00 2014-10-10 14:30 ORION-757 EMULSIFIABLE MACHINE   12900.00 Single
890 AFK 20140485 17/09/2014 2014-10-10 14:00 2014-10-10 14:30 POTASSIUM BICHROMATE TECH GR.IS-250   0.00 Single
891 AFK 20140486 17/09/2014 2014-10-10 14:00 2014-10-10 14:30 NYLON SEMENT FOR CASE FEEDG HOPPER   7600.00 Single
892 AFK 20140488 17/09/2014 2014-10-10 14:00 2014-10-10 14:30 HIGH SPEED STEEL SQUARE   0.00 Single
893 AFK 20140489 17/09/2014 2014-10-10 14:00 2014-10-10 14:30 FOUR CHANNEL COMPLETE INTERFACEUNIT   6500.00 Single
894 AFK 20140490 17/09/2014 2014-10-10 14:00 2014-10-10 14:30 TERRICOT CLOTH UNIFORM   8050.00 Single
895 OEFC 20140349 17/09/2014 2014-09-17 13:30 2014-09-17 14:00 TRANSPORTATION OF STORES FROM OEF KANPUR TO O.F.KHAMARIA/VEH. FY.JABALPUR/GCF/GIFJABALPUR/COD JABALPUR CAP. OF TRUCK 15 MT (22'LONG)   0.00 Single
896 OEFC 20140350 17/09/2014 2014-09-17 13:30 2014-09-17 14:00 FABRIC WATER PROOF RUBBERISED WHITE 91CM   0.00 Single
897 OEFC 20140351 17/09/2014 2014-09-17 13:30 2014-09-17 14:00 PLASTIC SLIDE FASTENER LIGHT SPL. DUTY AUTO LOCK 20 CMS LONG KHAKI   0.00 Single
898 CFA 14PVTE0232 17/09/2014 2014-10-08 13:00 2014-10-08 14:00 TYRE FOR TATA 407 BS III FRONT   0.00 Single
899 CFA 14PVTE0233 17/09/2014 2014-10-08 13:00 2014-10-08 14:00 TYRE FOR TATA ACE HT   0.00 Single
900 CFA 14PVTE0234 17/09/2014 2014-10-08 13:00 2014-10-08 14:00 TYRE FOR TATA 1613 TURBO 1613   12120.00 Single
901 CFA 14PVTE0235 17/09/2014 2014-10-10 13:00 2014-10-10 14:00 TYRE FOR TATA ACE HTTYRE FOR TATA 407 BS III REAR   0.00 Single
902 OCFS 2014000239 17/09/2014 2014-09-17 14:30 2014-09-17 15:00 BEARING 6309 RUBBER SEAL (2RSI/3)   0.00 Single
903 OCFS 2014000240 17/09/2014 2014-09-17 14:30 2014-09-17 15:00 B.BEARING SKF-6201 2Z 12X32X10 MM   0.00 Single
904 OCFS 2014000241 17/09/2014 2014-09-17 14:30 2014-09-17 15:00 BALL BEARING S/R SKF 6203 2Z (ZZ)   0.00 Single
905 OCFS 2014000242 17/09/2014 2014-09-17 14:30 2014-09-17 15:00 ELECTRONIC BALLAST 40 W   0.00 Single
906 OCFS 2014000245 17/09/2014 2014-09-17 14:30 2014-09-17 15:00 POLYPROPYLENE STRAP 19MM(0.55MMTHIC   0.00 Single
907 OPF 110140351 17/09/2014 2014-09-25 14:00 2014-09-25 14:30 (1) FABRICATION OF SHIRT PV DD LB   0.00 Single
908 OFA B4TE220430 17/09/2014 2014-10-14 14:30 2014-10-14 15:00 ,LED STREET LIGHT FITTING 45W etc.   0.00 Single
909 OFA B4TE220431 17/09/2014 2014-10-14 14:30 2014-10-14 15:00 ,ENERGY CONSERVATION UNIT FOR LIGHTS etc.   0.00 Single
910 OCFC 2014LTE307 17/09/2014 2014-10-14 00:00 2014-10-14 00:00 ,PLUG SHRG20P4ESH8 ,PLUG FEMALE SHR32P10ESH1 ,PLUG FEMALE SSHR32P10ESH4 ,PLUG FEMALE SHR40P16ESH2   0.00 Single
911 OCFC 2014LTE308 17/09/2014 2014-10-16 00:00 2014-10-16 00:00 ,PLUG SHRG20P4ESH8 ,PLUG FEMALE SHR32P10ESH1 ,PLUG FEMALE SSHR32P10ESH4 ,PLUG FEMALE SHR40P16ESH2   0.00 Single
912 OCFC 2014LTE309 17/09/2014 2014-10-14 00:00 2014-10-14 00:00 ,PLUG SHRG20P4ESH8 ,PLUG FEMALE SHR32P10ESH1 ,PLUG FEMALE SSHR32P10ESH4 ,PLUG FEMALE SHR40P16ESH2   13100.00 Single
913 OCFC 2014LTE310 17/09/2014 2014-09-23 00:00 2014-09-23 00:00 ,PLUG SHRG20P4ESH8 ,PLUG FEMALE SHR32P10ESH1 ,PLUG FEMALE SSHR32P10ESH4 ,PLUG FEMALE SHR40P16ESH2   0.00 Single
914 HVF 0211427 17/09/2014 2014-10-07 12:00 2014-10-07 15:00 COLLAR , etc.   0.00 Single
915 HVF 0413272 17/09/2014 2014-10-08 12:00 2014-10-08 15:00 SHIELD , etc.   0.00 Single
916 HVF 0413273 17/09/2014 2014-10-08 12:00 2014-10-08 15:00 WASHER , etc.   0.00 Single
917 HVF 0413274 17/09/2014 2014-10-08 12:00 2014-10-08 15:00 SUB ASSY PIPE , etc.   0.00 Single
918 HVF 0413275 17/09/2014 2014-10-08 12:00 2014-10-08 15:00 CLAMP , etc.   0.00 Single
919 HVF 0413276 17/09/2014 2014-10-11 12:00 2014-10-11 15:00 BOTTOM , etc.   0.00 Single
920 HVF 0511389 17/09/2014 2014-09-29 12:00 2014-09-29 15:00 ELECTRODE HOLDER 600 AMPS , etc.   0.00 Single
921 OFV 20140247 17/09/2014 2014-10-21 14:30 2014-10-21 15:00 FLOW MONITOR TYPE:-S2-GL20,FLOW MONITOR TYPE:-S2-GL15,   243600.00 Single
922 OFV 20140248 17/09/2014 2014-10-24 14:30 2014-10-24 15:00 COTTON DRILL GLOVES "BLUE" TYPE 15,   543250.00 Single
923 OFV 20140249 17/09/2014 2014-10-24 14:30 2014-10-24 15:00 VALVE SOLENOID 1/4" N.C.,VALVE SOLENOID 1/4" NO TYPE,   46858.56 Single
924 OFV 20140250 17/09/2014 2014-10-24 14:30 2014-10-24 15:00 SERVO WAY 220,   199626.00 Single
925 OFV 20140251 17/09/2014 2014-10-24 14:30 2014-10-24 15:00 KEYLESS PRECISION DRILL CHUCK OF,   43600.00 Single
926 OFV 20140252 17/09/2014 2014-10-24 14:30 2014-10-24 15:00 PLASTIC TUBING PLN-16 X 2-NT,   36584.00 Single
927 OFV 20140253 17/09/2014 2014-10-28 14:30 2014-10-28 15:00 BORIC ACID GRADE-II,   43575.00 Single
928 OFV 20140254 17/09/2014 2014-10-28 14:30 2014-10-28 15:00 KHAKI UNIFORM FOR CMD,   41610.00 Single
929 OFV 20140255 17/09/2014 2014-10-28 14:30 2014-10-28 15:00 CLUTCH BRAKE COMBINATION UNIT,   443100.00 Single
930 OFV 20140256 17/09/2014 2014-10-28 14:30 2014-10-28 15:00 MANUAL DIAPHRAGM VALVE-WEIR TYPE,   44992.08 Single
931 OFV 20140257 17/09/2014 2014-10-28 14:30 2014-10-28 15:00 SHELVING UNIT ASU-23 ALKON OR,   179744.60 Single
932 OFV 20140258 17/09/2014 2014-11-04 14:30 2014-11-04 15:00 MOTOR PUMP ASSEMBLY,   45000.00 Single
933 OFV 20140259 17/09/2014 2014-11-04 14:30 2014-11-04 15:00 PVC WATER STORAGE TANK CYLINDRICAL,   495000.00 Single
934 OFV 20140260 17/09/2014 2014-11-04 14:30 2014-11-04 15:00 LINING,   291801.60 Single
935 OFV 20140261 17/09/2014 2014-11-04 14:30 2014-11-04 15:00 HYD. PRESSURE GAUGE,   25950.00 Single
936 OFV 20140262 17/09/2014 2014-11-04 14:30 2014-11-04 15:00 KNEE BRACKET,   21585.92 Single
937 OFV 20140263 17/09/2014 2014-11-07 14:30 2014-11-07 15:00 GUIDE SUPPORT SEGMENT,L.H.CLUTCH,DRG.NO.-V/C/SP/P3/0023-A,FINGER CAM HOUSING,   177622.50 Single
938 OFV 20140264 17/09/2014 2014-11-07 14:30 2014-11-07 15:00 STRIPPER,   22880.00 Single
939 OFV 20140265 17/09/2014 2014-10-17 14:30 2014-10-17 15:00 DOOR CLOSER HEAVY DUTY,CYLINDRICAL LOCK,ADVANTA WITH DVO,   81742.60 Single
940 OFV 20140266 17/09/2014 2014-10-17 14:30 2014-10-17 15:00 SILICO MANGENESE SPRING STEEL,NDS FLAT,SIZE-6 MM X 100 MM,   135275.00 Single
941 OFV 20140267 17/09/2014 2014-10-17 14:30 2014-10-17 15:00 TAP SET HSS- 1/8"BSP IN 2 PIECES,HSS TAP SET,M8 X1.25 MM PITCH,RH,TAP SET OF 3, M 10X 1.50 MM P.,   89747.00 Single
942 OFT D180Z52389 17/09/2014 2014-10-16 14:30 2014-10-16 15:00 LASER MARKING UBGL BODY & BRRL   0.00 Single
943 OFCH 201400338 17/09/2014 2014-10-30 14:00 2014-10-30 14:30 FRONT TYRE WITH TUBE & FLAP FRONT TYRE WITH TUBE RIB   13980.00 Single
944 OFCH 201400340 17/09/2014 2014-10-30 14:00 2014-10-30 14:30 ALUMINIUM SHEET 1 MM THICK   0.00 Single
945 OFCH 201400350 17/09/2014 2014-10-27 14:00 2014-10-27 14:30 TURPENTINE REDUCER PAINT THINN   6955.00 Single
946 OEFHZ 20140066 17/09/2014 2014-09-23 00:00 2014-09-23 00:00 SERVICE CONTRACT FOR SECURITY   3.00 Single
947 OFPM B405514 17/09/2014 2014-12-02 14:00 2014-12-02 15:00 COPPER TUBE COPPER TUBE COPPER TUBE COPPER TUBE COPPER TUBE ETC.   0.00 Single
948 OFPM E404014 17/09/2014 2014-09-30 14:00 2014-09-30 15:00 TRANSPORTATION OF MATERIAL   0.00 Single
949 OFPM S410414 17/09/2014 2014-10-21 14:00 2014-10-21 15:00 TRACTOR FRONT TYRE & TUBE SZ:6.50.20   0.00 Single
950 HAPP 14/0171 17/09/2014 2014-10-14 14:00 2014-10-14 14:30 STRIP (BLANK) FOR TAIL UNIT (RGB 12)   0.00 Single
951 HAPP 14/0173 17/09/2014 2014-10-14 14:00 2014-10-14 14:30 ZINC PLATING OF SPRING - RGB 60   0.00 Single
952 EFA 14100553 17/09/2014 2014-10-17 00:00 2014-10-17 00:00 INSULATING RING   0.00 Single
953 EFA 14100554 17/09/2014 2014-10-17 00:00 2014-10-17 00:00 PLUG   0.00 Single
954 EFA 14100555 17/09/2014 2014-10-17 00:00 2014-10-17 00:00 CUP   0.00 Single
955 EFA 14100556 17/09/2014 2014-10-17 00:00 2014-10-17 00:00 BAND   0.00 Single
956 EFA 14100557 17/09/2014 2014-10-17 00:00 2014-10-17 00:00 STRAIGHT UNION   0.00 Single
957 EFA 14100558 17/09/2014 2014-10-17 00:00 2014-10-17 00:00 WASHER 11   0.00 Single
958 EFA 14100559 17/09/2014 2014-10-17 00:00 2014-10-17 00:00 CLAMP; CLAMP;   0.00 Single
959 EFA 14100560 17/09/2014 2014-10-17 00:00 2014-10-17 00:00 SHUTT-OFF VALVE   0.00 Single
960 EFA 14100561 17/09/2014 2014-10-21 00:00 2014-10-21 00:00 GASKET   0.00 Single
961 EFA 14100562 17/09/2014 2014-10-21 00:00 2014-10-21 00:00 LOCK   0.00 Single
962 EFA 14100563 17/09/2014 2014-10-21 00:00 2014-10-21 00:00 PIPE UNION; COVER NUT;   0.00 Single
963 EFA 14100564 17/09/2014 2014-10-21 00:00 2014-10-21 00:00 NUT (M 10x1 5H6H)   0.00 Single
964 EFA 14100565 17/09/2014 2014-10-21 00:00 2014-10-21 00:00 STRAIGHT UNION; SWIVEL ELBOW;   0.00 Single
965 EFA 14100566 17/09/2014 2014-10-21 00:00 2014-10-21 00:00 NUT   0.00 Single
966 EFA 14100567 17/09/2014 2014-10-21 00:00 2014-10-21 00:00 ADAPTOR STUD   0.00 Single
967 EFA 14100568 17/09/2014 2014-10-21 00:00 2014-10-21 00:00 GASKET   0.00 Single
968 EFA 14100569 17/09/2014 2014-10-21 00:00 2014-10-21 00:00 GASKET METALLIC   0.00 Single
969 EFA 14100570 17/09/2014 2014-10-21 00:00 2014-10-21 00:00 REGISTER PIN   0.00 Single
970 EFA 14100571 17/09/2014 2014-10-21 00:00 2014-10-21 00:00 GAUZE   0.00 Single
971 EFA 14100572 17/09/2014 2014-10-21 00:00 2014-10-21 00:00 PLATE TYPE WASHER   0.00 Single
972 EFA 14100573 17/09/2014 2014-10-21 00:00 2014-10-21 00:00 PANEL   0.00 Single
973 EFA 14100574 17/09/2014 2014-10-21 00:00 2014-10-21 00:00 WASHER   0.00 Single
974 EFA 14100575 17/09/2014 2014-10-21 00:00 2014-10-21 00:00 OUTLET SPACER; INLET SPACER;   0.00 Single
975 EFA 14100576 17/09/2014 2014-10-24 00:00 2014-10-24 00:00 SPANNER 8 X 10 7811-0003; SPANNER 24 X 27 7811-0026; SPANNER 19 X 22 7811-0024;   0.00 Single
976 EFA 14100577 17/09/2014 2014-10-24 00:00 2014-10-24 00:00 PRESSURE FLANGE ASSY   0.00 Single
977 EFA 14100578 17/09/2014 2014-10-24 00:00 2014-10-24 00:00 BUSH   0.00 Single
978 EFA 14100579 17/09/2014 2014-10-24 00:00 2014-10-24 00:00 GASKET   0.00 Single
979 EFA 14500122 17/09/2014 2014-09-30 00:00 2014-09-30 00:00 CHAMFERING TOOL; FACING TOOL; COUNTERBORE CUTTER,C.T;   0.00 Single
980 EFA 14500123 17/09/2014 2014-09-30 00:00 2014-09-30 00:00 GRINDING WHEEL; POLISHING TAPE,ROLL TYPE; MOUNTED POINT GRINDIND WHEELW236;   0.00 Single
981 EFA 14500124 17/09/2014 2014-09-30 00:00 2014-09-30 00:00 PILOTED END COUNTERBORE CUTTER; PILOTED END COUNTERBORE CUTTER; PILOTED END COUNTERBORE CUTTER;   0.00 Single
982 EFA 14500125 17/09/2014 2014-09-30 00:00 2014-09-30 00:00 TORQUE WRENCH- 3KGM-17MM   0.00 Single
983 EFA 14500126 17/09/2014 2014-09-30 00:00 2014-09-30 00:00 SPECIAL GROOVING INSERT,2MM WIDTH   0.00 Single
984 EFA 14500127 17/09/2014 2014-09-30 00:00 2014-09-30 00:00 INSERT FOR TURNING   0.00 Single
985 EFA 14700040 17/09/2014 2014-10-07 00:00 2014-10-07 00:00 PLC INPUT CARD   0.00 Single
986 EFA 14750021 17/09/2014 2014-10-07 00:00 2014-10-07 00:00 SUPPLY OF SPARE & SERVICING OF FINI   0.00 Single
987 OFBOL 14150220 17/09/2014 2014-10-17 14:30 2014-10-17 14:30 LEAD SEAL, 12MM DIA.OF GOOD COMMER-   6856.00 Single
988 OFDR 2014000304 17/09/2014 2014-10-21 14:30 2014-10-21 15:00 1. SUPPLY & FIXING OF ROLLING SHUTTER   3.00 Single
989 AFK 20140476 16/09/2014 2014-10-07 14:00 2014-10-07 14:30 GUN POWDER MEALED JSS-1376-05-1986   0.00 Single
990 AFK 20140479 16/09/2014 2014-10-07 14:00 2014-10-07 14:30 WRENCH FUZING MINE APM 16 A1   0.00 Single
991 AFK 20140480 16/09/2014 2014-10-07 14:00 2014-10-07 14:30 WASHER SEALING TO DRG AFK/SK/2187   0.00 Single
992 GSF 1400000908 16/09/2014 2014-10-16 00:00 2014-10-16 00:00 ELECTRICAL SAFETY SHOE TESTED UP TO 20KV SPECIALLY,   0.00 Single
993 GSF 1400000909 16/09/2014 2014-10-16 00:00 2014-10-16 00:00 A.M.C.OF 43 NOS OF AVERY WEIGHING M/CS.,   0.00 Single
994 GSF 1400000910 16/09/2014 2014-10-16 00:00 2014-10-16 00:00 ANN.MAINT/SERV.& CALIBRATION OF SPRING TESTING M/C,   0.00 Single
995 GSF 1400000911 16/09/2014 2014-10-16 00:00 2014-10-16 00:00 ANN.MAINT/SERV.& CALIBRATION OF TENSILE TEST M/C.,   0.00 Single
996 GSF 1400000912 16/09/2014 2014-10-16 00:00 2014-10-16 00:00 DENATURED SPIRIT (ORDINARY).,   0.00 Single
997 GSF 1400000913 16/09/2014 2014-10-16 00:00 2014-10-16 00:00 TOGGLE,70 MM LENGTH,10 MM THICK X 18 MM WIDTH., TOGGLE (FOR M.S.AUTO),3 TO A SET SIZE:28X30X80 MM,   0.00 Single
998 GSF 1400000914 16/09/2014 2014-10-16 00:00 2014-10-16 00:00 LINK FOR CHIP-CONVEYOR,WIDTH-19 MM,LENGTH-57 MM,, SIDE PLATE FOR CHIP-CONVEYOR WIDTH-34MM, LENGTH-60, WASHER FOR CHIP CONVEYOR.OD-18MM,ID-9MM, THICK-2MM, ROLLER FOR CHIP CONVEYOR ,OD-25 MM,ID-8.1 MM,   0.00 Single
999 GSF 1400000915 16/09/2014 2014-10-16 00:00 2014-10-16 00:00 HIGH SPEED STEEL DIA 80 MM(+/-1MM)X1MTR & ABOVE., HSS 5O MM DIA TO IS 7291-1981,XT-75W18 CO5 CR4MOV1, HSS.ROD.56 MM.DIA.*IS 7291:81,XT 75.W 18.CO 5.CR 4, HSS RD 63MM DIA TO AISI-M2.,   27500.00 Single
1000 GSF 1400000916 16/09/2014 2014-10-16 00:00 2014-10-16 00:00 Sleeve to GSF Sk.No.M-11034 in Finished Condition,   61000.00 Single
1001 HEF TE14150073 16/09/2014 2014-10-07 00:00 2014-10-07 00:00 -BALL BEARING DR SA SKF-222051200078   0.00 Single
1002 OFA B4TE110429 16/09/2014 2014-10-10 14:30 2014-10-10 15:00 ,SODIUM BICHROMATE IS 249-1979 etc.   0.00 Single
1003 OFA B4TE120427 16/09/2014 2014-10-14 14:30 2014-10-14 15:00 ,GUN METAL GATE VALVE,SIZE:50 MM. etc.   0.00 Single
1004 OFA B4TE120428 16/09/2014 2014-10-14 14:30 2014-10-14 15:00 ,DIODE BASED WELDING RECTIFIER EQUIP etc.   0.00 Single
1005 SAF 3143000723 16/09/2014 2014-10-28 14:30 2014-10-28 15:00 MOUNTING TRIPOD 7.62MM MGL 4A1,   0.00 Single
1006 OCFC 2014LTE305 16/09/2014 2014-10-14 00:00 2014-10-14 00:00 ,PLUG SHRG20P4ESH8 ,PLUG FEMALE SHR32P10ESH1 ,PLUG FEMALE SSHR32P10ESH4 ,PLUG FEMALE SHR40P16ESH2   0.00 Single
1007 OCFC 2014LTE306 16/09/2014 2014-10-14 00:00 2014-10-14 00:00 ,PLUG SHRG20P4ESH8 ,PLUG FEMALE SHR32P10ESH1 ,PLUG FEMALE SSHR32P10ESH4 ,PLUG FEMALE SHR40P16ESH2   0.00 Single
1008 OFDC 140362M2LT 16/09/2014 2014-09-23 00:00 2014-09-23 14:30 ENGAGEMENT OF PRIVATE SECURITY   0.00 Single
1009 HVF 0108925 16/09/2014 2014-10-06 12:00 2014-10-06 15:00 CLAMP , etc.   0.00 Single
1010 HVF 0211419 16/09/2014 2014-09-29 12:00 2014-09-29 15:00 RING , etc.   0.00 Single
1011 HVF 0211420 16/09/2014 2014-09-30 12:00 2014-09-30 15:00 SPRING , etc.   0.00 Single
1012 HVF 0211424 16/09/2014 2014-10-07 12:00 2014-10-07 15:00 POLYVINYL-CHLORIDE ELECTRO-INSULATING , etc.   0.00 Single
1013 HVF 0211425 16/09/2014 2014-10-03 12:00 2014-10-03 15:00 WASHER , etc.   0.00 Single
1014 HVF 0211426 16/09/2014 2014-10-04 12:00 2014-10-04 15:00 REAR SHIELD , etc.   0.00 Single
1015 HVF 0413261 16/09/2014 2014-10-04 12:00 2014-10-04 15:00 GASKET , etc.   0.00 Single
1016 HVF 0413262 16/09/2014 2014-09-30 12:00 2014-09-30 15:00 PIPE , etc.   0.00 Single
1017 HVF 0413263 16/09/2014 2014-09-30 12:00 2014-09-30 15:00 BODY ( MODIFICATION ) , etc.   0.00 Single
1018 HVF 0413264 16/09/2014 2014-10-29 12:00 2014-10-29 15:00 PIPE FROM VALVE TO THE METERING DEVICE , etc.   0.00 Single
1019 HVF 0413265 16/09/2014 2014-10-10 12:00 2014-10-10 15:00 UPPER DIAPHRAGM , etc.   0.00 Single
1020 HVF 0413266 16/09/2014 2014-10-10 12:00 2014-10-10 15:00 SHOCK ABSORBER , etc.   0.00 Single
1021 HVF 0413267 16/09/2014 2014-10-10 12:00 2014-10-10 15:00 NUT , etc.   0.00 Single
1022 HVF 0413268 16/09/2014 2014-10-10 12:00 2014-10-10 15:00 SCREW , etc.   0.00 Single
1023 HVF 0413269 16/09/2014 2014-10-10 12:00 2014-10-10 15:00 BRACKET , etc.   0.00 Single
1024 HVF 0413270 16/09/2014 2014-10-10 12:00 2014-10-10 15:00 COVER , etc.   0.00 Single
1025 HVF 0613317 16/09/2014 2014-10-07 12:00 2014-10-07 15:00 BOSCH DEMOLITION HAMMER (GSH 16-30) , etc.   0.00 Single
1026 OFV 20140245 16/09/2014 2014-10-17 14:30 2014-10-17 15:00 BRUSH PAINTS & VARNISHES FLAT,   23680.00 Single
1027 OFV 20140246 16/09/2014 2014-10-17 14:30 2014-10-17 15:00 CLOTH CALICO BLEACHED 100-110 CM,   161949.00 Single
1028 OFAJ IS2140234 16/09/2014 2014-10-06 14:00 2014-10-06 15:00 LABOUR CONTRACT FOR INSPECTION BUNG, LABOUR CONTRACT FOR SATPURA/WENA   0.00 Single
1029 OFAJ IS2140235 16/09/2014 2014-10-06 14:00 2014-10-06 15:00 LABOUR CONTRACT FOR RCS, OFAJ ESTAT   0.00 Single
1030 OFAJ IS2140236 16/09/2014 2014-09-16 14:00 2014-09-16 15:00 STOREWEL PLAIN WITH HANGING ROD   0.00 Single
1031 OFAJ IS2140237 16/09/2014 2014-09-16 14:00 2014-09-16 15:00 HIGH CYANIDE ZINC SALT FOR ZINC ELE   0.00 Single
1032 OFT D190H52380 16/09/2014 2014-10-07 14:30 2014-10-07 15:00 INSERT SONX120508TR-M12 F40M   0.00 Single
1033 OFT D220H52377 16/09/2014 2014-10-07 14:30 2014-10-07 15:00 Grooved Collets dia 16mm EMCO ,Smooth Collets Dia 16 mm EMCO   0.00 Single
1034 OFT D220H52378 16/09/2014 2014-10-07 14:30 2014-10-07 15:00 Grooved Collets Dia 25 mm EMCO ,Smooth Collets Dia 25 mm EMCO   0.00 Single
1035 OFT D220H52379 16/09/2014 2014-10-07 14:30 2014-10-07 15:00 Grooved Collets Dia 36 mm EMCO ,Smooth Collets Dia 36 mm EMCO   0.00 Single
1036 OFT D235H52376 16/09/2014 2014-10-07 14:30 2014-10-07 15:00 HAND PADS 320GRIT 150MM(SCOTCH   0.00 Single
1037 OFT D491H52387 16/09/2014 2014-10-07 14:30 2014-10-07 15:00 LUGGED CARBIDE STEPPED REAMER   0.00 Single
1038 OFT D491H52388 16/09/2014 2014-10-07 14:30 2014-10-07 15:00 LUGGED CARBIDE "T" SLOT CUTTER   0.00 Single
1039 OFT D49UH52382 16/09/2014 2014-10-07 14:30 2014-10-07 15:00 SC THREAD MILL DIA 12mm UBGL   0.00 Single
1040 OFT D49UH52383 16/09/2014 2014-10-07 14:30 2014-10-07 15:00 MG SC CHAMFER END MILL DIA 12   0.00 Single
1041 OFT D49UH52384 16/09/2014 2014-10-07 14:30 2014-10-07 15:00 MG SC CHAMF. RADIUS E.M DIA 10   0.00 Single
1042 OFT D49UH52385 16/09/2014 2014-10-07 14:30 2014-10-07 15:00 SOLID CARBIDE MICRO GRAIN, TIA   0.00 Single
1043 OFT D49UH52386 16/09/2014 2014-10-07 14:30 2014-10-07 15:00 BRAZED CARBIDE T-SLOT CUTTER   0.00 Single
1044 OFT D54UH52381 16/09/2014 2014-10-07 14:30 2014-10-07 15:00 HIGH PERFORMANCE (HP) POLISHIN   0.00 Single
1045 OFCH 201400345 16/09/2014 2014-10-13 14:00 2014-10-13 14:30 HERMATICALLY SEALED COMPRESSOR HERMATICALLY SEALED COMPRESSOR SUCTION VALVE 1/2" 1.5 TON SPL DISCHARGE VALVE 1/4" 1.5/2 T S SUCTION VALVE SIZE 5/8"OUTDOOR HERMATIC COMPRESSOR SEALED UNI COMPRESSOR SE   11082.20 Single
1046 OFCH 201400346 16/09/2014 2014-10-09 14:00 2014-10-09 14:30 EPOXY FLOOR COATING 3MM THICK   7899.00 Single
1047 OFCH 201400347 16/09/2014 2014-10-16 14:00 2014-10-16 10:00 HIR.SERVICES FOR CONT.39A - BP   21621.00 Single
1048 FGK 340499 16/09/2014 2015-04-22 00:00 2015-04-22 00:00 M340X3-6G GO NO GO THREAD GAUG,   0.00 Single
1049 FGK 340500 16/09/2014 2015-06-30 00:00 2015-06-30 00:00 SLEEVE IFL-7642 AND DS CAT NO.,   0.00 Single
1050 OFPM A404114 16/09/2014 2014-11-18 14:00 2014-11-18 15:00 ANNUAL MAINTENANCE CONTRACT FOR CCTV SYS   0.00 Single
1051 HAPP 14/0169 16/09/2014 2014-10-09 14:00 2014-10-09 14:30 ZINC PLATING OF INNER RING-RGB12   0.00 Single
1052 HAPP 14/0170 16/09/2014 2014-10-14 14:00 2014-10-14 14:30 INDUSTRIAL CAMPHOR   0.00 Single
1053 EFA 14100528 16/09/2014 2014-10-14 00:00 2014-10-14 00:00 FLEXIBLE HOSE   0.00 Single
1054 EFA 14100529 16/09/2014 2014-10-14 00:00 2014-10-14 00:00 COVER   0.00 Single
1055 EFA 14100530 16/09/2014 2014-10-14 00:00 2014-10-14 00:00 NUT M14x1.5   0.00 Single
1056 EFA 14100531 16/09/2014 2014-10-14 00:00 2014-10-14 00:00 LOCKING WASHER 18x36   0.00 Single
1057 EFA 14100532 16/09/2014 2014-10-14 00:00 2014-10-14 00:00 NUT M12-7H   0.00 Single
1058 EFA 14100533 16/09/2014 2014-10-14 00:00 2014-10-14 00:00 SPACER   0.00 Single
1059 EFA 14100534 16/09/2014 2014-10-14 00:00 2014-10-14 00:00 CLIP ASSY.   0.00 Single
1060 EFA 14100535 16/09/2014 2014-10-14 00:00 2014-10-14 00:00 SOCKET WRENCH BOX S-17   0.00 Single
1061 EFA 14100536 16/09/2014 2014-10-14 00:00 2014-10-14 00:00 WASHER   0.00 Single
1062 EFA 14100537 16/09/2014 2014-10-14 00:00 2014-10-14 00:00 BOLT   0.00 Single
1063 EFA 14100538 16/09/2014 2014-10-14 00:00 2014-10-14 00:00 BUSHING   0.00 Single
1064 EFA 14100539 16/09/2014 2014-10-14 00:00 2014-10-14 00:00 BLIND NUT(M 24 X 1.5 5H6H)   0.00 Single
1065 EFA 14100540 16/09/2014 2014-10-14 00:00 2014-10-14 00:00 LOCK NUT   0.00 Single
1066 EFA 14100541 16/09/2014 2014-10-17 00:00 2014-10-17 00:00 BUSH FORCONNECTING ROD BIG END   0.00 Single
1067 EFA 14100542 16/09/2014 2014-10-17 00:00 2014-10-17 00:00 LOCK WOOD SCREW   0.00 Single
1068 EFA 14100543 16/09/2014 2014-10-14 00:00 2014-10-14 00:00 STUD(M8 X 50)   0.00 Single
1069 EFA 14100544 16/09/2014 2014-10-17 00:00 2014-10-17 00:00 PIPE ASSY   0.00 Single
1070 EFA 14100545 16/09/2014 2014-10-17 00:00 2014-10-17 00:00 PIPE   0.00 Single
1071 EFA 14100546 16/09/2014 2014-10-17 00:00 2014-10-17 00:00 PLUG   0.00 Single
1072 EFA 14100547 16/09/2014 2014-10-17 00:00 2014-10-17 00:00 BUSHING   0.00 Single
1073 EFA 14100548 16/09/2014 2014-10-17 00:00 2014-10-17 00:00 SPACER   0.00 Single
1074 EFA 14100549 16/09/2014 2014-10-17 00:00 2014-10-17 00:00 NET   0.00 Single
1075 EFA 14100550 16/09/2014 2014-10-17 00:00 2014-10-17 00:00 SCREW DRIVER   0.00 Single
1076 EFA 14100551 16/09/2014 2014-10-17 00:00 2014-10-17 00:00 COVER EXHAUST MANIFOLD   0.00 Single
1077 EFA 14100552 16/09/2014 2014-10-17 00:00 2014-10-17 00:00 LOCKING WIRE; LOCKING WOOD SCREW;   0.00 Single
1078 OLF 1406010391 16/09/2014 2014-10-17 15:00 2014-10-17 15:00 SPIRIT RECTIFIED 93.5% PURE   0.00 Single
1079 OLF 1406040390 16/09/2014 2014-10-20 15:00 2014-10-20 15:00 TOOL & ACC.LENS-71.12.250 R36.,TOOL & ACC.-71.13.241 R53.58MM,TOOL & ACC.LENS-71.17036 R39.2,TOOL & ACC.LENS.7.512.022 R40.,TOOL&ACC.LENS 71.12.249R36.140,TOOL&ACC.LENS.71.32.420R990.80,TOOL&ACC.LENS.   0.00 Single
1080 OFDR 2014000288 16/09/2014 2014-10-10 14:30 2014-10-10 15:00 1. ELECTRONIC BALLAST 40W, 230V, AC   3.00 Single
1081 OFDR 2014000289 16/09/2014 2014-10-10 14:30 2014-10-10 15:00 1. EXHAUST FAN FLAME PROOF 450 MM   3.00 Single
1082 OFDR 2014000290 16/09/2014 2014-10-10 14:30 2014-10-10 15:00 1. HEAVY DUTY ELECTRONIC FAN   3.00 Single
1083 OFDR 2014000291 16/09/2014 2014-10-10 14:30 2014-10-10 15:00 1. DIGGING AND BACKFILLING OF CABLE   3.00 Single
1084 OFDR 2014000292 16/09/2014 2014-10-10 14:30 2014-10-10 15:00 1. PROVISIONING OF 10 EARTHING PIT   3.00 Single
1085 OFDR 2014000293 16/09/2014 2014-10-10 14:30 2014-10-10 15:00 1. STREET LIGHT FITTING 4 X 14 W   3.00 Single
1086 OFDR 2014000294 16/09/2014 2014-10-10 14:30 2014-10-10 15:00 1. CAPACITOR SUPER HEAVY DUTY, 25KVAR.   3.00 Single
1087 OFDR 2014000295 16/09/2014 2014-10-10 14:30 2014-10-10 15:00 1. SPARES SET FOR MOTOROLA WIRELESS SY   3.00 Single
1088 OFDR 2014000296 16/09/2014 2014-10-10 14:30 2014-10-10 15:00 1. C.F.LAMP, 35 WATT, SPIRAL TYPE.   3.00 Single
1089 OFDR 2014000297 16/09/2014 2014-10-10 14:30 2014-10-10 15:00 1. FLAME PROOF WELL GLASS LIGHT FITTIN   3.00 Single
1090 OFDR 2014000298 16/09/2014 2014-10-10 14:30 2014-10-10 15:00 1. 4 PAIR,CAT6 UNSHIELDED TWISTED PAIR   3.00 Single
1091 OFDR 2014000299 16/09/2014 2014-10-21 14:30 2014-10-21 15:00 1. ABS POLYCARBONATE FLOAT VALVE BALL   3.00 Single
1092 OFDR 2014000300 16/09/2014 2014-10-21 14:30 2014-10-21 15:00 1. PLYURETHANE TAP 15 MM DIA   3.00 Single
1093 OFDR 2014000301 16/09/2014 2014-10-21 14:30 2014-10-21 15:00 1. AFFF 6% UL LISTED (MECHANICAL FOAM)   3.00 Single
1094 OFDR 2014000302 16/09/2014 2014-10-21 14:30 2014-10-21 15:00 1. CONTRACT FOR SURGICAL ITEMS   3.00 Single
1095 OFDR 2014000303 16/09/2014 2014-10-21 14:30 2014-10-21 15:00 1. CONTRACT FOR LABORATORY KITS/CHEM.   3.00 Single
1096 AFK 20140474 15/09/2014 2014-10-07 14:00 2014-10-07 14:30 GUN POWDER GRANULATED G-40.JSS-1376   0.00 Single
1097 OEFC 20140341 15/09/2014 2050-12-30 13:30 2050-12-30 14:00 CORRUGATED FIBRE BOARD BOX 7 PLY WITH INTRERNAL DIMENSIONS 340 MM X 440MM X 450MM.   0.00 Single
1098 OEFC 20140342 15/09/2014 2014-09-15 13:30 2014-09-15 14:00 BRASS WIRE HARD 3 MM DIA -A/F   0.00 Single
1099 OEFC 20140343 15/09/2014 2014-09-15 13:30 2014-09-15 14:00 BRASS WIRE HARD 3.2 MM DIA - A/F   0.00 Single
1100 OEFC 20140344 15/09/2014 2014-09-15 13:30 2014-09-15 14:00 TRADE ASSISTANCE FOR NICKLE CHROME PLATING OF BUCKLE BRASS 25MM FOR AIR FORCE   0.00 Single
1101 OEFC 20140345 15/09/2014 2014-09-15 13:30 2014-09-15 14:00 TRADE ASSISTANCE FOR NICKLE CHROME PLAT-ING OF BUCKLE BRASS 51 MM   0.00 Single
1102 OEFC 20140346 15/09/2014 2014-09-15 13:30 2014-09-15 14:00 FILE COVER AS PER SAMPLE   0.00 Single
1103 OEFC 20140347 15/09/2014 2014-09-15 13:30 2014-09-15 14:00 PARAG MILK(FULL CREAM), AMUL(FULL CREAM), NAMASTE INDIA(FULL CREAM)   0.00 Single
1104 MSF 14TE210414 15/09/2014 2014-10-17 14:30 2014-10-17 14:30 SUPPLY&FITTING OF WHEEL ASSEMBLY etc.   Single
1105 MSF 14TE220413 15/09/2014 2014-10-17 14:30 2014-10-17 14:30 DOOR ARCH FOR ELECTRIC FURNACE etc.   7600.00 Single
1106 MSF 14TE220415 15/09/2014 2014-10-22 14:30 2014-10-22 14:30 SINGLE THRUST BALL BEARING,NO.51120 SELF ALIGNING BALL BEARING 2211EK etc.   Single
1107 MSF 14TE220416 15/09/2014 2014-10-22 14:30 2014-10-22 14:30 ANNUAL MAINTENANCE CONTRACT etc.   Single
1108 GSF 1400000901 15/09/2014 2014-10-16 00:00 2014-10-16 00:00 CAPACITOR 8 MFD., CONDENCER 2.5 MFD 4OO VOLT A.C. OIL FILLED, CONDENSER 4 MFD 25O/4OO VOLT A.C. OIL FILLED,   0.00 Single
1109 GSF 1400000902 15/09/2014 2014-10-16 00:00 2014-10-16 00:00 FAN REGULATOR SURFACE MOUNTING TYPE 400WAT,230VAC.,   0.00 Single
1110 GSF 1400000903 15/09/2014 2014-10-16 00:00 2014-10-16 00:00 MOTORISED BARREL PUMP:LENGTH-1000MM,DISCHARG-80LPM,   0.00 Single
1111 GSF 1400000904 15/09/2014 2014-10-16 00:00 2014-10-16 00:00 HSS CENTRE DRILL 3/16" X 7/16"., CARBIDE END MILL 10 MM X FL 22 X OAL 70 MMX 4FLUTE, TOOL HOLDER TO ISO NO:SER 2525 M 16 FOR THREADING, BORING BAR.S25S PCLNR 12 S40UPCLNR12 & INSERT CNMG,   0.00 Single
1112 GSF 1400000905 15/09/2014 2014-10-16 00:00 2014-10-16 00:00 DRILL TWIST STRAIGHT SHANK HSS 9.8 MM DIA, MICROGRAIN SOLID CARBIDE END MILL CUTTER CTT-0427A,   0.00 Single
1113 GSF 1400000906 15/09/2014 2014-10-16 00:00 2014-10-16 00:00 BALL BEARING SINGLE ROW SKF-6202, SINGLE ROW DEEP GROOVE JOURNAL BALL BRG. SKF-6314., S.R.D.G.BALL JOURNAL BEARING SKF--6316.MAKE:SKF/FA,   0.00 Single
1114 HEF CT14150006 15/09/2014 2014-10-07 00:00 2014-10-07 00:00 -BOX FILE WITH KANGARO CLI8101212101-PLAIN COPIER PAPER 8101212102   0.00 Single
1115 HEF TE14150068 15/09/2014 2014-09-15 00:00 2014-09-15 00:00 -HIGH SPEED DIESEL - EURO 1035761034   0.00 Single
1116 HEF TE14150069 15/09/2014 2014-09-30 00:00 2014-09-30 00:00 -SET OF PROFEEL 2101619516   0.00 Single
1117 HEF TE14150070 15/09/2014 2014-09-30 00:00 2014-09-30 00:00 -SODIUM SULPHITE ANHYDROUS1001725935   0.00 Single
1118 HEF TE14150071 15/09/2014 2014-09-30 00:00 2014-09-30 00:00 -HDPE WOVEN SAC BAGS 9910933683   0.00 Single
1119 HEF TE14150072 15/09/2014 2014-10-07 00:00 2014-10-07 00:00 -OLEUM 21(+-)1% 1001560500   0.00 Single
1120 OFKAT 2014000216 15/09/2014 2014-10-14 14:30 2014-10-14 14:30 GLOVES GUNNY WITHOUT FINGER   0.00 Single
1121 OFKAT 2014000217 15/09/2014 2014-09-15 14:30 2014-09-15 14:30 POLYTHENE POUCH(TRNSPRNT)130MM   0.00 Single
1122 SAF 3143000703 15/09/2014 2014-10-07 14:30 2014-10-07 15:00 ROLLEN SIDEWAYS MATERIAL,ROLLEN SIDEWAYS MATERIAL,ROLLEN SIDEWAYS MATGERIAL,   0.00 Single
1123 SAF 3143000704 15/09/2014 2014-09-30 14:30 2014-09-30 15:00 STOP PIN EJECTOR,   0.00 Single
1124 SAF 3143000705 15/09/2014 2014-10-28 14:30 2014-10-28 15:00 INVESTMENT CASTING TO DRG.NO.S,   0.00 Single
1125 SAF 3143000706 15/09/2014 2014-10-28 14:30 2014-10-28 15:00 FORE SIGHT HOUSING,   0.00 Single
1126 SAF 3143000707 15/09/2014 2014-10-28 14:30 2014-10-28 15:00 SECURING NUT, BUFFER ASSEMBLY,   0.00 Single
1127 SAF 3143000708 15/09/2014 2014-10-28 14:30 2014-10-28 15:00 PLATE BODY (IC) FOR REVOLVER M,   0.00 Single
1128 SAF 3143000709 15/09/2014 2014-10-28 14:30 2014-10-28 15:00 FRAME TRIGGER DS CAT NO.1005 -,   0.00 Single
1129 SAF 3143000710 15/09/2014 2014-10-28 14:30 2014-10-28 15:00 STEEL BLANK OF CYLINDER GAS TO,   0.00 Single
1130 SAF 3143000711 15/09/2014 2014-10-28 14:30 2014-10-28 15:00 REARSIGHT CURSOR,   0.00 Single
1131 SAF 3143000712 15/09/2014 2014-10-28 14:30 2014-10-28 15:00 LEVER LOCKING(CISA-633)DS CAT,   0.00 Single
1132 SAF 3143000713 15/09/2014 2014-10-28 14:30 2014-10-28 15:00 BRACKET D S C A T NO-1005-0008,   0.00 Single
1133 SAF 3143000714 15/09/2014 2014-10-28 14:30 2014-10-28 15:00 REBOUND TRIGGER, DRG. NO. PHMK,   0.00 Single
1134 SAF 3143000715 15/09/2014 2014-10-28 14:30 2014-10-28 15:00 PEG LOCATING D S CAT NO-1005-0,   0.00 Single
1135 SAF 3143000716 15/09/2014 2014-10-28 14:30 2014-10-28 15:00 PLATE, REAR,   0.00 Single
1136 SAF 3143000717 15/09/2014 2014-10-28 14:30 2014-10-28 15:00 BODY CATCH,   0.00 Single
1137 SAF 3143000718 15/09/2014 2014-10-28 14:30 2014-10-28 15:00 TRIGGER GUARD DS CAT NO.1005-0,   0.00 Single
1138 SAF 3143000719 15/09/2014 2014-10-28 14:30 2014-10-28 15:00 INVESTMENT CASTING TO DRG NO.S,   0.00 Single
1139 SAF 3143000720 15/09/2014 2014-10-28 14:30 2014-10-28 15:00 NUT RETAINING HANDLE TO DS CAT,   0.00 Single
1140 SAF 3143000721 15/09/2014 2014-10-28 14:30 2014-10-28 15:00 STEEL RD 25MM DIA SPECN.BS:970,   0.00 Single
1141 SAF 3143000722 15/09/2014 2014-10-28 14:30 2014-10-28 15:00 LEADED PHOS.BRONZE ROD 32MM DI,   0.00 Single
1142 OFBA 140429 15/09/2014 2014-10-16 14:30 2014-10-16 14:30 STEEL PLATES 10 CM SQUIRE   0.00 Single
1143 OFBA 140430 15/09/2014 2014-10-21 14:30 2014-10-21 14:30 SPANNER AS PER DRG.OFBA/BL/268   0.00 Single
1144 OFBA 140431 15/09/2014 2014-10-21 14:30 2014-10-21 14:30 P.I.V. CHAIN TYPE   0.00 Single
1145 OFBA 140432 15/09/2014 2014-10-14 14:30 2014-10-14 14:30 TARPOLIN SIZE 7.3*5.5 MTR   8900.00 Single
1146 OCFC 2014LTE303 15/09/2014 2014-10-14 00:00 2014-10-14 00:00 ,PLUG SHRG20P4ESH8 ,PLUG FEMALE SHR32P10ESH1 ,PLUG FEMALE SSHR32P10ESH4 ,PLUG FEMALE SHR40P16ESH2   0.00 Single
1147 OCFC 2014LTE304 15/09/2014 2014-10-07 00:00 2014-10-07 00:00 ,PLUG SHRG20P4ESH8 ,PLUG FEMALE SHR32P10ESH1 ,PLUG FEMALE SSHR32P10ESH4 ,PLUG FEMALE SHR40P16ESH2   0.00 Single
1148 OFDC 140351M2LT 15/09/2014 2014-10-10 00:00 2014-10-10 14:30 SINUMERIK MACHINE CONTROL   0.00 Single
1149 OFDC 140352M2LT 15/09/2014 2014-10-10 00:00 2014-10-10 14:30 SINUMERIK KEY BOARD FOR 802D   0.00 Single
1150 HVF 0211417 15/09/2014 2014-10-06 12:00 2014-10-06 15:00 BUFFER , etc.   0.00 Single
1151 HVF 0211418 15/09/2014 2014-09-27 12:00 2014-09-27 15:00 RIB , etc.   0.00 Single
1152 HVF 0413251 15/09/2014 2014-10-02 12:00 2014-10-02 15:00 SUB ASSYS/LOOSE ITEMS , etc.   0.00 Single
1153 HVF 0413252 15/09/2014 2014-10-04 12:00 2014-10-04 15:00 SUB ASSYS/LOOSE ITEMS , etc.   0.00 Single
1154 HVF 0413253 15/09/2014 2014-10-10 12:00 2014-10-10 15:00 MACHINED ITEMS , etc.   0.00 Single
1155 HVF 0413254 15/09/2014 2014-10-11 12:00 2014-10-11 15:00 SUB ASSYS/LOOSE ITEMS , etc.   0.00 Single
1156 HVF 0413255 15/09/2014 2014-10-03 12:00 2014-10-03 15:00 BRACKET ASSY , etc.   0.00 Single
1157 HVF 0413256 15/09/2014 2014-10-10 12:00 2014-10-10 15:00 GASKET , etc.   0.00 Single
1158 HVF 0413257 15/09/2014 2014-09-29 12:00 2014-09-29 15:00 PIPE LINE , etc.   0.00 Single
1159 HVF 0413258 15/09/2014 2014-09-29 12:00 2014-09-29 15:00 PIPE , etc.   0.00 Single
1160 HVF 0413259 15/09/2014 2014-10-03 12:00 2014-10-03 15:00 NUT , etc.   0.00 Single
1161 HVF 0413260 15/09/2014 2014-10-03 12:00 2014-10-03 15:00 CLAMPING BUSH , etc.   0.00 Single
1162 HVF 0812558 15/09/2014 2014-10-21 12:00 2014-10-21 15:00 LOVE JOY COUPLING NO.L225 , etc.   0.00 Single
1163 OFV 20140243 15/09/2014 2014-10-21 14:30 2014-10-21 15:00 BORAX GRANULAR TECHNICAL,SOAP LAUNDRY,SIZE: 4.3/4"X2"X1.7/8",   99072.75 Single
1164 OFAJ FS2140098 15/09/2014 2014-09-23 14:00 2014-09-23 15:00 LOCKING NUT DET-55   0.00 Single
1165 OFAJ IS2140232 15/09/2014 2014-09-15 14:00 2014-09-15 15:00 NYCO CARD READER   0.00 Single
1166 OFAJ IS2140233 15/09/2014 2014-09-15 14:00 2014-09-15 15:00 SOFTWARE BASED PROFILE PROJECTOR   0.00 Single
1167 OFAJ TS2140126 15/09/2014 2014-09-16 14:00 2014-09-16 15:00 DIGITAL INDICATOR, SOFTWARE DONGLE   0.00 Single
1168 OFT D130R93301 15/09/2014 2014-10-14 14:30 2014-10-14 15:00 RAIN COAT CANVAS   0.00 Single
1169 OFCH 201400341 15/09/2014 2014-10-16 14:00 2014-10-16 14:30 APC- 5 ( CEMENT RD 1286 )   0.00 Single
1170 OFCH 201400342 15/09/2014 2014-10-09 14:00 2014-10-09 14:30 24 PORT IPDSLM SET WITH TELCO   0.00 Single
1171 OFCH 201400344 15/09/2014 2014-10-06 14:00 2014-10-06 14:30 GRID FOR PROP. (FRONT) OF PINA   19825.00 Single
1172 OEFHZ 20140062 15/09/2014 2014-09-23 00:00 2014-09-23 00:00 LP TRUCK TO 1 FOD,UDHAMPUR(J&K) 9 T   3.00 Single
1173 OEFHZ 20140063 15/09/2014 2014-10-07 00:00 2014-10-07 00:00 SELF ADHESIVE POLY BAG SIZE (50 X 35) CM &.05MM   3.00 Single
1174 FGK 340498 15/09/2014 2014-10-09 00:00 2014-10-09 00:00 i) DIN 50 ADB HYDROLIC CHUCKS,   0.00 Single
1175 OFPM C410714 15/09/2014 2014-10-21 14:00 2014-10-21 15:00 TOOL CABINET OF 720MM L X 720MM D   0.00 Single
1176 OFPM D404914 15/09/2014 2014-10-14 14:00 2014-10-14 15:00 SOCKET HEAD CAP SCREW ALLEN SOCKET HD SCREWS SZ 10X50MM SOCKET HEAD CAP SCREW (ALLEN SCREW) SOCKET HEAD CAP SCREW (ALLEN SCREW) SOCKET HEAD CAP SCREW ETC.   0.00 Single
1177 OFPM D405014 15/09/2014 2014-11-18 14:00 2014-11-18 15:00 T-BOLT 18X100 AS PER IS 2014-1977 T-BOLT 20 X 120MM AS PER IS:2014-1977 T-BOLT M22X100 AS PER IS:2014-1996.   0.00 Single
1178 OFPM R404814 15/09/2014 2014-10-10 14:00 2014-10-10 15:00 AL.ALLOY SHEET 8MMX1250X2500MM   0.00 Single
1179 OFPM R404914 15/09/2014 2014-09-30 14:00 2014-09-30 15:00 ST.RD.BAR DIA:75MM Gr:65C6 IS:2507   0.00 Single
1180 OFPM T415814 15/09/2014 2014-10-14 14:00 2014-10-14 15:00 HSS SHELL END MILLER CUTTER.   0.00 Single
1181 OFPM U402514 15/09/2014 2014-11-07 14:00 2014-11-07 15:00 MS CHEQERRED PLATE 6 X 1250 X 5000 MM   0.00 Single
1182 OFPM V412014 15/09/2014 2015-02-20 14:00 2015-02-20 15:00 COVER TO DRG NO.765-89-CD192 COVER TO DRG NO.765-89-CD193   0.00 Single
1183 EFA 14300053 15/09/2014 2014-10-14 00:00 2014-10-14 00:00 COVER (FORGING)   0.00 Single
1184 EFA 14300054 15/09/2014 2014-10-14 00:00 2014-10-14 00:00 VERICAL SHAFT   0.00 Single
1185 EFA 14300055 15/09/2014 2014-10-14 00:00 2014-10-14 00:00 OIL PUMP DRIVE GEAR   0.00 Single
1186 EFA 14300056 15/09/2014 2014-10-14 00:00 2014-10-14 00:00 GEAR (FORGING)   0.00 Single
1187 EFA 14600138 15/09/2014 2014-10-07 00:00 2014-10-07 00:00 STORAGE RACK/FRAME DRG.NO.200617.   0.00 Single
1188 EFA 14600139 15/09/2014 2014-10-07 00:00 2014-10-07 00:00 NEEDLE ROLLER BEARING NA2206XLL,   0.00 Single
1189 EFA 14600140 15/09/2014 2014-10-07 00:00 2014-10-07 00:00 TMMA 80- SKF MECHANICAL EASY PULLER; TMFT 36SKF BEARING FITTING TOOL KIT;   0.00 Single
1190 EFA 14600141 15/09/2014 2014-10-07 00:00 2014-10-07 00:00 AFFF CONCENTRATE 3% FOR FIRE   0.00 Single
1191 EFA 14600142 15/09/2014 2014-10-07 00:00 2014-10-07 00:00 ISOLATOR,63 AMPS; MOULDED CASE CIRCUIT BREAKER;; MOULDED CASE CIRCUIT BREAKER,; MOTOR PROTECTION CIRCUIT BREAKER; MOTOR PROTECTION CIRCUIT BREAKER; MOTOR PROTECTION CIRCUIT BREAKER;   0.00 Single
1192 OLF 1406240388 15/09/2014 2014-10-17 15:00 2014-10-17 15:00 AMC FOR PC,PRINTER,UPS ETC,AS   16254.00 Single
1193 OLF 1410120387 15/09/2014 2014-10-13 15:00 2014-10-13 15:00 AMC OF XEROX M/C MODEL-WC-238   0.00 Single
1194 OLF 1410120389 15/09/2014 2014-10-13 15:00 2014-10-13 15:00 PHOTO COPYING PAPER A-4 SIZE   11939.00 Single
1195 OFBOL 14150213 15/09/2014 2014-09-23 14:30 2014-09-23 14:30 MINE A/T 4D ND (EMPTY ASSEMBLY) TO   242455.00 Single
1196 OFBOL 14150215 15/09/2014 2014-10-17 14:30 2014-10-17 14:30 TROUSER NAVY BLUE SIZE-1 ; TROUSER NAVY BLUE SIZE-2 ; TROUSER NAVY BLUE SIZE-3 ; TROUSER NAVY BLUE SIZE-4 ; SHIRT NAVY BLUE SIZE-1; etc   0.00 Single
1197 OFDR 2014000287 15/09/2014 2014-09-30 14:30 2014-09-30 15:00 1. PHOSPHORUS RED AMORPHOUS GRADE-I   3.00 Single
1198 SAF 3143000698 14/09/2014 2014-10-07 14:30 2014-10-07 15:00 METAL CLAD SWITCH FUSE UNIT PO,   0.00 Single
1199 SAF 3143000700 14/09/2014 2014-10-07 14:30 2014-10-07 15:00 TOLL MAGAZINE -DRUM TYPE-U TYP,   0.00 Single
1200 FGK 340496 14/09/2014 2014-10-09 00:00 2014-10-09 00:00 T/S LUGGED CARBIDE REAMER SIZE,   0.00 Single
1201 FGK 340497 14/09/2014 2014-10-16 00:00 2014-10-16 00:00 SPRING LOADED EXTENSOMETER (50,   0.00 Single
1202 OFPM B405314 14/09/2014 2014-10-14 14:00 2014-10-14 15:00 SITOR FUSE TYPE 3NE4 121, 1000 V AC,100A   0.00 Single
1203 OFPM B405414 14/09/2014 2014-10-14 14:00 2014-10-14 15:00 SITOR FUSE,TYPE:3NE4 101, 32 AMPS   0.00 Single
1204 OFPM C410514 14/09/2014 2015-03-10 14:00 2015-03-10 15:00 OIL OMD-110   0.00 Single
1205 OFPM C410614 14/09/2014 2014-10-14 14:00 2014-10-14 15:00 ENVELOPE (WINDOW TYPE) ON IGS. SE 5. BOX FILE LEVER TYPE. SIZE:350 x 270   0.00 Single
1206 OFPM T415214 14/09/2014 2014-10-14 14:00 2014-10-14 15:00 TURNING INSERT NO.CNMG-190612-PR-4225.   0.00 Single
1207 OFPM T415314 14/09/2014 2014-10-14 14:00 2014-10-14 15:00 INSERTED TYPE END CUTTER DIA:16MM.   0.00 Single
1208 OFPM T415414 14/09/2014 2014-10-14 14:00 2014-10-14 15:00 GUHRING HSS-E GRADE HAND TAP SET. GUHRING HSS-E GRADE TAP SET.   0.00 Single
1209 OFPM T415514 14/09/2014 2014-10-14 14:00 2014-10-14 15:00 SQUARE SHOULDER END MILLING CUTTER.   0.00 Single
1210 OFPM T415714 14/09/2014 2014-10-14 14:00 2014-10-14 15:00 DRILLING HOLDER   0.00 Single
1211 AFK 20140468 13/09/2014 2014-09-16 14:00 2014-09-16 14:30 LEATHER CONDUCTING SOLE SHOES MALE   0.00 Single
1212 AFK 20140471 13/09/2014 2014-10-07 14:00 2014-10-07 14:30 DELAY HOLDER ARDE/2078   0.00 Single
1213 AFK 20140472 13/09/2014 2014-10-07 14:00 2014-10-07 14:30 SIMULATED SQUIB PLUG BRIDGED   0.00 Single
1214 AFK 20140473 13/09/2014 2014-10-28 14:00 2014-10-28 14:30 AMMONIUM ACETATE AR/GR GRADE, ACID HYDROCHLORIC A R GR IS 265, SPECTROQUANT TEST RANGE0.010-5.0OMG, WHATMAN MEMBRANE CIRCLES, BUFFER SOLUTION TRACEABLE ETC.   18200.00 Single
1215 OEFC 20140338 13/09/2014 2015-02-27 13:30 2015-02-27 14:00 POLYTHINE TWINE BRAIDED O.G.3.00 MM +_0.2 MM CIRCUMFARENCE.   0.00 Single
1216 OEFC 20140339 13/09/2014 2014-09-22 13:30 2014-09-22 14:00 FABRIC WATER PROOF RUBBERISED WHITE 91CM   82450.00 Single
1217 CFA 14PVTE0230 13/09/2014 2014-10-03 13:00 2014-10-03 14:00 10 PAIR TELE. JUNCTION BOX   0.00 Single
1218 CFA 14PVTE0231 13/09/2014 2014-10-03 13:00 2014-10-03 14:00 FIRE HYDRANT VALVE,WITH DOUBLE   19035.00 Single
1219 GSF 1400000899 13/09/2014 2014-09-13 00:00 2014-09-13 00:00 VDI 50 BORING TURNING TOOL HOLDER FOR DNMG 150608,   0.00 Single
1220 GSF 1400000900 13/09/2014 2014-09-13 00:00 2014-09-13 00:00 VDI 50 BORING TURNING TOOL HOLDER FOR CNMG 120408,   0.00 Single
1221 OCFS 2014000234 13/09/2014 2014-09-23 14:30 2014-09-23 15:00 S/THR SPUN POLY DARK DRAB145DTEX X3   0.00 Single
1222 OFA B4TE110425 13/09/2014 2014-10-10 14:30 2014-10-10 15:00 ,'U' TYPE BRICK FOR LAUNDER IN NMS etc.   0.00 Single
1223 OFA B4TE120426 13/09/2014 2014-10-07 14:30 2014-10-07 15:00 ,ELECTRONIC SAFETY GUARD etc.   0.00 Single
1224 OFK 14CST-0535 13/09/2014 2014-10-07 14:30 2014-10-07 13:00 CEMENTITIOUS POLYMER BASED TILE   0.00 Single
1225 OFK 14CST-0536 13/09/2014 2014-10-07 14:30 2014-10-07 13:00 EPOXY GROUT LATAPOXY-2000 COL-BLACK   0.00 Single
1226 OFK 14CST-0537 13/09/2014 2014-10-07 14:30 2014-10-07 13:00 CERAMIC FLOOR TILES WHITE,PLAIN/DESIGNED,COLOURED/WHITE etc.   0.00 Single
1227 SAF 3143000696 13/09/2014 2014-10-07 14:30 2014-10-07 15:00 SOLID CARBIDE T-SLOT CUTTER DI,   0.00 Single
1228 SAF 3143000697 13/09/2014 2014-10-07 14:30 2014-10-07 15:00 FINISH ANGULAR PROFILE 6 FLUTE,   0.00 Single
1229 OCFAV 218/14-15 13/09/2014 2014-09-16 14:30 2014-09-16 14:30 TRANSPORTATION OF DEFENCE CON   0.00 Single
1230 OCFAV 219/14-15 13/09/2014 2014-09-16 14:30 2014-09-16 14:30 TRANSPORTATIO   7650.00 Single
1231 OCFC 2014LTE300 13/09/2014 2014-10-14 00:00 2014-10-14 00:00 ,PLUG SHRG20P4ESH8 ,PLUG FEMALE SHR32P10ESH1 ,PLUG FEMALE SSHR32P10ESH4 ,PLUG FEMALE SHR40P16ESH2   0.00 Single
1232 OCFC 2014LTE301 13/09/2014 2014-10-14 00:00 2014-10-14 00:00 ,PLUG SHRG20P4ESH8 ,PLUG FEMALE SHR32P10ESH1 ,PLUG FEMALE SSHR32P10ESH4 ,PLUG FEMALE SHR40P16ESH2   0.00 Single
1233 OCFC 2014LTE302 13/09/2014 2014-10-09 00:00 2014-10-09 00:00 ,PLUG SHRG20P4ESH8 ,PLUG FEMALE SHR32P10ESH1 ,PLUG FEMALE SSHR32P10ESH4 ,PLUG FEMALE SHR40P16ESH2   0.00 Single
1234 HVF 0108924 13/09/2014 2014-10-03 12:00 2014-10-03 15:00 LEFT-HAND BOSS , etc.   0.00 Single
1235 HVF 0211414 13/09/2014 2014-09-26 12:00 2014-09-26 15:00 CLAMP , etc.   0.00 Single
1236 HVF 0211415 13/09/2014 2014-10-06 12:00 2014-10-06 15:00 'O' SECTION CORD , etc.   0.00 Single
1237 HVF 0211416 13/09/2014 2014-10-06 12:00 2014-10-06 15:00 GASKET , etc.   0.00 Single
1238 HVF 0413248 13/09/2014 2014-10-04 12:00 2014-10-04 15:00 GASKET , etc.   0.00 Single
1239 HVF 0413249 13/09/2014 2014-09-19 12:00 2014-09-19 15:00 BEARING , etc.   0.00 Single
1240 HVF 0413250 13/09/2014 2014-10-06 12:00 2014-10-06 15:00 BUSH , etc.   0.00 Single
1241 HVF 0812556 13/09/2014 2014-10-14 12:00 2014-10-14 15:00 MULTISTAGE COOLANT PUMP,MODEL:RKM-0620, , etc.   0.00 Single
1242 HVF 0812557 13/09/2014 2014-10-21 12:00 2014-10-21 15:00 FEEDER SCREW OF SCREW CONVEYOR. , etc.   0.00 Single
1243 OFAJ FS2140096 13/09/2014 2014-09-26 14:00 2014-09-26 15:00 BR.STRIP 1.0MM (T) X 10MM (W) COIL   0.00 Single
1244 OFAJ FS2140097 13/09/2014 2014-09-26 14:00 2014-09-26 15:00 BR.STRIP 0.6MM (T) X 12MM (W) COIL   0.00 Single
1245 OFAJ IS2140229 13/09/2014 2014-09-13 14:00 2014-09-13 15:00 BORON STD SOLUTION, CHROMIUM STD.SOLUTION, COBALT STD SOLUTION, IRON STANDARD SOLUTION, LEAD STD. SOLUTION, MANGANESE STANDARD SOLUTION, MOLYBDENUM STD SOLUTION, POTASSIUM DICHROMATE MERCK., POTASSI   0.00 Single
1246 OFAJ IS2140230 13/09/2014 2014-09-13 14:00 2014-09-13 15:00 TRANS. FROM O.F.ITARSI TO OFAJ   0.00 Single
1247 OFAJ SS2140065 13/09/2014 2014-10-08 14:00 2014-10-08 15:00 C.INSERT DNMG150612 TN7015, IND.CAR.INSERT DNMG 150604 GR.GC415, INDX.C/INS.SPUN-120308-GR.P-20/4025   0.00 Single
1248 OFT D180N52374 13/09/2014 2014-10-07 14:30 2014-10-07 15:00 engine oil of bharat actuma   0.00 Single
1249 OFT D330N52375 13/09/2014 2014-10-07 14:30 2014-10-07 15:00 CASTROL ILOCUT 1253 OF CASTROL   0.00 Single
1250 OFCH 201400336 13/09/2014 2014-10-09 14:00 2014-10-09 14:30 REPARING OF AIR COMPRESSOR-SHU   0.00 Single
1251 OFCH 201400337 13/09/2014 2014-10-09 14:00 2014-10-09 14:30 LINER DRG.HEMRL/1437 DET.5 HDC   94150.00 Single
1252 FGK 340495 13/09/2014 2014-10-14 00:00 2014-10-14 00:00 BUSHING TO DRG NO.1015-000197,   0.00 Single
1253 HAPP 14/0168 13/09/2014 2014-10-09 14:00 2014-10-09 14:30 THYRISTER UNIT, 3 PHASE, 50 HZ, 75 AMPS.   0.00 Single
1254 EFA 14500121 13/09/2014 2014-09-20 00:00 2014-09-20 00:00 SPECIAL EJECTOR DRILL HEAD   0.00 Single
1255 OLF 1406010386 13/09/2014 2014-10-13 15:00 2014-10-13 15:00 PCB DOUBLE SIDED 13.5MM DIA,PCB(OLF/IND/PSU-01),PCB-SMOTP DOUBLE SIDED PTH,PRINTED CIRCUIT BOARD   0.00 Single
1256 AFK 20140465 12/09/2014 2014-10-07 14:00 2014-10-07 14:30 HYDRATED LIME POWDER   0.00 Single
1257 AFK 20140466 12/09/2014 2014-10-07 14:00 2014-10-07 14:30 DUNNAGE FOR STACKING AFK/SK-168-04   0.00 Single
1258 AFK 20140467 12/09/2014 2014-10-07 14:00 2014-10-07 14:30 EAR MUFF 3M H7A   0.00 Single
1259 CFA 14PVTE0227 12/09/2014 2014-10-03 13:00 2014-10-03 14:00 PTFE LINED CS PIPES LEN=800 MMPTFE LINED CS PIPE,LEN=1500 MMPTFE LINED CS PIPES,LEN=1000MM   0.00 Single
1260 CFA 14PVTE0228 12/09/2014 2014-10-03 13:00 2014-10-03 14:00 PTFE LINED CS EQUAL TEEPTFE LINED CS PIPE,LEN=2000 MMPTFE LINED CS ELBOW 90 DEG   0.00 Single
1261 CFA 14PVTE0229 12/09/2014 2014-10-03 13:00 2014-10-03 14:00 1 HP INDUCTION MOTOR   0.00 Single
1262 GSF 1400000898 12/09/2014 2014-10-13 00:00 2014-10-13 00:00 SOLID CARBIDE GROUND ROD SIZE 15MM DIA X 330 MM LO, SOLID CARBIDE GROUND ROD SIZE 4MM DIA X 330MM LONG, SOLID CARBIDE GROUND ROD SIZE 5MM DIA X 330MM LONG, SOLID CARBIDE GROUND ROD SIZE 7MM DIA X 330   49900.00 Single
1263 HEF AD14150010 12/09/2014 2014-10-06 00:00 2014-10-06 00:00 -POLYSTRINE (THERMOCOL) 12101619790   0.00 Single
1264 HEF AD14150011 12/09/2014 2014-10-06 00:00 2014-10-06 00:00 -THERMOCOL (POLYSTRINE)12 2101619792   0.00 Single
1265 HEF AD14150012 12/09/2014 2014-10-06 00:00 2014-10-06 00:00 -THERMOCOL (POLYSTRINE)15 2101619793   0.00 Single
1266 HEF AD14150013 12/09/2014 2014-10-06 00:00 2014-10-06 00:00 -POLYSTRINE (THERMOCOL) 22101619789   0.00 Single
1267 OFKAT 2014000214 12/09/2014 2014-10-21 14:30 2014-10-21 14:30 INDUSTRIAL XRAYFILM30.5X38.1CM   0.00 Single
1268 OFK 14CST-0531 12/09/2014 2014-09-30 14:30 2014-09-30 13:00 STEEL BALL 3.5-200 IS-4398 (FZ 30MM   0.00 Single
1269 OFK 14CST-0532 12/09/2014 2014-09-12 14:30 2014-09-12 13:00 EMERSON REFRIG.COMP.MODEL.CR-72KQM   0.00 Single
1270 OCFC 2014LTE289 12/09/2014 2014-10-07 00:00 2014-10-07 00:00 ,PLUG SHRG20P4ESH8 ,PLUG FEMALE SHR32P10ESH1 ,PLUG FEMALE SSHR32P10ESH4 ,PLUG FEMALE SHR40P16ESH2   10170.00 Single
1271 OCFC 2014LTE290 12/09/2014 2014-10-07 00:00 2014-10-07 00:00 ,PLUG SHRG20P4ESH8 ,PLUG FEMALE SHR32P10ESH1 ,PLUG FEMALE SSHR32P10ESH4 ,PLUG FEMALE SHR40P16ESH2   0.00 Single
1272 OCFC 2014LTE291 12/09/2014 2014-10-09 00:00 2014-10-09 00:00 ,PLUG SHRG20P4ESH8 ,PLUG FEMALE SHR32P10ESH1 ,PLUG FEMALE SSHR32P10ESH4 ,PLUG FEMALE SHR40P16ESH2   0.00 Single
1273 OCFC 2014LTE292 12/09/2014 2014-10-11 00:00 2014-10-11 00:00 ,PLUG SHRG20P4ESH8 ,PLUG FEMALE SHR32P10ESH1 ,PLUG FEMALE SSHR32P10ESH4 ,PLUG FEMALE SHR40P16ESH2   0.00 Single
1274 OCFC 2014LTE293 12/09/2014 2014-10-11 00:00 2014-10-11 00:00 ,PLUG SHRG20P4ESH8 ,PLUG FEMALE SHR32P10ESH1 ,PLUG FEMALE SSHR32P10ESH4 ,PLUG FEMALE SHR40P16ESH2   0.00 Single
1275 OCFC 2014LTE294 12/09/2014 2014-10-11 00:00 2014-10-11 00:00 ,PLUG SHRG20P4ESH8 ,PLUG FEMALE SHR32P10ESH1 ,PLUG FEMALE SSHR32P10ESH4 ,PLUG FEMALE SHR40P16ESH2   0.00 Single
1276 OCFC 2014LTE295 12/09/2014 2014-10-09 00:00 2014-10-09 00:00 ,PLUG SHRG20P4ESH8 ,PLUG FEMALE SHR32P10ESH1 ,PLUG FEMALE SSHR32P10ESH4 ,PLUG FEMALE SHR40P16ESH2   0.00 Single
1277 OCFC 2014LTE296 12/09/2014 2014-10-11 00:00 2014-10-11 00:00 ,PLUG SHRG20P4ESH8 ,PLUG FEMALE SHR32P10ESH1 ,PLUG FEMALE SSHR32P10ESH4 ,PLUG FEMALE SHR40P16ESH2   0.00 Single
1278 OCFC 2014LTE297 12/09/2014 2014-10-09 00:00 2014-10-09 00:00 ,PLUG SHRG20P4ESH8 ,PLUG FEMALE SHR32P10ESH1 ,PLUG FEMALE SSHR32P10ESH4 ,PLUG FEMALE SHR40P16ESH2   0.00 Single
1279 OCFC 2014LTE298 12/09/2014 2014-10-07 00:00 2014-10-07 00:00 ,PLUG SHRG20P4ESH8 ,PLUG FEMALE SHR32P10ESH1 ,PLUG FEMALE SSHR32P10ESH4 ,PLUG FEMALE SHR40P16ESH2   0.00 Single
1280 OCFC 2014LTE299 12/09/2014 2014-10-07 00:00 2014-10-07 00:00 ,PLUG SHRG20P4ESH8 ,PLUG FEMALE SHR32P10ESH1 ,PLUG FEMALE SSHR32P10ESH4 ,PLUG FEMALE SHR40P16ESH2   0.00 Single
1281 HVF 0211410 12/09/2014 2014-09-26 12:00 2014-09-26 15:00 TUBE 16X2-4C , etc.   0.00 Single
1282 HVF 0211411 12/09/2014 2014-09-26 12:00 2014-09-26 15:00 SHIELD MIDDLE FRONT , etc.   0.00 Single
1283 HVF 0211413 12/09/2014 2014-09-29 12:00 2014-09-29 15:00 SHEATHING , etc.   0.00 Single
1284 HVF 0413231 12/09/2014 2014-10-08 12:00 2014-10-08 15:00 CLAMP ASSY , etc.   0.00 Single
1285 HVF 0413232 12/09/2014 2014-10-08 12:00 2014-10-08 15:00 CLAMP , etc.   0.00 Single
1286 HVF 0413233 12/09/2014 2014-10-08 12:00 2014-10-08 15:00 RING 14X20 , etc.   0.00 Single
1287 HVF 0413235 12/09/2014 2014-09-27 12:00 2014-09-27 15:00 PIPE LINES , etc.   0.00 Single
1288 HVF 0413236 12/09/2014 2014-09-27 12:00 2014-09-27 15:00 SUB ASSYS/LOOSE ITEMS(35 ITEMS) , etc.   0.00 Single
1289 HVF 0413237 12/09/2014 2014-10-03 12:00 2014-10-03 15:00 CLAMP , etc.   0.00 Single
1290 HVF 0413241 12/09/2014 2014-09-27 12:00 2014-09-27 15:00 PISTON , etc.   0.00 Single
1291 HVF 0413242 12/09/2014 2014-09-27 12:00 2014-09-27 15:00 GASKET , etc.   0.00 Single
1292 HVF 0413243 12/09/2014 2014-09-27 12:00 2014-09-27 15:00 DEFLECTOR , etc.   0.00 Single
1293 HVF 0413244 12/09/2014 2014-09-27 12:00 2014-09-27 15:00 CLAMP , etc.   0.00 Single
1294 HVF 0413246 12/09/2014 2014-10-22 12:00 2014-10-22 15:00 ELECTRO MAGNET EMT-10 (ASSEMBLY DRAWING) , etc.   0.00 Single
1295 HVF 0613316 12/09/2014 2014-10-15 12:00 2014-10-15 15:00 SLOT DRILL SOLID CARBIDE , etc.   0.00 Single
1296 OFAJ IS2140228 12/09/2014 2014-09-12 14:00 2014-09-12 15:00 SET OF CONSUMABLES FOR LECO CARBON   0.00 Single
1297 OFAJ RS2140251 12/09/2014 2014-10-07 14:00 2014-10-07 15:00 DISMENTALING OF STEAM LINE   0.00 Single
1298 OFAJ RS2140252 12/09/2014 2014-10-14 14:00 2014-10-14 15:00 POWER PACK ASCOM ENERGY SYSTEM   0.00 Single
1299 OFAJ RS2140253 12/09/2014 2014-10-14 14:00 2014-10-14 15:00 REPAIRING OF TITANIUM COOLING COIL.   0.00 Single
1300 OFAJ RS2140254 12/09/2014 2014-10-14 14:00 2014-10-14 15:00 TIRFOR   0.00 Single
1301 OFAJ RS2140255 12/09/2014 2014-10-14 14:00 2014-10-14 15:00 C.I.BUTTERFLY VALVE, SS 304 Y TYPE STRAINER (F)SIZE-1", SS 304 Y TYPE STRAINER (F)SIZE-1/2", SS 304 Y TYPE STRAINER (F)SIZE-3/4"   0.00 Single
1302 OFAJ TS2140125 12/09/2014 2014-10-01 14:00 2014-10-01 15:00 DYNAMIC BALANCE 155 MM ERFB SHELLS.   0.00 Single
1303 OFT D140L52372 12/09/2014 2014-10-07 14:30 2014-10-07 15:00 Tyre Inflator Electronic 140SN   0.00 Single
1304 OFT D21BE52369 12/09/2014 2014-10-09 14:30 2014-10-09 15:00 HEX.NUT M5   0.00 Single
1305 OFT D21BE52370 12/09/2014 2014-10-09 14:30 2014-10-09 15:00 SLOTTED CHEESE HEAD SCREW M5   0.00 Single
1306 OFT D21BE52371 12/09/2014 2014-10-09 14:30 2014-10-09 15:00 Spring Washer b-5   0.00 Single
1307 OFT D225C52373 12/09/2014 2014-09-23 14:30 2014-09-23 15:00 BOLT BREECH FORGING TEND1818*   0.00 Single
1308 OFT D550H93297 12/09/2014 2014-10-16 14:30 2014-10-16 15:00 POLYTHENE COVER 200X1400X0.25   0.00 Single
1309 OFT D550H93298 12/09/2014 2014-10-16 14:30 2014-10-16 15:00 HSS HAND TAP M 10X 1   0.00 Single
1310 OFT D550H93300 12/09/2014 2014-10-16 14:30 2014-10-16 15:00 WORK BENCH WOOD DRG TEND 793SH   0.00 Single
1311 OFT D550Q93299 12/09/2014 2014-10-16 14:30 2014-10-16 15:00 SAFETY AIR BLOW GUN (ALUMINIUM   0.00 Single
1312 OFCH 201400328 12/09/2014 2014-10-20 14:00 2014-10-20 14:30 ANGLE GRINDER DISC DIA 230MM ROTARY HAMMERDRILL MACHINE SDS DEMOLATION POWER HAMMER 30MM H   6872.00 Single
1313 OFCH 201400329 12/09/2014 2014-10-20 14:00 2014-10-20 14:30 LUBE OIL FILTER SPIN-ON TYPE 1 ASSY 240 DIA CLUTCH DISC TATA ASSY 240 DIA CLUTCH PRESSURE P ASSY CLUTCH RELEASE BEARING TA   0.00 Single
1314 OFCH 201400330 12/09/2014 2014-10-20 14:00 2014-10-20 14:30 MILD STEEL PLATE 2500 X 1200 X   8348.00 Single
1315 OFCH 201400331 12/09/2014 2014-10-27 14:00 2014-10-27 14:30 DE SPANNER SET 6 TO 32 MM 12 P VICE BENCH 125 MM VICE BENCH 150 MM PIPE VICE NO. 1 HOLDING 5 TO 1   0.00 Single
1316 OFCH 201400332 12/09/2014 2014-10-27 14:00 2014-10-27 14:30 FAST PENTRATING OIL 500ML BEARING RETAINER C-660 50ML M SEAL STEEL EPOXY PULLY (114 LIQUID GASKET CYCLO PEDISEAL 3 PIPE LEAK ARRESTOR KIT SIZE-2" THREAD LOCKER C243(250ML)   0.00 Single
1317 OFCH 201400335 12/09/2014 2014-10-16 14:00 2014-10-16 14:30 ROD NON DEFORTING STEEL 225MM ROD NUM-DEFORMING STEEL 40 MM ROD NON DEFROMING STEEL 90 MM ROD NON DEFROMING STEEL 150 M   6270.00 Single
1318 FGK 340480 12/09/2014 2014-09-16 00:00 2014-09-16 00:00 DISPLAY SHOWCASE WOODEN SIZE:6,   0.00 Single
1319 FGK 340481 12/09/2014 2014-10-09 00:00 2014-10-09 00:00 i)DIN 50 GRAFLEX ASRBORSEM3471,   0.00 Single
1320 FGK 340482 12/09/2014 2014-10-09 00:00 2014-10-09 00:00 i)DIN 50 GRFLEX ARBORSEM347140,   0.00 Single
1321 FGK 340483 12/09/2014 2015-01-27 00:00 2015-01-27 00:00 i) SHELL MILL HOLDER STEADYLIN,   0.00 Single
1322 FGK 340484 12/09/2014 2014-10-09 00:00 2014-10-09 00:00 i) DIN 50 ADB SIDE LOCK HOLDER,   0.00 Single
1323 FGK 340485 12/09/2014 2014-10-09 00:00 2014-10-09 00:00 i) DIN 50ADB ER COLLET CHUCK E,   0.00 Single
1324 FGK 340486 12/09/2014 2014-10-09 00:00 2014-10-09 00:00 i) DIN 50 ADB ER COLLET CHUCK,   0.00 Single
1325 FGK 340487 12/09/2014 2014-12-02 00:00 2014-12-02 00:00 ALUMINIUM OXIDE METAL CLOTH (E,   0.00 Single
1326 FGK 340488 12/09/2014 2014-12-23 00:00 2014-12-23 00:00 BREAK SHOE LINER SIZE- WIDTH 9,   0.00 Single
1327 FGK 340489 12/09/2014 2014-12-04 00:00 2014-12-04 00:00 CARBIDE TIPPED CUTTER 20MM DIA,   0.00 Single
1328 FGK 340490 12/09/2014 2014-10-30 00:00 2014-10-30 00:00 PRECISION BALL BEARING SINGLE,   0.00 Single
1329 FGK 340491 12/09/2014 2014-12-23 00:00 2014-12-23 00:00 CHEVRON COLLER/THRUST RING/CAR,   0.00 Single
1330 FGK 340492 12/09/2014 2014-12-16 00:00 2014-12-16 00:00 SUPER PRECISION CAM FOLLOWER K,   0.00 Single
1331 FGK 340493 12/09/2014 2014-12-23 00:00 2014-12-23 00:00 VALVE glove type gun matel,wor,   0.00 Single
1332 FGK 340494 12/09/2014 2014-12-02 00:00 2014-12-02 00:00 GRINDING WHEEL THICKNESS 5MM,,   0.00 Single
1333 OFPM C410214 12/09/2014 2014-10-14 14:00 2014-10-14 15:00 ENAMEL SIGNAL RED TO COLOUR SHADE   0.00 Single
1334 OFPM C410314 12/09/2014 2014-10-14 14:00 2014-10-14 15:00 SILICON COMPOUND PASTE OF 50/100 GRAMS T   0.00 Single
1335 OFPM C410414 12/09/2014 2014-10-14 14:00 2014-10-14 15:00 ALUMINIUM PUTTY (METAL SET-A1)   0.00 Single
1336 OFPM S409814 12/09/2014 2015-03-31 14:00 2015-03-31 15:00 ATC HYD. CYLINDER WITH MAGNO SENSORS ATC HYD. CYLINDER WITH MAGNO SENSORS SET OF OIL SEALS FOR PRAGA HMC ATC PINION SHAFT 714 5F 04 ATC TIE RODS FOR H50A ETC.   0.00 Single
1337 OFPM S409914 12/09/2014 2015-02-24 14:00 2015-02-24 15:00 BREAK STEM KIT TO PART NO.A2085 M4 STY D5R L100EWL85D4 RMP60/OMP60 BATTERY CASSETTE   0.00 Single
1338 OFPM S410014 12/09/2014 2014-12-23 14:00 2014-12-23 15:00 HSD CUTTING NOZZLE 10-20MM SPARES FOR WHITNEY PLASMA CUTTING M/C AHSD-S 100-200 "7 BAR" CUTTING NOZZLE   0.00 Single
1339 OFPM S410114 12/09/2014 2014-10-14 14:00 2014-10-14 15:00 DOUBLE CLUTCH ASSEMBLY SUITABLE   0.00 Single
1340 OFPM S410214 12/09/2014 2014-11-11 14:00 2014-11-11 15:00 SELF ALIGNMENT ROLLER BEARING SELF ALIGNMENT ROLLER BEARING   0.00 Single
1341 OFPM S410314 12/09/2014 2014-10-14 14:00 2014-10-14 15:00 MUSHROOM VALVE   0.00 Single
1342 EFA 14750020 12/09/2014 2014-09-30 00:00 2014-09-30 00:00 SERVICING OF 'X','Y' AND 'W' AXIS   0.00 Single
1343 OLF 1406010375 12/09/2014 2014-09-26 15:00 2014-09-26 15:00 COVER CASTING,DIE/TOOLING COVER DC/581,BRACKET CASTING,DIE/TOOLING BRACKET   100727.00 Single
1344 OLF 1406010376 12/09/2014 2014-09-26 15:00 2014-09-26 15:00 CASTING FOR BOTTOM PLATE/HOUSI,DIE/TOOLING FOR BOTTOM PLATE,DIE/TOOLING BODY CASTING,BODY CASTING   123010.00 Single
1345 OLF 1406010377 12/09/2014 2014-09-26 15:00 2014-09-26 15:00 CASTING FOR BODY SC/510204/538   213494.00 Single
1346 OLF 1406010378 12/09/2014 2014-09-26 15:00 2014-09-26 15:00 BODY CASTING SC/510203/508   47193.00 Single
1347 OLF 1406010379 12/09/2014 2015-09-26 15:00 2015-09-26 15:00 GUIDE CASTING,GUIDE CASTING   74067.00 Single
1348 OLF 1406010380 12/09/2014 2014-09-29 15:00 2014-09-29 15:00 DIE/TOOLING BODY,BODY CASTING,DIE/TOOLING MOUNT,MOUNT CASTING   95719.00 Single
1349 OLF 1406010381 12/09/2014 2014-09-29 15:00 2014-09-29 15:00 INVESTMENT CASTING,SLIDE BLOCK,INVESTMENT CASTING BEARING,JOURNAL,CASTING FOR BODY   58303.00 Single
1350 OLF 1406010382 12/09/2014 2014-09-29 15:00 2014-09-29 15:00 DIE CASTING BODY,PRESSURE DIE CASTING BODY,PRESSURE DIE CASTING HOLDER,PRESSURE DIE CASTING HOLDER,BODY CASTING   41238.00 Single
1351 OLF 1406010383 12/09/2014 2014-09-29 15:00 2014-09-29 15:00 BRACKET CASTING,CASING CASTING,CASING CASTING,LEVER CASTING,HANDLE CASTING   63651.00 Single
1352 OLF 1406010384 12/09/2014 2014-09-29 15:00 2014-09-29 15:00 MACHINING OF BODY OLF/MISC/676,MACHINING OF BEARING SLEEVE,COMPLETE M/C OF PANEL DC/534   232081.00 Single
1353 OLF 1406010385 12/09/2014 2014-10-06 15:00 2014-10-06 15:00 SEALANT YT-32   18000.00 Single
1354 OLF 1407010374 12/09/2014 2014-10-17 15:00 2014-10-17 15:00 COMPREHENSIVE ANNUAL MAINTENAN   0.00 Single
1355 AFK 20140460 11/09/2014 2014-10-07 14:00 2014-10-07 14:30 NETWORK MANAGEMENT SOFTWARE   8400.00 Single
1356 AFK 20140461 11/09/2014 2014-10-07 14:00 2014-10-07 14:30 ROLL RING DRIVE UNIT   18100.00 Single
1357 AFK 20140462 11/09/2014 2014-10-07 14:00 2014-10-07 14:30 OPARATOR CONSOLE (HMI)   0.00 Single
1358 AFK 20140463 11/09/2014 2014-10-07 14:00 2014-10-07 14:30 SIMATIC DP MODULE   0.00 Single
1359 AFK 20140464 11/09/2014 2014-10-17 14:00 2014-10-17 14:30 BRASS STRIP 75MM WIDE X 0.30MM THIK   0.00 Single
1360 MSF 14TE210404 11/09/2014 2014-10-17 14:30 2014-10-17 14:30 HEAVY DUTY ALLOY STEEL GRADE-80 etc.   Single
1361 MSF 14TE210405 11/09/2014 2014-10-17 14:30 2014-10-17 14:30 TURBINE TYPE FLOW METER etc.   Single
1362 MSF 14TE210406 11/09/2014 2014-10-17 14:30 2014-10-17 14:30 TURBINE TYPE FLOW METER etc.   Single
1363 MSF 14TE220407 11/09/2014 2014-10-15 14:30 2014-10-15 14:30 AIR BREAK CONTACTOR,200 AMP,415V. etc.   8000.00 Single
1364 MSF 14TE220408 11/09/2014 2014-10-15 14:30 2014-10-15 14:30 SIMODRIVE 611 DIGITAL CONTROL LOOP etc.   6800.00 Single
1365 MSF 14TE220409 11/09/2014 2014-10-17 14:30 2014-10-17 14:30 MINI HAND HELD UNIT FOR SINUMERIK etc.   Single
1366 CFA 14PVTE0226 11/09/2014 2014-09-26 13:00 2014-09-26 14:00 BARIUM NITRATE GR.I SIZE 120   0.00 Single
1367 GSF 1400000882 11/09/2014 2014-09-22 00:00 2014-09-22 00:00 GASKET TO DRG NO AK-630 106-14 IN F/C., GASKET TO DRG.NO.AK-630 106-17 IN F/C.,   0.00 Single
1368 GSF 1400000883 11/09/2014 2014-09-22 00:00 2014-09-22 00:00 SCREW. M4-6GX8.33H.40CR.026 , GOST: 1476-93, BOLT. 3M8-8GX25.109.40CR.029, GOST:7798-70, NUT. M8-8G.10.40X029. GOST:5918-73.,   0.00 Single
1369 GSF 1400000884 11/09/2014 2014-09-22 00:00 2014-09-22 00:00 Bolt to specn.2M8-8G X 30.109.40 X.029 ., Pin to Drg.No.Ak-630 111-43 in F/C.,   0.00 Single
1370 GSF 1400000885 11/09/2014 2014-09-22 00:00 2014-09-22 00:00 GASKET TO DRG NO AK-630 106-16 IN F/C.,   0.00 Single
1371 GSF 1400000886 11/09/2014 2014-09-22 00:00 2014-09-22 00:00 GASKET.111-4, GASKET.111-4-01, GASKET.111-4-02, GASKET. AK-630. 111-31, BUFFER TO DRG NO AK-630 106-20 IN F/C.,   0.00 Single
1372 GSF 1400000887 11/09/2014 2014-09-22 00:00 2014-09-22 00:00 GASKET.AK-630.111-34, GASKET AS PER DRG.NO.AK-630-111-37.GOST-7338-90, GASKET AS PER DRG.NO.AK-630-111-40 GOST-7338-90, GASKET AS PER DRG.NO.AK-630.111.57 B-14.HTF,   0.00 Single
1373 GSF 1400000888 11/09/2014 2014-09-25 00:00 2014-09-25 00:00 LEVER. DRG.NO.AK-630 106-2, CYLINDER. DRG.NO.AK-630 106-12, LEVER. DRG.NO.AK-630 106-7,   0.00 Single
1374 GSF 1400000889 11/09/2014 2014-09-25 00:00 2014-09-25 00:00 CASTING FOR BODY (COMP DRG NO AK-630 120-8),   0.00 Single
1375 GSF 1400000890 11/09/2014 2014-09-25 00:00 2014-09-25 00:00 SPRING TO DRG NO AK-630 106-4 IN F/C., SPRING TO DRG NO AK-630 106-21 IN F/C .,   0.00 Single
1376 GSF 1400000891 11/09/2014 2014-09-25 00:00 2014-09-25 00:00 SPRING TO DRG.NO.AK-630 102-66 IN F/C., SPRING TO DRG.NO.AK-630 101-8 IN F/C.,   0.00 Single
1377 GSF 1400000892 11/09/2014 2014-09-25 00:00 2014-09-25 00:00 ARMOURED HOSE WIRE/SPRING TO DRG.NO.AK-630 111-42,   0.00 Single
1378 GSF 1400000893 11/09/2014 2014-09-25 00:00 2014-09-25 00:00 REFLECTOR. AK-630 111-301,   0.00 Single
1379 GSF 1400000894 11/09/2014 2014-09-25 00:00 2014-09-25 00:00 STEEL ROD 70 MM DIA TO SPECN 30KhRA OF OST 3-98-80,   0.00 Single
1380 GSF 1400000895 11/09/2014 2014-09-25 00:00 2014-09-25 00:00 BALL 15,875-YUOYU(REQ.FOR DRG.NO.AK-630 SB 119)IN,   0.00 Single
1381 GSF 1400000896 11/09/2014 2014-10-13 00:00 2014-10-13 00:00 IMPACT PROTECTOR MUZZLE TO DRG.NO.304063075(MODIFD,   0.00 Single
1382 OCFS 2014000227 11/09/2014 2014-09-23 14:30 2014-09-23 15:00 SPRG TY.CYLINDRICAL P.STOPPER BLACK   0.00 Single
1383 OCFS 2014000228 11/09/2014 2014-09-23 14:30 2014-09-23 15:00 SPRG TY.CYLINDRICAL P.STOPPER BLACK   0.00 Single
1384 OFA B4TE130424 11/09/2014 2014-10-07 14:30 2014-10-07 15:00 ,FILTERING HALF MASK FFPI IS:9473 etc.   0.00 Single
1385 OFKAT 2014000213 11/09/2014 2014-10-21 14:30 2014-10-21 14:30 IDENTIFIATION FLAG 130MMX90MM   0.00 Single
1386 OFK 14CST-0528 11/09/2014 2014-10-07 14:30 2014-10-07 13:00 KUBLER INCREMENTAL ENCODER 10X20 SH   0.00 Single
1387 OFK 14CST-0529 11/09/2014 2014-09-16 14:30 2014-09-16 13:00 GAS LIQUIFIED PETROLIUM (LPG)   0.00 Single
1388 OFK 14CST-0530 11/09/2014 2014-09-12 14:30 2014-09-12 13:00 INSERT CNMG 120408-PM4025,INSERT DNMG 150608 MCTT-5110,INSERT VCMT-160404-S M IC 907. etc.   0.00 Single
1389 SAF 3143000695 11/09/2014 2014-09-30 14:30 2014-09-30 15:00 DIAMOND STONE FOR FINISH HONIN,   0.00 Single
1390 OFBA 140425 11/09/2014 2014-10-21 14:30 2014-10-21 14:30 BAGS WATER PROOF   0.00 Single
1391 OFBA 140426 11/09/2014 2014-10-21 14:30 2014-10-21 14:30 MULTIPLE GEAR PUMP OF POWER PA   0.00 Single
1392 OFBA 140427 11/09/2014 2014-10-21 14:30 2014-10-21 14:30 I TO P CONVERTOR 6109   7900.00 Single
1393 OFBA 140428 11/09/2014 2014-10-14 14:30 2014-10-14 14:30 READY MIXED PAINT WHITE   0.00 Single
1394 OCFC 2014LTE287 11/09/2014 2014-10-09 00:00 2014-10-09 00:00 ,PLUG SHRG20P4ESH8 ,PLUG FEMALE SHR32P10ESH1 ,PLUG FEMALE SSHR32P10ESH4 ,PLUG FEMALE SHR40P16ESH2   0.00 Single
1395 OCFC 2014LTE288 11/09/2014 2014-10-07 00:00 2014-10-07 00:00 ,PLUG SHRG20P4ESH8 ,PLUG FEMALE SHR32P10ESH1 ,PLUG FEMALE SSHR32P10ESH4 ,PLUG FEMALE SHR40P16ESH2   0.00 Single
1396 HVF 0211408 11/09/2014 2014-09-29 12:00 2014-09-29 15:00 SCREW , etc.   0.00 Single
1397 HVF 0211409 11/09/2014 2014-09-25 12:00 2014-09-25 15:00 BOLT , etc.   0.00 Single
1398 HVF 0413224 11/09/2014 2014-10-01 12:00 2014-10-01 15:00 GASKET , etc.   0.00 Single
1399 HVF 0413225 11/09/2014 2014-10-01 12:00 2014-10-01 15:00 BUSHING , etc.   0.00 Single
1400 HVF 0413226 11/09/2014 2014-09-25 12:00 2014-09-25 15:00 RAMMER CHAIN , etc.   0.00 Single
1401 HVF 0413227 11/09/2014 2014-10-03 12:00 2014-10-03 15:00 ROD , etc.   0.00 Single
1402 HVF 0413228 11/09/2014 2014-10-03 12:00 2014-10-03 15:00 WIRE ROPE , etc.   0.00 Single
1403 HVF 0413229 11/09/2014 2014-10-03 12:00 2014-10-03 15:00 CREW SEATS IN TURRET , etc.   0.00 Single
1404 HVF 0613314 11/09/2014 2014-10-01 12:00 2014-10-01 15:00 INSERT FOR TURNING , etc.   0.00 Single
1405 HVF 0613315 11/09/2014 2014-10-01 12:00 2014-10-01 15:00 TOOLING PACKAGE OF BT50 HYDROGRIP CHUCKS , etc.   0.00 Single
1406 HVF 0701958 11/09/2014 2014-09-30 12:00 2014-09-30 15:00 BLANK SIZE FOR RING RACE LOWER , etc.   0.00 Single
1407 OFV 20140241 11/09/2014 2014-10-21 14:30 2014-10-21 15:00 MAIN OIL FILTER,   21546.08 Single
1408 OFV 20140242 11/09/2014 2014-09-30 14:30 2014-09-30 15:00 EXTERIOR EMULSION PAINT,   438750.00 Single
1409 OFAJ IS2140227 11/09/2014 2014-10-01 14:00 2014-10-01 15:00 APPRON COTTON BLUE   0.00 Single
1410 OFAJ NS2140020 11/09/2014 2014-10-04 14:00 2014-10-04 15:00 JOINT BAND DRG NO.1371A   0.00 Single
1411 OFAJ SS2140064 11/09/2014 2014-10-01 14:00 2014-10-01 15:00 STEEL ROUND SS/B-27 JSS:9510-01 160   0.00 Single
1412 OFAJ TS2140124 11/09/2014 2014-10-08 14:00 2014-10-08 15:00 FST-1075 CENTRE DRILL, HSS HAND TAP FINAL TAP M1.8 X0.35 P, TAP FS/T-950   0.00 Single
1413 OFT D360R93293 11/09/2014 2014-09-30 14:30 2014-09-30 15:00 POTATO PEELER CAPACITY 07 TO   0.00 Single
1414 OFT D360R93294 11/09/2014 2014-09-30 14:30 2014-09-30 15:00 VEGETABLE CUTTING MACHINE   0.00 Single
1415 OFT D550H93295 11/09/2014 2014-10-14 14:30 2014-10-14 15:00 wheels grinding alu.oxide180x1   0.00 Single
1416 OFT D550H93296 11/09/2014 2014-10-14 14:30 2014-10-14 15:00 POLYTHENE COVER 350X2000X0.25   0.00 Single
1417 OFCH 201400334 11/09/2014 2014-10-06 14:00 2014-10-06 14:30 FOIL LEAD TIN 63X570X 0.051MM   43805.00 Single
1418 OEFHZ 20140058 11/09/2014 2014-10-07 00:00 2014-10-07 00:00 SINGLE PT.PAPER 25.5X30.5 CM.80 GSM   0.00 Single
1419 FGK 340473 11/09/2014 2014-10-09 00:00 2014-10-09 00:00 i) DIN 50 ADB HYDRALULIC CHUCK,   0.00 Single
1420 FGK 340474 11/09/2014 2014-10-09 00:00 2014-10-09 00:00 i)DIN 50 GRAFLEX ARBORS EM3471,   0.00 Single
1421 FGK 340475 11/09/2014 2014-10-09 00:00 2014-10-09 00:00 i)DIN 50 GRFLEX ARBORS EM34714,   0.00 Single
1422 FGK 340476 11/09/2014 2014-10-09 00:00 2014-10-09 00:00 i)DIN 50GRAFLEX ARBORS EM34714,   0.00 Single
1423 FGK 340478 11/09/2014 2014-11-26 00:00 2014-11-26 00:00 i) SHELL MILL HOLDER WITH THRO,   0.00 Single
1424 FGK 340479 11/09/2014 2014-11-26 00:00 2014-11-26 00:00 i) SHELL MILL HOLDER WITH THRO,   0.00 Single
1425 OFPM A404014 11/09/2014 2014-09-30 14:00 2014-09-30 15:00 PAINTING OF PINAKA PODS WITH PU PAINT   0.00 Single
1426 OFPM C410114 11/09/2014 2015-01-27 14:00 2015-01-27 15:00 OXYGEN GAS   0.00 Single
1427 OFPM V411914 11/09/2014 2014-10-18 14:00 2014-10-18 15:00 DOME LIGHT LED VERSION   0.00 Single
1428 EFA 14100526 11/09/2014 2014-10-10 00:00 2014-10-10 00:00 ELBOW RH   0.00 Single
1429 EFA 14100527 11/09/2014 2014-09-26 00:00 2014-09-26 00:00 DISTANCE BUSHING; DISTANCE BUSHING;   0.00 Single
1430 OLF 1406010371 11/09/2014 2014-10-13 15:00 2014-10-13 15:00 BORING TOOL ISO 9R 1212 P30,TOOL PARTING ISO 7R 1208 P30   0.00 Single
1431 OLF 1406010372 11/09/2014 2014-10-13 15:00 2014-10-13 15:00 HAND TAP HSS M 1.6X0.35 MM   0.00 Single
1432 OLF 1406010373 11/09/2014 2014-10-13 15:00 2014-10-13 15:00 INSERT TPUN 160308 THM   0.00 Single
1433 AFK 20140456 10/09/2014 2014-09-30 14:00 2014-09-30 14:30 HEAD FOR DET A/C BOMB 56 MK2   0.00 Single
1434 AFK 20140457 10/09/2014 2014-09-30 14:00 2014-09-30 14:30 SQUIB PLUG BRIDGED FOR IGNITER   0.00 Single
1435 AFK 20140458 10/09/2014 2014-09-30 14:00 2014-09-30 14:30 DETONATOR PLUG FOR BOMB NO.56 MK2   0.00 Single
1436 AFK 20140459 10/09/2014 2014-09-30 14:00 2014-09-30 14:30 SRCR - DUMMY   0.00 Single
1437 OEFC 20140328 10/09/2014 2014-09-26 13:30 2014-09-26 14:00 DRILL TWIST PARALLEL SHANK HSS SIZE 4.20MM , TWIST DRILL OF 5.4 MM DIA. , ,   0.00 Single
1438 OEFC 20140329 10/09/2014 2014-09-22 13:30 2014-09-22 14:00 S.M. WIRE BRIGHT DRAWN HARD 4.00MM DIA , S.M. WIRE BRIGHT DRAWN HALF HARD 4MM DIA , ,   0.00 Single
1439 OEFC 20140330 10/09/2014 2014-09-10 13:30 2014-09-10 14:00 SMF BATTERY 12 VOLT - 26 AH (MAKE-EXIDE,CSB,QUANTA,PANASONIC,OKAYA,ORCHIDE)   0.00 Single
1440 MSF 14TE210403 10/09/2014 2014-10-17 14:30 2014-10-17 14:30 C.R.ST.SHT.1MMX20-1/8"X9-3/16"DD GR etc.   19583.00 Single
1441 GSF 1400000872 10/09/2014 2014-10-13 00:00 2014-10-13 00:00 MILLING INSERT TO ISO NO:TPAN 2204 PDR GR.P 40.,   0.00 Single
1442 GSF 1400000873 10/09/2014 2014-10-13 00:00 2014-10-13 00:00 WIRE COPPER SUPER ENAMELLED 16 SWG., WIRE COPPER SUPER ENAMELLED 25 SWG, WIRE COPPER SUPER ENAMELLED 28 SWG,   0.00 Single
1443 GSF 1400000874 10/09/2014 2014-10-13 00:00 2014-10-13 00:00 2 FLUTE END MILL CUTTER MICRO GRAIN SOLID CARBIDE,   0.00 Single
1444 GSF 1400000875 10/09/2014 2014-10-13 00:00 2014-10-13 00:00 MCB BOX DOUBLE POLE WITH 'D'CHANNEL & NEUTRAL LINK, MCB BOX TRIPPLE POLE WITH 'D' CHANNEL & NEUTRAL,   0.00 Single
1445 GSF 1400000876 10/09/2014 2014-10-13 00:00 2014-10-13 00:00 TELEPHONE CABLE,COPPER CONDUCTOR SIZE- 0.5MM.,   0.00 Single
1446 GSF 1400000877 10/09/2014 2014-10-13 00:00 2014-10-13 00:00 SOLID CARBIDE TWIST DRILL 3.65 MM DIA X 20 MM FL.L,   0.00 Single
1447 OPF 110140350 10/09/2014 2014-09-23 14:00 2014-09-23 14:30 (1) CFS-1 ATTENDENCE REGISTER (2) PRINTED REGISTER 500 PAGES -ISO9002 (3) REGISTER 200 PAGES   0.00 Single
1448 OFA B4TE120419 10/09/2014 2014-10-10 14:30 2014-10-10 15:00 ,4 STEP CAM CONTROLLER,AL.CAST BODY. etc.   0.00 Single
1449 OFA B4TE120420 10/09/2014 2014-10-10 14:30 2014-10-10 15:00 ,FIBROTHAL PANEL SIZE 928L*495W*125T etc.   0.00 Single
1450 OFA B4TE120421 10/09/2014 2014-10-10 14:30 2014-10-10 15:00 ,HRC FUSE BASE 630AMP,415V, DMC etc.   0.00 Single
1451 OFA B4TE120422 10/09/2014 2014-10-10 14:30 2014-10-10 15:00 ,MACHINE LAMP FITTING LED 3 WATT etc.   0.00 Single
1452 OFA B4TE120423 10/09/2014 2014-10-10 14:30 2014-10-10 15:00 ,THYRISTOR SKT 300/16 STUD TYPE OF etc.   0.00 Single
1453 OFKAT 2014000212 10/09/2014 2014-09-10 14:30 2014-09-10 14:30 OIL CIR.& HYD."SERVOSYSTEM 100   0.00 Single
1454 OFK 14CST-0522 10/09/2014 2014-09-30 14:30 2014-09-30 13:00 SILVER CYANIDE 99.99% PURE   0.00 Single
1455 OFK 14CST-0523 10/09/2014 2014-09-23 14:30 2014-09-23 13:00 HELICAL DRILL(1.35MM)DRG.KHT-110210   0.00 Single
1456 OFK 14CST-0524 10/09/2014 2014-09-30 14:30 2014-09-30 13:00 MILL BOARD 800 X 550 X 2.5MM THIC   0.00 Single
1457 OFK 14CST-0525 10/09/2014 2014-09-30 14:30 2014-09-30 13:00 BOX C-235(STEEL) FOR BOMB 25 LBS   0.00 Single
1458 OFK 14CST-0527 10/09/2014 2014-10-07 14:30 2014-10-07 13:00 STEEL ROD 3.125MM IS:4431 14C14S14   0.00 Single
1459 OFBA 145075 10/09/2014 2014-10-07 14:30 2014-10-07 14:30 BAG HMHDPE JSS-9330-03-1995.   40000.00 Single
1460 OCFC 2014LTE283 10/09/2014 2014-09-25 00:00 2014-09-25 00:00 ,PLUG SHRG20P4ESH8 ,PLUG FEMALE SHR32P10ESH1 ,PLUG FEMALE SSHR32P10ESH4 ,PLUG FEMALE SHR40P16ESH2   0.00 Single
1461 OCFC 2014LTE284 10/09/2014 2014-09-19 00:00 2014-09-19 00:00 ,PLUG SHRG20P4ESH8 ,PLUG FEMALE SHR32P10ESH1 ,PLUG FEMALE SSHR32P10ESH4 ,PLUG FEMALE SHR40P16ESH2   0.00 Single
1462 OFDC 140345M3LT 10/09/2014 2014-09-30 00:00 2014-09-30 14:30 HYDROCHLORIC ACID.IS 265/1962   0.00 Single
1463 OFDC 140346M2LT 10/09/2014 2014-09-26 00:00 2014-09-26 14:30 SUPPLY AND INSTALLATION OF   0.00 Single
1464 OFDC 140347M2LT 10/09/2014 2014-09-26 00:00 2014-09-26 14:30 SUPPLY & FIXING OF PRESSURE   0.00 Single
1465 HVF 0211403 10/09/2014 2014-09-23 12:00 2014-09-23 15:00 SHIM , etc.   0.00 Single
1466 HVF 0211404 10/09/2014 2014-09-24 12:00 2014-09-24 15:00 GASKET , etc.   0.00 Single
1467 HVF 0211405 10/09/2014 2014-09-23 12:00 2014-09-23 15:00 WASHER , etc.   0.00 Single
1468 HVF 0211407 10/09/2014 2014-09-24 12:00 2014-09-24 15:00 HOSE 2T12-15 , etc.   0.00 Single
1469 HVF 0413218 10/09/2014 2014-10-01 12:00 2014-10-01 15:00 RING , etc.   0.00 Single
1470 HVF 0413219 10/09/2014 2014-10-02 12:00 2014-10-02 15:00 BRACKET , etc.   0.00 Single
1471 HVF 0413220 10/09/2014 2014-10-02 12:00 2014-10-02 15:00 BOSS , etc.   0.00 Single
1472 HVF 0413221 10/09/2014 2014-09-30 12:00 2014-09-30 15:00 CALIBRATION WRENCH BRACKET ASSEMBLY , etc.   0.00 Single
1473 OFAJ FS2140094 10/09/2014 2014-10-13 14:00 2014-10-13 15:00 SAFETY SLEEVE DIA 6 DRG.NO.FS-2889E   0.00 Single
1474 OFAJ FS2140095 10/09/2014 2014-09-19 14:00 2014-09-19 15:00 CAP I-1 TO OFAJ DRG. NO. FS-2497A.   0.00 Single
1475 OFAJ IS2140226 10/09/2014 2014-10-01 14:00 2014-10-01 15:00 PROCESS IMPROVEMENT OF 130 MM SHELL   0.00 Single
1476 OFT D22UH52368 10/09/2014 2014-09-30 14:30 2014-09-30 15:00 ER TOP CLAMPING NUT TO ISCAR   0.00 Single
1477 OFCH 201400333 10/09/2014 2014-10-16 14:00 2014-10-16 14:30 STAMPING LETTER NUMERICAL 0 TO STAMPING LETTER ALPHABATE 'OC' STAMPING LETTER ALPHABATE - (G STAMPING LETTER ALPHABATE / OB   8009.00 Single
1478 OEFHZ 20140055 10/09/2014 2014-09-19 00:00 2014-09-19 00:00 NICKEL COATED SNAP FASTENER (FOUR PIECES) SPRING   0.00 Single
1479 OEFHZ 20140056 10/09/2014 2014-09-19 00:00 2014-09-19 00:00 TIMBER CHIR BATTON 30X90X1450   3.00 Single
1480 OEFHZ 20140057 10/09/2014 2014-09-19 00:00 2014-09-19 00:00 NAPHTHALENE BALLS   3.00 Single
1481 FGK 340465 10/09/2014 2014-10-09 00:00 2014-10-09 00:00 TONER CARTRIDGE FOR LASER,TONER CARTRIDGE FOR LASER,   0.00 Single
1482 FGK 340466 10/09/2014 2014-10-21 00:00 2014-10-21 00:00 OVERHAULING/CLEANING OF OIL TA,   0.00 Single
1483 FGK 340467 10/09/2014 2014-10-07 00:00 2014-10-07 00:00 i) DIN 50 ADB ER COLLET CHUCK,   0.00 Single
1484 FGK 340469 10/09/2014 2014-10-16 00:00 2014-10-16 00:00 WELDING ELECTRODE EUTECTRODE 6,   0.00 Single
1485 FGK 340470 10/09/2014 2014-10-07 00:00 2014-10-07 00:00 i)DIN 50 GRAFLEX ARBORS EM3471,   0.00 Single
1486 FGK 340471 10/09/2014 2014-10-07 00:00 2014-10-07 00:00 i)DIN 50 GRAFLEX ARBORS EM3471,   0.00 Single
1487 FGK 340472 10/09/2014 2014-10-07 00:00 2014-10-07 00:00 i)DIN 50 GRAFLEX ARBORSEM34714,   0.00 Single
1488 OFPM B405214 10/09/2014 2014-10-07 14:00 2014-10-07 15:00 L & T MAKE SWITCH FUSE IN S.S ENCLOSURE HRC CYLINDRICAL FUSE LINKS, 32AMPS, 415V   0.00 Single
1489 OFPM C410014 10/09/2014 2014-11-25 14:00 2014-11-25 15:00 SERVO CUT - 151 (NEAT CUTTING OIL) SOLUBLE CUTTING OIL SERVO SYSTEM 68 [ENKLO 68 ] SERVO SYSTEM 32 [ENKLO-32]   Single
1490 OFPM R404514 10/09/2014 2014-10-10 14:00 2014-10-10 15:00 BLANK OF UPPER RING DRGNO:AK-630/SK/119- BLANK OF LOWER RING DRG:AK-630/SK/119-1 BLANK OF INTERNAL RING DRG:AK-630-119-25   0.00 Single
1491 OFPM R404614 10/09/2014 2015-01-24 14:00 2015-01-24 15:00 ST SH 1.5X1250X2500MM GR-DD IS:1079-88   0.00 Single
1492 OFPM R404714 10/09/2014 2014-12-19 14:00 2014-12-19 15:00 STEEL SHEET 4X4000MM GR:Fe410 IS:1079-88   0.00 Single
1493 OFPM S409614 10/09/2014 2014-09-20 14:00 2014-09-20 15:00 FRONT PANEL 40/55I-M-K, MAKE:FAGOR CPU 80551 PLUS, MAKE:FAGOR   0.00 Single
1494 OFPM S409714 10/09/2014 2014-09-23 14:00 2014-09-23 15:00 WHEEL SPINDLE, STOCK NO.A945700D BEARING BUSH, STOCK NO.B996803A   0.00 Single
1495 OFPM T414314 10/09/2014 2014-10-14 14:00 2014-10-14 15:00 HAND TAP SET M10X1.0MM. HSS HAND TAP SET M6X1,MAKE:TOLEIN.   0.00 Single
1496 OFPM T414414 10/09/2014 2014-10-14 14:00 2014-10-14 15:00 HSS T/S DRILL DIA: 3.20X36X120 MM. M35 (HSS) T/S SLOT DRILL DIA:19MM )   0.00 Single
1497 OFPM T414514 10/09/2014 2014-10-14 14:00 2014-10-14 15:00 HSS PARALLEL SHANK ENDMILLS 16X63X119MM HSS CENTRE DRILLS TY-A 3.15X8.0MM   0.00 Single
1498 OFPM T414614 10/09/2014 2014-10-14 14:00 2014-10-14 15:00 HSS CENTRE DRILLS TY-A 4.0X10.0MM   0.00 Single
1499 OFPM T414714 10/09/2014 2014-10-14 14:00 2014-10-14 15:00 SPRUE MANDREL (AL).   0.00 Single
1500 OFPM T414814 10/09/2014 2014-10-14 14:00 2014-10-14 15:00 HACK SAW BLADES IS:2594-77,300X12X18TPI   0.00 Single
1501 OFPM T414914 10/09/2014 2014-10-14 14:00 2014-10-14 15:00 EMERY CLOTH GRADE: 60 SZ:230 X 280 MM EMERY CLOTH GRADE:120 SZ:230 X 280 MM EMERY CLOTH GRADE: 40 SZ:230 X 280 MM   0.00 Single
1502 OFPM T415014 10/09/2014 2014-10-14 14:00 2014-10-14 15:00 SET OF 12 NOS NEEDLE FILES   0.00 Single
1503 OFPM T415114 10/09/2014 2014-10-21 14:00 2014-10-21 15:00 VARNIER CALIPER SIZE.0-150MM,L.C.O.02MM. VARNIER CALIPER SIZE.0-300MM,L-C.0.02MM. DIGITAL VERNIER CALIPER RANGE 0 TO 200   0.00 Single
1504 OFPM V411514 10/09/2014 2014-10-15 14:00 2014-10-15 15:00 INSTN. OF FIRE FIGHTING EQPT. 765-87-cb5   0.00 Single
1505 OFPM V411614 10/09/2014 2014-10-15 14:00 2014-10-15 15:00 SEAT 765-18-CD163   0.00 Single
1506 OFPM V411714 10/09/2014 2014-09-24 14:00 2014-09-24 15:00 BMP SMOKE GENERATING EQPT. 675-84-CD2   0.00 Single
1507 OFPM V411814 10/09/2014 2014-11-26 14:00 2014-11-26 15:00 BMP SMOKE GENERATING EQPT. 675-84-CD2   27894.00 Single
1508 HAPP 14/0167 10/09/2014 2014-10-04 14:00 2014-10-04 14:30 PRE MACHINING OF H.R BODY RGB 12   0.00 Single
1509 EFA 14420019 10/09/2014 2014-09-10 00:00 2014-09-10 00:00 BEARING 112 L ETY 500 - 65   0.00 Single
1510 EFA 14600137 10/09/2014 2014-09-26 00:00 2014-09-26 00:00 ANHYDROUS AMMONIA GAS   0.00 Single
1511 OLF 1406040369 10/09/2014 2014-11-07 15:00 2014-11-07 15:00 LASER ROD (FINISHED)   66938.00 Single
1512 OLF 1406040370 10/09/2014 2014-09-25 15:00 2014-09-25 15:00 NON-STANDARD EQUIPMENT, TECH.,SET OF SERVICES FOR ALL STAGES,BLOCK FOR CO-PROD. OF M.UNIT,BLOCK FOR CO-PROD. OF C. UNIT,TV MONITOR VSU-12 SKD KIT,CABLE NO. 1,CATHERINE-FC T.I.CAMERA (FF),CONTROL PANEL   30000000.00 Single
1513 OFDR 2014000276 10/09/2014 2014-10-07 14:30 2014-10-07 15:00 1. AMC OF 20KVA UPS SYSTEM   3.00 Single
1514 OFDR 2014000277 10/09/2014 2014-10-07 14:30 2014-10-07 15:00 1. PRINTER RIBBON FOR DMP FX-2175   3.00 Single
1515 OFDR 2014000278 10/09/2014 2014-10-07 14:30 2014-10-07 15:00 1. YELLOW INKJET CART.-OFFICE JET 8000   3.00 Single
1516 OFDR 2014000279 10/09/2014 2014-10-07 14:30 2014-10-07 15:00 1. BLACK INK CART.FOR OFFICE JET 8000   3.00 Single
1517 OFDR 2014000280 10/09/2014 2014-10-07 14:30 2014-10-07 15:00 1. MAGENTA INK CART OFFICE JET 8000   3.00 Single
1518 OFDR 2014000281 10/09/2014 2014-10-07 14:30 2014-10-07 15:00 1. CYAN INKJET CARTG.OFFICE JET 8000   3.00 Single
1519 OFDR 2014000282 10/09/2014 2014-10-07 14:30 2014-10-07 15:00 1. TONNER CARTG.FOR LJ-P1007   3.00 Single
1520 OFDR 2014000283 10/09/2014 2014-10-07 14:30 2014-10-07 15:00 1. BLACK CARTG FOR HP DESK-JET F 380   3.00 Single
1521 OFDR 2014000284 10/09/2014 2014-10-07 14:30 2014-10-07 15:00 1. COLOUR CARTG FOR HP DESK-JET 380   3.00 Single
1522 OFDR 2014000285 10/09/2014 2014-10-07 14:30 2014-10-07 15:00 1. TONNER CARTG.NO.Q-2612A FOR LJ-1015   3.00 Single
1523 OFDR 2014000286 10/09/2014 2014-10-07 14:30 2014-10-07 15:00 1. TONER CARTG.FOR SAMSUNG ML-3310ND   3.00 Single
1524 AFK 20140455 09/09/2014 2014-09-30 14:00 2014-09-30 14:30 CABLE JOINTING KIT, CABLE JOINTING KIT, CABLE JOINTING KIT ETC.   0.00 Single
1525 MSF 14TE210400 09/09/2014 2014-10-15 14:30 2014-10-15 14:30 RUBBER PAD FOR SPINDLE TYPE-B. etc.   Single
1526 MSF 14TE210401 09/09/2014 2014-10-15 14:30 2014-10-15 14:30 CONVERSION OF STEEL ROUND etc.   Single
1527 MSF 14TE220402 09/09/2014 2014-10-10 14:30 2014-10-10 14:30 HORIZONTAL CENTRIFUGAL PUMP& MOTOR etc.   9100.00 Single
1528 CFA 14PVTE0224 09/09/2014 2014-09-30 13:00 2014-09-30 14:00 S/P ARMSTRONG PUMP MECH SEALS/P ARMSTRONG PUMP CASING GASKS/P ARMSTRONG PUMP BEARINGS/P ARMSTRONG PUMP MECH. SEALS/P ARMSTRONG PUMP 3KW GASKETS/P ARMSTRONG PUMP 3KW BEARING   0.00 Single
1529 CFA 14PVTE0225 09/09/2014 2014-09-30 13:00 2014-09-30 14:00 WEBBING SLING,LEN=2M,CAP=2 TONWEBBING SLING,LEN=5M,CAP=2 TONWEBBING SLING,LEN=10M,CAP=2TONWEBBING SLING,LEN=2M,CAP=5 TONWEBBING SLING,LEN=5M,CAP=5 TONWEBBING SLING,LEN=10M,CAP=5TON   0.00 Single
1530 GSF 1400000870 09/09/2014 2014-10-07 00:00 2014-10-07 00:00 MAGAZINE BOX AK-630M ASSY 01.,   0.00 Single
1531 GSF 1400000871 09/09/2014 2014-10-11 00:00 2014-10-11 00:00 STEEL ROD 4 MM DIA TO SPECN:BS 970 PART1 GRADE 080,   0.00 Single
1532 OFA B4TE110407 09/09/2014 2014-09-30 14:30 2014-09-30 15:00 ,1ST DRAW CARBIDE DIE, CG84/T/11035- etc.   0.00 Single
1533 OFA B4TE110408 09/09/2014 2014-09-30 14:30 2014-09-30 15:00 ,3RD DRAW CARBIDE DIE L-70 etc.   0.00 Single
1534 OFA B4TE120409 09/09/2014 2014-09-19 14:30 2014-09-19 15:00 ,POWER FACTOR IMPROVEMENT CAPACITOR etc.   0.00 Single
1535 OFA B4TE120410 09/09/2014 2014-10-07 14:30 2014-10-07 15:00 ,MAIN DOOR,DRG.NO. E&F/SE/5333/A. etc.   0.00 Single
1536 OFA B4TE120411 09/09/2014 2014-10-07 14:30 2014-10-07 15:00 ,GRINDING WHEEL,650 X 75 X 305 MM.,GRINDING WHEEL 100MM O/DX4MM THICK. etc.   0.00 Single
1537 OFA B4TE120412 09/09/2014 2014-10-07 14:30 2014-10-07 15:00 ,3 MICRON FILTER ELEMENT 77X43X208MM,3MICRON FILTER ELEMENT,45X25.4X208. etc.   0.00 Single
1538 OFA B4TE120413 09/09/2014 2014-10-10 14:30 2014-10-10 15:00 ,PRESSURE SWITCH : HED-2-OA-23/400. etc.   0.00 Single
1539 OFA B4TE120414 09/09/2014 2014-10-07 14:30 2014-10-07 15:00 ,BOOSTER REGULATOR WITH 38 LTR TANK. etc.   0.00 Single
1540 OFA B4TE120415 09/09/2014 2014-10-10 14:30 2014-10-10 15:00 ,CLEVIS MOUNTED HYDRAULIC CYLINDER. etc.   0.00 Single
1541 OFA B4TE120416 09/09/2014 2014-10-10 14:30 2014-10-10 15:00 ,CHEVRON PACKING,DRG.MMNCC/SE/6684. etc.   0.00 Single
1542 OFA B4TE120417 09/09/2014 2014-10-10 14:30 2014-10-10 15:00 ,GRDG WHEEL TYP1 180X13 X32 A60K5VN etc.   0.00 Single
1543 OFA B4TE120418 09/09/2014 2014-10-17 14:30 2014-10-17 15:00 ,OIL SERVOMESH SP-68 (210 LIT/ DRUM) etc.   0.00 Single
1544 OFKAT 2014000211 09/09/2014 2014-10-16 14:30 2014-10-16 14:30 HAIR BRUSH 75mm WIDE 20mmTHICK, GRAPHITE POWDER NATURAL GR-II., RAMMING TRAY & STAND FOR M.P.   0.00 Single
1545 OFK 14CST-0520 09/09/2014 2014-09-16 14:30 2014-09-16 13:00 STEP DRILL ANAJ-11896.0-SD10100/Z-A,STEP DRILL ANAJ-11890-SD03100/Z-B,C/SINK TOOL ANAJ-12329.0-CO3160/Z-A,DRILL DRG NO.ANAJ11894.0-D01600/Z-B,C/SINK TOOL ANAJ-12007.0-SC031500,DRILL DRG.NO.ANAJ-11895.   0.00 Single
1546 OFK 14CST-0521 09/09/2014 2014-10-03 14:30 2014-10-03 13:00 QUICK STAR PUSH IN-MALE THREADED'L',QUICK STAR PUSH IN/SELF SEALING,QUICK STAR PUSH IN TO SEAL UN-USED,QUICK STAR PUSH IN-ELBOW CONNECTOR,QUICK STAR PUSH IN-CONNECTOR,QUICK STAR PUSH IN FITTINGS - QSK   0.00 Single
1547 SAF 3143000693 09/09/2014 2014-09-30 14:30 2014-09-30 15:00 PLC MESSUHG TYPE BD 10 16/12R,   0.00 Single
1548 SAF 3143000694 09/09/2014 2014-09-30 14:30 2014-09-30 15:00 TELEPHONE CABLE, JELLY JILLED,   0.00 Single
1549 OCFAV 216/14-15 09/09/2014 2014-09-29 14:30 2014-09-29 14:30 METAL HALIDE FITTING 400 WATTS WITH   0.00 Single
1550 OFBA 140421 09/09/2014 2014-10-14 14:30 2014-10-14 14:30 POWER CONTACTOR,3POLE,250 AMP   0.00 Single
1551 OFBA 140422 09/09/2014 2014-10-16 14:30 2014-10-16 14:30 FLUROCENT TUBE   0.00 Single
1552 OFBA 140423 09/09/2014 2014-10-16 14:30 2014-10-16 14:30 LOVE JOY COUPLING   0.00 Single
1553 OFBA 140424 09/09/2014 2014-10-16 14:30 2014-10-16 14:30 DISH AND CONE ASSY.   0.00 Single
1554 OCFC 2014LTE278 09/09/2014 2014-09-30 00:00 2014-09-30 00:00 ,PLUG SHRG20P4ESH8 ,PLUG FEMALE SHR32P10ESH1 ,PLUG FEMALE SSHR32P10ESH4 ,PLUG FEMALE SHR40P16ESH2   0.00 Single
1555 OCFC 2014LTE279 09/09/2014 2014-10-09 00:00 2014-10-09 00:00 ,PLUG SHRG20P4ESH8 ,PLUG FEMALE SHR32P10ESH1 ,PLUG FEMALE SSHR32P10ESH4 ,PLUG FEMALE SHR40P16ESH2   0.00 Single
1556 OCFC 2014LTE280 09/09/2014 2014-10-09 00:00 2014-10-09 00:00 ,PLUG SHRG20P4ESH8 ,PLUG FEMALE SHR32P10ESH1 ,PLUG FEMALE SSHR32P10ESH4 ,PLUG FEMALE SHR40P16ESH2   0.00 Single
1557 OCFC 2014LTE281 09/09/2014 2014-10-09 00:00 2014-10-09 00:00 ,PLUG SHRG20P4ESH8 ,PLUG FEMALE SHR32P10ESH1 ,PLUG FEMALE SSHR32P10ESH4 ,PLUG FEMALE SHR40P16ESH2   0.00 Single
1558 OCFC 2014LTE282 09/09/2014 2014-09-25 00:00 2014-09-25 00:00 ,PLUG SHRG20P4ESH8 ,PLUG FEMALE SHR32P10ESH1 ,PLUG FEMALE SSHR32P10ESH4 ,PLUG FEMALE SHR40P16ESH2   0.00 Single
1559 HVF 0211398 09/09/2014 2014-10-15 12:00 2014-10-15 15:00 SHIELD , etc.   0.00 Single
1560 HVF 0211399 09/09/2014 2014-09-20 12:00 2014-09-20 15:00 PACKING SECTOR , etc.   0.00 Single
1561 HVF 0211401 09/09/2014 2014-09-25 12:00 2014-09-25 15:00 SHIM , etc.   0.00 Single
1562 HVF 0413214 09/09/2014 2014-09-30 12:00 2014-09-30 15:00 GASKET , etc.   0.00 Single
1563 HVF 0413215 09/09/2014 2014-10-01 12:00 2014-10-01 15:00 BRACE ASSY , etc.   0.00 Single
1564 HVF 0413216 09/09/2014 2014-09-19 12:00 2014-09-19 15:00 BEARING 1202 , etc.   0.00 Single
1565 HVF 0413217 09/09/2014 2014-09-25 12:00 2014-09-25 15:00 BEARING 1201 , etc.   0.00 Single
1566 HVF 0701956 09/09/2014 2014-09-23 12:00 2014-09-23 15:00 BUSHING OUTER , etc.   0.00 Single
1567 HVF 0701957 09/09/2014 2014-09-23 12:00 2014-09-23 15:00 DISC,THRUST , etc.   0.00 Single
1568 OFAJ NS2140018 09/09/2014 2014-09-30 14:00 2014-09-30 15:00 STEEL ROD 32 DIA X 1200 MM LONG.   0.00 Single
1569 OFAJ NS2140019 09/09/2014 2014-10-14 14:00 2014-10-14 15:00 MAGNESIUM PURE 99.8% (MG)   0.00 Single
1570 OFT D110L52352 09/09/2014 2014-09-30 14:30 2014-09-30 15:00 THREE PHASE FOUR WIRE KWH ENER   0.00 Single
1571 OFT D110L52353 09/09/2014 2014-09-30 14:30 2014-09-30 15:00 PVC INSULATED TELEPHONE CABLE ,PVC INSULATED TELEPHONE CABLE ,5 PAIR UNARMOURED TELE CABLE   0.00 Single
1572 OFT D140L52351 09/09/2014 2014-09-30 14:30 2014-09-30 15:00 WHEEL AND TYRE ASSEMBLY   0.00 Single
1573 OFT D182E52354 09/09/2014 2014-09-25 14:30 2014-09-25 15:00 ICR1202 STUD COCKING HANDLE   0.00 Single
1574 OFT D182E52362 09/09/2014 2014-09-30 14:30 2014-09-30 15:00 FERRULE BUTT ICR 1207   0.00 Single
1575 OFT D182E52365 09/09/2014 2014-09-30 14:30 2014-09-30 15:00 WASHER TUBE RECOIL (ICR 1514)   0.00 Single
1576 OFT D212E52355 09/09/2014 2014-09-25 14:30 2014-09-25 15:00 DETENT ZEROING ICR 1255   0.00 Single
1577 OFT D212E52356 09/09/2014 2014-09-25 14:30 2014-09-25 15:00 WASHER POSITIONING FLASH   0.00 Single
1578 OFT D212E52357 09/09/2014 2014-09-25 14:30 2014-09-25 15:00 RING RETAINING GAS REGULATOR   0.00 Single
1579 OFT D212E52363 09/09/2014 2014-09-25 14:30 2014-09-25 15:00 SPRING PLATFORM WITH FIRM MATL   0.00 Single
1580 OFT D212E52366 09/09/2014 2014-09-30 14:30 2014-09-30 15:00 SLEEVE PISTOL GRIP FOR 7.62MM   0.00 Single
1581 OFT D222B52360 09/09/2014 2014-09-30 14:30 2014-09-30 15:00 CATCH MAGAZINE IC (ICR 1199)   0.00 Single
1582 OFT D232E52364 09/09/2014 2014-09-30 14:30 2014-09-30 15:00 SPRING RETURN INNER ICR 1235   0.00 Single
1583 OFT D332E52367 09/09/2014 2014-09-30 14:30 2014-09-30 15:00 NUT LOCK FORESIGHT 5310-003169   0.00 Single
1584 OFT D490H93287 09/09/2014 2014-10-09 14:30 2014-10-09 15:00 DRILLING INSERT DIA 65   0.00 Single
1585 OFT D490H93288 09/09/2014 2014-10-09 14:30 2014-10-09 15:00 RING GAUGE FOR 30MM CANNON AP/ ,RING GAUGE FOR 30MM CANNON ,RING GAUGE FOR 30MM AP/T   0.00 Single
1586 OFT D490H93289 09/09/2014 2014-10-14 14:30 2014-10-14 15:00 PLUNGER GAUGE FOR 30MM AP/T ,GAUGE FOR 30MM CANNON AP/T ,DOVETAIL GAUGE FOR 30MM AP/T   0.00 Single
1587 OFT D490H93290 09/09/2014 2014-10-14 14:30 2014-10-14 15:00 CONCENTRICITY GAUGE FOR 30MM ,SNAP GAUGE FOR 30MM SHELLBODY ,GAUGE FOR 30MM SHELL BODY   0.00 Single
1588 OFT D490H93291 09/09/2014 2014-10-14 14:30 2014-10-14 15:00 DEPTH CHECKING GAUGE ,GAUGE FOR 30MM AP/T ,RECEIVER GAUGE FOR 30MM AP/T   0.00 Single
1589 OFT D490H93292 09/09/2014 2014-10-14 14:30 2014-10-14 15:00 RING GAUGE "NOGO" ,SNAP GAUGE FOR 30MM CANNON APT ,GAUGE FOR SHELL BODY 30MM APT   0.00 Single
1590 OFT D49UH52358 09/09/2014 2014-09-30 14:30 2014-09-30 15:00 E.M.(4FLUTE)SOLID CARB.S.S.8MM   0.00 Single
1591 OFT D49UH52359 09/09/2014 2014-09-30 14:30 2014-09-30 15:00 DTD 5124   0.00 Single
1592 OFT D49UH52361 09/09/2014 2014-09-30 14:30 2014-09-30 15:00 SOLID CARBIDE ENDMILL DIA 20   0.00 Single
1593 OFT D550H93285 09/09/2014 2014-10-09 14:30 2014-10-09 15:00 RECTANGULAR PERMENENT MAGNETIC   0.00 Single
1594 OFT D550H93286 09/09/2014 2014-10-09 14:30 2014-10-09 15:00 POLYTHE COVER 300X400X0.25 MM   0.00 Single
1595 OFCH 201400325 09/09/2014 2014-10-06 14:00 2014-10-06 14:30 INNER NOZZLE ASSY FOR PF2 BURN SOLENOID VALVE 3 WAY TYPE NRA- SOLENOID VALVE 2 WAY TYPE NNC- COIL FOR SOLENOID VALVE 2 & 3   8058.00 Single
1596 OEFHZ 20140052 09/09/2014 2014-09-26 00:00 2014-09-26 00:00 100% POLYESTER TAPE 12.7MM WHITE,BS 150 KG   3.00 Single
1597 OEFHZ 20140053 09/09/2014 2014-09-30 00:00 2014-09-30 00:00 CORD NYLON 45 KG UN-DYED VAR.NO.5   0.00 Single
1598 OEFHZ 20140054 09/09/2014 2014-09-30 00:00 2014-09-30 00:00 P.S.L BILINGUAL FOR NET.MOSQ.RMWPFR   0.00 Single
1599 FGK 340451 09/09/2014 2014-09-25 00:00 2014-09-25 00:00 SPACER 1015-000214,   0.00 Single
1600 FGK 340452 09/09/2014 2014-10-07 00:00 2014-10-07 00:00 i)DIN 50 GRAFLEX ARBORSEM34714,   0.00 Single
1601 FGK 340453 09/09/2014 2014-10-07 00:00 2014-10-07 00:00 i)DIN 50 ADB ER COLLET CHUCK E,   0.00 Single
1602 FGK 340454 09/09/2014 2014-10-07 00:00 2014-10-07 00:00 i)DIN 50 ADB ER COLLET CHUCK E,   0.00 Single
1603 FGK 340455 09/09/2014 2014-10-07 00:00 2014-10-07 00:00 i)DIN 50 GRAFLEX ARBORS EM 347,   0.00 Single
1604 FGK 340456 09/09/2014 2014-10-07 00:00 2014-10-07 00:00 i)DIN 50 ADB ER COLLET CHUCKE3,   0.00 Single
1605 FGK 340457 09/09/2014 2014-10-07 00:00 2014-10-07 00:00 i)SECO CAPTO ARBORE C6-390.140,   0.00 Single
1606 FGK 340458 09/09/2014 2014-10-07 00:00 2014-10-07 00:00 i)DIN 50-ADB ER TAPING CHUCK F,   0.00 Single
1607 FGK 340459 09/09/2014 2014-10-07 00:00 2014-10-07 00:00 i)DIN 50 GRAFLEX ARBORS EM3471,   0.00 Single
1608 FGK 340461 09/09/2014 2014-10-07 00:00 2014-10-07 00:00 i) DIN 50-ADB ER TAPING CHUCK,   0.00 Single
1609 FGK 340462 09/09/2014 2015-02-24 00:00 2015-02-24 00:00 SPECIALTHREADING INSERT FOR IN,   0.00 Single
1610 FGK 340463 09/09/2014 2014-10-16 00:00 2014-10-16 00:00 DIAMOND DRESSOR SINGLE POINT 6,   0.00 Single
1611 FGK 340464 09/09/2014 2014-10-16 00:00 2014-10-16 00:00 REGULATOR TWO STAGE ACETYLENE,   0.00 Single
1612 OFPM C409914 09/09/2014 2014-10-14 14:00 2014-10-14 15:00 SET OF CHEMICALS CONSISTING OF 1)SODIUM   0.00 Single
1613 OFPM D404814 09/09/2014 2014-09-30 14:00 2014-09-30 15:00 G.I PIPE 20 MM DIA X STD LENGTH   0.00 Single
1614 HAPP 14/0166 09/09/2014 2014-10-07 14:00 2014-10-07 14:30 PORTABLE TYPE MULTI PARAMETER ANALYSIS   0.00 Single
1615 EFA 14100510 09/09/2014 2014-10-03 00:00 2014-10-03 00:00 PIPE, MIDDLE   0.00 Single
1616 EFA 14100511 09/09/2014 2014-10-03 00:00 2014-10-03 00:00 OIL PACKING RING   0.00 Single
1617 EFA 14100512 09/09/2014 2014-10-03 00:00 2014-10-03 00:00 STUD M 10 X 42   0.00 Single
1618 EFA 14100513 09/09/2014 2014-10-03 00:00 2014-10-03 00:00 STUD M8 X 48   0.00 Single
1619 EFA 14100514 09/09/2014 2014-10-03 00:00 2014-10-03 00:00 STUD M9X38   0.00 Single
1620 EFA 14100515 09/09/2014 2014-10-03 00:00 2014-10-03 00:00 CLIP OF 3 PIPES   0.00 Single
1621 EFA 14100516 09/09/2014 2014-10-07 00:00 2014-10-07 00:00 SPRING WASHER   0.00 Single
1622 EFA 14100517 09/09/2014 2014-10-07 00:00 2014-10-07 00:00 SPRING DISC UPPER   0.00 Single
1623 EFA 14100518 09/09/2014 2014-10-07 00:00 2014-10-07 00:00 GASKET   0.00 Single
1624 EFA 14100519 09/09/2014 2014-10-07 00:00 2014-10-07 00:00 SWIVEL ELBOW   0.00 Single
1625 EFA 14100520 09/09/2014 2014-10-07 00:00 2014-10-07 00:00 GASKET   0.00 Single
1626 EFA 14100521 09/09/2014 2014-10-03 00:00 2014-10-03 00:00 BUSH   0.00 Single
1627 EFA 14100522 09/09/2014 2014-10-07 00:00 2014-10-07 00:00 CLAMP   0.00 Single
1628 EFA 14100523 09/09/2014 2014-10-07 00:00 2014-10-07 00:00 PLUG   0.00 Single
1629 EFA 14100524 09/09/2014 2014-10-07 00:00 2014-10-07 00:00 T-PIECE   0.00 Single
1630 EFA 14100525 09/09/2014 2014-10-03 00:00 2014-10-03 00:00 PACKING RING   0.00 Single
1631 EFA 14300051 09/09/2014 2014-10-07 00:00 2014-10-07 00:00 GEAR CLUSTER   0.00 Single
1632 EFA 14300052 09/09/2014 2014-10-07 00:00 2014-10-07 00:00 ALUMINIUM ALLOY-DIA 60MM   0.00 Single
1633 EFA 14600136 09/09/2014 2014-09-19 00:00 2014-09-19 00:00 LABOUR FOR STRIPPING OF V-46-6   0.00 Single
1634 EFA 14750019 09/09/2014 2014-09-30 00:00 2014-09-30 00:00 PERIODICAL CLEANING OF COOLING   0.00 Single
1635 OLF 1406010367 09/09/2014 2014-10-06 15:00 2014-10-06 15:00 PRESSURE DIE CASTING BLANK,PRESSURE DIE CASTING BLANKFILM   0.00 Single
1636 OLF 1406040368 09/09/2014 2014-10-13 15:00 2014-10-13 15:00 IDDCA (F#4) WITH PROXIMITY,IDDCA (F#5.5) WITH PROXIMITY   0.00 Single
1637 OFDR 2014000272 09/09/2014 2014-09-19 14:30 2014-09-19 15:00 1. RED LEAD FOR EXPLOSIVE AND PYROTECH   3.00 Single
1638 OFDR 2014000274 09/09/2014 2014-09-30 14:30 2014-09-30 15:00 1. TIN ZINC WASHER 21.08 FOR 1"G/IULL   3.00 Single
1639 OFDR 2014000275 09/09/2014 2014-09-30 14:30 2014-09-30 15:00 1. SAFETY PIN ASSEMBLY, DRG.NO.2024/28   3.00 Single
1640 OEFC 20140325 08/09/2014 2014-11-24 13:30 2014-11-24 14:00 REFILLING OF COMMERCIAL/INDUSTRIAL LPG CYLINDER (19 KG)OF INDANE MAKE   0.00 Single
1641 CFA 14PVTE0218 08/09/2014 2014-09-30 13:00 2014-09-30 14:00 MS TMT BARS 10 MM DIA   0.00 Single
1642 CFA 14PVTE0219 08/09/2014 2014-09-30 13:00 2014-09-30 14:00 POTTASIUM IODIDE GR/AR   0.00 Single
1643 CFA 14PVTE0220 08/09/2014 2014-09-30 13:00 2014-09-30 14:00 PYKNOMETER   0.00 Single
1644 CFA 14PVTE0221 08/09/2014 2014-09-30 13:00 2014-09-30 14:00 PAPER FILTER FITMAN NO.41   0.00 Single
1645 CFA 14PVTE0222 08/09/2014 2014-09-30 13:00 2014-09-30 14:00 WHATMAN-40 FILTER PAPER   0.00 Single
1646 OFA B4TE110401 08/09/2014 2014-10-07 14:30 2014-10-07 15:00 ,HEX SOCK HD CAP SCREW M24 X 80 LONG,M36*300 MM LONG HEXAGONAL HEAD BOLT,HEX. HD SOCKET BOLT M30*100MM LONG,HEX HD BOLT M30 X 340 IS:1362(PT 1),HEX SOCK HD CAP SCREW M24X220,HEX SOCK HD CAP SCREW M24   0.00 Single
1647 OFA B4TE110402 08/09/2014 2014-09-30 14:30 2014-09-30 15:00 ,2ND DRAW CARBIDE DIE. etc.   0.00 Single
1648 OFA B4TE110403 08/09/2014 2014-09-30 14:30 2014-09-30 15:00 ,THIRD DRAW CARBIDE DIE CG84/T/11031 etc.   0.00 Single
1649 OFA B4TE110404 08/09/2014 2014-09-30 14:30 2014-09-30 15:00 ,L70 FIRST DRAW FIRST CARBIDE DIE etc.   0.00 Single
1650 OFA B4TE110405 08/09/2014 2014-09-30 14:30 2014-09-30 15:00 ,PREFINAL CARBIDE DRAW DIE FOR 84 CG etc.   0.00 Single
1651 OFA B4TE110406 08/09/2014 2014-09-30 14:30 2014-09-30 15:00 ,4TH DRAW CARBIDE DIE FOR L70 etc.   0.00 Single
1652 OFA B4TE130399 08/09/2014 2014-09-12 14:30 2014-09-12 15:00 ,SERVICE CONTRACT FOR SCRUTINY etc.   0.00 Single
1653 OFA B4TE220400 08/09/2014 2014-10-07 14:30 2014-10-07 15:00 ,INSULATIN MAT FOR ELECTRICAL PURPOS etc.   0.00 Single
1654 OFKAT 2014000210 08/09/2014 2014-10-09 14:30 2014-10-09 14:30 BLANK CONT STY (255X305MM)PT-3, BLANK CONT STY(255x305 mm)PT-1   0.00 Single
1655 SAF 3143000690 08/09/2014 2014-09-30 14:30 2014-09-30 15:00 MICRO SWITCH TYPE SL1-A 5A-125,PRESSURE SWITCH MODEL B424-B R,   0.00 Single
1656 SAF 3143000691 08/09/2014 2014-09-30 14:30 2014-09-30 15:00 DIGITAL INDICATING CONTROLLER,   0.00 Single
1657 SAF 3143000692 08/09/2014 2014-09-30 14:30 2014-09-30 15:00 METAL CLAD SWITCH FUSE UNIT PO,   0.00 Single
1658 OFBA 140419 08/09/2014 2014-10-14 14:30 2014-10-14 14:30 GUDGEON PIN PT NO.0820302050   0.00 Single
1659 OFBA 140420 08/09/2014 2014-10-14 14:30 2014-10-14 14:30 REFRIGERANT GAS R-404A   0.00 Single
1660 OFBA 145074 08/09/2014 2014-10-07 14:30 2014-10-07 14:30 SM SEAL STRAP   0.00 Single
1661 OCFC 2014LTE275 08/09/2014 2014-09-25 00:00 2014-09-25 00:00 ,PLUG SHRG20P4ESH8 ,PLUG FEMALE SHR32P10ESH1 ,PLUG FEMALE SSHR32P10ESH4 ,PLUG FEMALE SHR40P16ESH2   0.00 Single
1662 OCFC 2014LTE276 08/09/2014 2014-10-09 00:00 2014-10-09 00:00 ,PLUG SHRG20P4ESH8 ,PLUG FEMALE SHR32P10ESH1 ,PLUG FEMALE SSHR32P10ESH4 ,PLUG FEMALE SHR40P16ESH2   0.00 Single
1663 OCFC 2014LTE277 08/09/2014 2014-09-25 00:00 2014-09-25 00:00 ,PLUG SHRG20P4ESH8 ,PLUG FEMALE SHR32P10ESH1 ,PLUG FEMALE SSHR32P10ESH4 ,PLUG FEMALE SHR40P16ESH2   0.00 Single
1664 OFDC 140342M3LT 08/09/2014 2014-09-30 00:00 2014-09-30 14:30 BLANK SMART CARD (4 KB)   0.00 Single
1665 OFDC 140343M4LT 08/09/2014 2014-09-23 00:00 2014-09-23 14:30 RECTG.PLAST.CONT.SIZE 500 mm   0.00 Single
1666 OFDC 140344M2LT 08/09/2014 2014-09-23 00:00 2014-09-23 14:30 PROCUREMENT OF WATCH & WARD SE   0.00 Single
1667 HVF 0108921 08/09/2014 2014-10-06 12:00 2014-10-06 15:00 AXLE , etc.   0.00 Single
1668 HVF 0108922 08/09/2014 2014-09-29 12:00 2014-09-29 15:00 BODY , etc.   0.00 Single
1669 HVF 0108923 08/09/2014 2014-10-06 12:00 2014-10-06 15:00 VALVE , etc.   0.00 Single
1670 HVF 0211397 08/09/2014 2014-09-24 12:00 2014-09-24 15:00 COUPLING SCREW , etc.   0.00 Single
1671 HVF 0511386 08/09/2014 2014-09-24 12:00 2014-09-24 15:00 HIRING OF 40'TRAILOR(20MT) TO LIFT 40' , etc.   0.00 Single
1672 HVF 0812555 08/09/2014 2014-09-30 12:00 2014-09-30 15:00 SHOT BLASING RUBBER SHEET , etc.   0.00 Single
1673 HVF 0900993 08/09/2014 2014-10-09 12:00 2014-10-09 15:00 ASSY SEAT CUSHION , etc.   0.00 Single
1674 OFAJ IS2140222 08/09/2014 2014-09-08 14:00 2014-09-08 15:00 BED SHEET (WHITE)(66"CMS X 90CMS")   0.00 Single
1675 OFAJ IS2140223 08/09/2014 2014-09-08 14:00 2014-09-08 15:00 CURTAIN CLOTH   0.00 Single
1676 OFAJ IS2140224 08/09/2014 2014-10-01 14:00 2014-10-01 15:00 ALMIRAH STEEL SIZE: 1980 X 914X482   0.00 Single
1677 OFAJ IS2140225 08/09/2014 2014-09-08 14:00 2014-09-08 15:00 KENT RO WATER PURIFIER-25 LTR/HR   0.00 Single
1678 OFAJ RS2140247 08/09/2014 2014-09-30 14:00 2014-09-30 15:00 ASSY. OF ANTI VIBRATION MTG (RB 44), BALL BEARING,ENG TO FLUID COUPLIN, BRAKE TUBE LH,, BRAKE TUBR RH, BUSH (FAB.TRAIL AXLE)., BUSH FABRICATED TRAIL AXLE ASSY, CLUTCH COVER ASSY, CLUTCH PLATE, CONN LI   0.00 Single
1679 OFAJ RS2140248 08/09/2014 2014-10-09 14:00 2014-10-09 15:00 TRANSFORMER 3PH, 500KVA   0.00 Single
1680 OFAJ RS2140249 08/09/2014 2014-09-30 14:00 2014-09-30 15:00 DECORATIVE LIGHT POLE, HYDRAULIC PIPE BENDING MACHINE   0.00 Single
1681 OFAJ RS2140250 08/09/2014 2014-09-30 14:00 2014-09-30 15:00 MS PIPE SET FOR WATER LINE   0.00 Single
1682 OFAJ SS2140062 08/09/2014 2014-11-13 14:00 2014-11-13 15:00 PARTED STEEL BILLET F-602B & F-329M, PARTED STEEL BILLET F-603B & F-329M   0.00 Single
1683 OFAJ TS2140123 08/09/2014 2014-11-01 14:00 2014-11-01 15:00 ELECTRONIC MULTIGAUGING SYSTEM 84MM   0.00 Single
1684 OFT D480Q93283 08/09/2014 2014-10-09 14:30 2014-10-09 15:00 SUPPLY OF LEMON   0.00 Single
1685 OFT D610R93282 08/09/2014 2014-10-09 14:30 2014-10-09 15:00 MANUFACTURING WARRANT   0.00 Single
1686 OFT D610R93284 08/09/2014 2014-10-09 14:30 2014-10-09 15:00 WARRANT FORM   0.00 Single
1687 OFCH 201400324 08/09/2014 2014-10-09 14:00 2014-10-09 14:30 TECHNICAL LITERATURE (BIG SIZE TECHNICAL LITERATURE (SMALL SI PROMO ART PAPER FOR TECH.LITER   10191.00 Single
1688 OFPM L403314 08/09/2014 2014-11-27 14:00 2014-11-27 15:00 BOLT M6 X 30.46.019 GOST 7795-70 BOLT M8X45 46.019 BOLT M8X55.46.019 GOST:7795-70 BOLT M12X45.88.38XC019, GOST 7795-70 BOLT M12 X80.46.019 GOST;7795-70 ETC.   82150.00 Single
1689 OFPM T413814 08/09/2014 2014-10-14 14:00 2014-10-14 15:00 HSS T/S DRILL DIA:9.0X81X162 MM. HSS TWIST DRILLS MTS 28.00MM   0.00 Single
1690 OFPM T413914 08/09/2014 2014-10-14 14:00 2014-10-14 15:00 PAINTING BRUSH SIZE.12MM. PAINTING BRUSH SIZE:50MM NYLON HAIRS.   0.00 Single
1691 OFPM T414014 08/09/2014 2014-10-14 14:00 2014-10-14 15:00 M42 (HSS) BI-METALLIC BAND SAW BLADE.   0.00 Single
1692 OFPM T414114 08/09/2014 2014-10-14 14:00 2014-10-14 15:00 INSERT TPAN 11 03 PPN-P30.   0.00 Single
1693 OFPM T414214 08/09/2014 2014-09-30 14:00 2014-09-30 15:00 DIA:21MM AND 22MM EACH ONE U DRILL.   0.00 Single
1694 HAPP 14/0163 08/09/2014 2014-09-30 14:00 2014-09-30 14:30 DETAILED WORK INSTRUCTIONS   0.00 Single
1695 HAPP 14/0164 08/09/2014 2014-09-30 14:00 2014-09-30 14:30 OIL SERVO SYSTEM-46/MAK HYDROL46/ENCLO46   0.00 Single
1696 HAPP 14/0165 08/09/2014 2014-09-30 14:00 2014-09-30 14:30 OIL SERVO CUT-S / KOOL KUT 40 S.   0.00 Single
1697 EFA 14100507 08/09/2014 2014-10-10 00:00 2014-10-10 00:00 PIPE   0.00 Single
1698 EFA 14100508 08/09/2014 2014-09-26 00:00 2014-09-26 00:00 TUBE FASTENING SHACKLE   0.00 Single
1699 EFA 14100509 08/09/2014 2014-10-03 00:00 2014-10-03 00:00 SPRING; SPRING RING; SPRING;   0.00 Single
1700 EFA 14600131 08/09/2014 2014-09-26 00:00 2014-09-26 00:00 THRUST BALL BEARING 51107,; DEEP GROOVE BALL BEARING 16015,; NEEDLE ROLLER THRUST BALL BEARING; NEEDLE ROLLER THRUST BALL BEARING; DOUBLE ROW SPHERICAL ROLLER BEARING;   0.00 Single
1701 EFA 14600132 08/09/2014 2014-09-26 00:00 2014-09-26 00:00 SINGLE ROW BEARING 6820; SELF ALIGNING BALL BEARING 2210K; PLUMMER BLOCK SN 510; THRUST BALL BEARING 51108; BALL BEARING 6209-2RS;   0.00 Single
1702 EFA 14600133 08/09/2014 2014-09-26 00:00 2014-09-26 00:00 CAM YOKE ROLLER BEARING MCYR-12; ANGULAR CONTACT BALL BEARING 7014; ANGULAR CONTACT BALL BEARING 7211; ANGULAR CONTACT BALL BEARING 7205; ANGULAR CONTACT BALL BEARING 7206;   0.00 Single
1703 EFA 14600134 08/09/2014 2014-09-26 00:00 2014-09-26 00:00 GREASE   0.00 Single
1704 EFA 14600135 08/09/2014 2014-09-26 00:00 2014-09-26 00:00 DOT MATRIX PRINTER, 24 PIN   0.00 Single
1705 OLF 1406010366 08/09/2014 2014-10-10 15:00 2014-10-10 15:00 P-3 OIL FOR ROTARY & ROOT PUMP   0.00 Single
1706 OFBOL 201400308 08/09/2014 2015-04-14 14:30 2015-04-14 14:30 FUZE PERCUSSION DA NO.117 (EMPTY)   1655412.00 Single
1707 AFK 20140450 07/09/2014 2014-10-07 14:00 2014-10-07 14:30 HIRING OF MINI BUS - 22 SEATER   15000.00 Single
1708 OPF 110140343 07/09/2014 2014-09-25 14:00 2014-09-25 14:30 (1) TAPE NY.1.6 CM U/DYD BS-200KG   0.00 Single
1709 OPF 110140344 07/09/2014 2014-09-25 14:00 2014-09-25 14:30 (1) TAPE ADHESIVE CLOTH BASE 2" WIDTH (2) TAPE NY.2.6 CM MED 600 KG STEELGREY (3) TAPE COTTON 25 MM OG (4) TAPE NYLON 66,26 MM,200 KGF BS U/D   0.00 Single
1710 OPF 110140345 07/09/2014 2014-09-25 14:00 2014-09-25 14:30 (1) TAPE NYL.TUBULAR 11 MM.450 KGF (2) TAPE NYLON TUBULAR 26MM 1785 KG U/D (3) TAPE NYL.TUB.25MM,1785KG,U/D(HANDLE   0.00 Single
1711 OFV 20140239 07/09/2014 2014-10-21 14:30 2014-10-21 15:00 SUPPORT BRACKET (DRUM CAM END),FINGER CAM,   60414.90 Single
1712 OFV 20140240 07/09/2014 2014-10-14 14:30 2014-10-14 15:00 LINK BELT FOR 12.7 MM AMMUNITION,   75290.00 Single
1713 OFPM T413714 07/09/2014 2014-10-14 14:00 2014-10-14 15:00 VERNIERCALIPER DIGITAL 0-300MM. DIAL VERNIER CALIPER 300MM LC 0.02MM   0.00 Single
1714 OCFS 2014000221 06/09/2014 2014-09-06 14:30 2014-09-06 15:00 16 SQMM FLEXIBLE COPPER CABLE 3CORE   0.00 Single
1715 OCFS 2014000222 06/09/2014 2014-09-06 14:30 2014-09-06 15:00 SUBMERSIBLE PUMP SET 15 H.P.   0.00 Single
1716 OCFS 2014000223 06/09/2014 2014-09-06 14:30 2014-09-06 15:00 RESIN PRINT RIBBON 64 MM WIDE   0.00 Single
1717 OCFS 2014000224 06/09/2014 2014-09-06 14:30 2014-09-06 15:00 LAMI.KRAFT PAPER200GSM100GAUGE120CM   0.00 Single
1718 HEF TE14150067 06/09/2014 2014-09-25 00:00 2014-09-25 00:00 -FLAME PROOF ELECTRONIC BA2012680002   0.00 Single
1719 OPF 110140341 06/09/2014 2014-09-18 14:00 2014-09-18 14:30 (1) MEDICAL CLAIM FORM CERTIFICATE-A (2) MEDICAL CLAIM FORM CERTIFICATE-B (3) MEDICAL CLAIM FORM MED-97 (4) CONTINGENT BILL FORM   0.00 Single
1720 OPF 110140342 06/09/2014 2014-09-18 14:00 2014-09-18 14:30 (1) IE'S GATE PASS (NO.I.A.F.O.-1932) (2) NON RETURNABLE GATE PASS   0.00 Single
1721 OFA B4TE220398 06/09/2014 2014-10-07 14:30 2014-10-07 15:00 ,STAND ALONE ENERGY EFFICIENT TUBE - etc.   0.00 Single
1722 OFKAT 2014000207 06/09/2014 2014-10-14 14:30 2014-10-14 14:30 10% HOT DIE STEEL 170MMX55MM T, STEEL FORGING 90MM DIAX160MM L   0.00 Single
1723 OFKAT 2014000208 06/09/2014 2014-10-07 14:30 2014-10-07 14:30 BREAKING & RELINING OF AW/PION, BREAKING AND RELINING OF PILLE   0.00 Single
1724 OFKAT 2014000209 06/09/2014 2014-10-07 14:30 2014-10-07 14:30 WATER PUMP FOR WATER SUPPLY.   0.00 Single
1725 SAF 3143000687 06/09/2014 2014-10-10 14:30 2014-10-10 15:00 PRINTER HEAD 24 PIN NEEDLE TVS,PRINTER HEAD 9 NEEDLES FOR WIP,PRINTER RIBBON EPSON LQ-1150.,RIBBON EPSON EX 2175 FOR D.M.P,PRINTER HEAD FOR EPSON LQ-1150,PRINTER HEAD 18 PIN NEEDLE EPS,   0.00 Single
1726 SAF 3143000688 06/09/2014 2014-09-26 14:30 2014-09-26 15:00 BLADE FORE SIGHT DS CAT NO 100,   0.00 Single
1727 SAF 3143000689 06/09/2014 2014-09-26 14:30 2014-09-26 15:00 LEVER LOCKING(CISA-633)DS CAT,   0.00 Single
1728 OFBA 140416 06/09/2014 2014-09-16 14:30 2014-09-16 14:30 ALUMINIUM GRATING TRAY   9600.00 Single
1729 OFBA 140417 06/09/2014 2014-10-09 14:30 2014-10-09 14:30 FILTER MESH 1.5 MW X 200 BSS   0.00 Single
1730 OFBA 140418 06/09/2014 2014-10-09 14:30 2014-10-09 14:30 QUICK STEEL FSL EPOXY PUTTY.   0.00 Single
1731 OCFC 2014LTE273 06/09/2014 2014-09-12 00:00 2014-09-12 00:00 ,PLUG SHRG20P4ESH8 ,PLUG FEMALE SHR32P10ESH1 ,PLUG FEMALE SSHR32P10ESH4 ,PLUG FEMALE SHR40P16ESH2   43220.00 Single
1732 OCFC 2014LTE274 06/09/2014 2014-09-25 00:00 2014-09-25 00:00 ,PLUG SHRG20P4ESH8 ,PLUG FEMALE SHR32P10ESH1 ,PLUG FEMALE SSHR32P10ESH4 ,PLUG FEMALE SHR40P16ESH2   0.00 Single
1733 OFDC 140341M2LT 06/09/2014 2014-09-23 00:00 2014-09-23 14:30 L S 486C-670 MM ID NR 329991-2   0.00 Single
1734 HVF 0108920 06/09/2014 2014-09-22 12:00 2014-09-22 15:00 BOSS , etc.   0.00 Single
1735 HVF 0413206 06/09/2014 2014-09-29 12:00 2014-09-29 15:00 WIRE ROPE ASSY. , etc.   0.00 Single
1736 HVF 0413207 06/09/2014 2014-09-25 12:00 2014-09-25 15:00 PLATE , etc.   0.00 Single
1737 HVF 0413212 06/09/2014 2014-10-01 12:00 2014-10-01 15:00 GASKET , etc.   0.00 Single
1738 OFV 20140238 06/09/2014 2014-10-21 14:30 2014-10-21 15:00 CONDUCTING SHOES,   23000.86 Single
1739 OFAJ IS2140220 06/09/2014 2014-09-06 14:00 2014-09-06 15:00 10 ML PIPETT GRADUATED 'BOROSIL', CYLINDERS GRADUATED CLASS A 100 ML., MEASURING CYLINDER 10 ML GRADUATED, MEASURING CYLINDER 25 ML GRADUATED, MEASURING CYLINDER 250ML, MEASURING CYLINDER 50 ML GRADUA   0.00 Single
1740 OFAJ IS2140221 06/09/2014 2014-09-06 14:00 2014-09-06 15:00 DISPOSABLE FOAM CORDED EAR PLUG WIT, INDUSTRIAL SAFETY SHOES, P.CLOTHING HAND GLOVES LEATHER   0.00 Single
1741 OFAJ RS2140244 06/09/2014 2014-10-09 14:00 2014-10-09 15:00 THERMOVISION CAMERA FOR MAINTENANCE   0.00 Single
1742 OFAJ RS2140245 06/09/2014 2014-09-25 14:00 2014-09-25 15:00 DATA LOGGER SOFTWARE & PLC PROBLEM   0.00 Single
1743 OFAJ RS2140246 06/09/2014 2014-09-30 14:00 2014-09-30 15:00 REPAIRING OF CONTROL CARD., REPAIRING OF LT MODULE, REPAIRING OF LT MODULE.   0.00 Single
1744 OFAJ TS2140122 06/09/2014 2014-10-08 14:00 2014-10-08 15:00 CONC SCREW PLUG GAUGE SM/G-2011, CONC.SC/RING GAUGE TO DRG SMG-2010., GO SC PLUG GAUGE DRG.NO.SMG-1665., GO SC RING GAUGE TO DRG.SM/G-1214 ., GO SCREW PLUG GAUGE DRG.SM/G-1234B, NO GO SC PLUG GAUGE D   0.00 Single
1745 OFT D212E52350 06/09/2014 2014-09-30 14:30 2014-09-30 15:00 ICR1195 SCREW LOCKING HINGEPIN   0.00 Single
1746 OFT D300R93281 06/09/2014 2014-10-07 14:30 2014-10-07 15:00 VARIOUS TYPES OF GENERIC MEDIC   0.00 Single
1747 OFT D685E52348 06/09/2014 2014-09-30 14:30 2014-09-30 15:00 STOCK BUTT SP-38*   0.00 Single
1748 OFT D685E52349 06/09/2014 2014-09-30 14:30 2014-09-30 15:00 STOCK FORE END SP-33*   0.00 Single
1749 OFCH 201400321 06/09/2014 2014-10-09 14:00 2014-10-09 14:30 SET OF LABORATORY MISC. ITMS   10133.00 Single
1750 OFCH 201400322 06/09/2014 2014-10-16 14:00 2014-10-16 14:30 LABORATORY CHEMICALS AS PER AN   9450.00 Single
1751 FGK 340450 06/09/2014 2014-09-25 00:00 2014-09-25 00:00 i)ADAPTOR, BT40 EM 25X105, QTY,i)ADAPTOR, BT40 EM 32X110 QTY.,i) ADAPTOR, BT40 EM32X110 QTY.,EXTRA LONG ENDEXABLE END MILL,EXTRA LONG INDEXABLE ENDMILL D,i)ADAPTOR, BT40 ER32X100 QTY.,i)ADAPTOR, BT40   0.00 Single
1752 OFPM C409814 06/09/2014 2014-10-14 14:00 2014-10-14 15:00 SURF EXCEL SOAP (95 GRAMS)   0.00 Single
1753 OFPM D404514 06/09/2014 2014-12-23 14:00 2014-12-23 15:00 ASBESTOS ROPE / YARN, DIA: 6MM   0.00 Single
1754 OFPM D404614 06/09/2014 2014-10-14 14:00 2014-10-14 15:00 TUNGSTON ELECTRODES 1% ZIRCONIATED (W TUNGSTON ELECTRODES 1% ZIRCONIATED(W)   0.00 Single
1755 OFPM D404714 06/09/2014 2014-10-14 14:00 2014-10-14 15:00 SS BALL VALVE, LIVER TYPE SZ:25MM   0.00 Single
1756 OFPM T412614 06/09/2014 2014-09-30 14:00 2014-09-30 15:00 SLITTING CUTTER DIA:125MM WIDTH:5MM   0.00 Single
1757 OFPM T412714 06/09/2014 2014-09-23 14:00 2014-09-23 15:00 CHAM DRILL OF 1NO. DIA:16.05MM SIMILAR BRAZED CARBIDE TIPPED DRILL P/S 14.5 MM.   0.00 Single
1758 OFPM T412814 06/09/2014 2014-09-30 14:00 2014-09-30 15:00 SVJBR TOOL HOLDER SIZE:25X25 M16.   0.00 Single
1759 OFPM T412914 06/09/2014 2014-09-30 14:00 2014-09-30 15:00 125MM DEEP SHOULDER CUTTER 3MSMD125-60-7   Single
1760 OFPM T413014 06/09/2014 2014-09-23 14:00 2014-09-23 15:00 S.C.P/S END MILL DIA:9X9X45X80-P30.   0.00 Single
1761 OFPM T413114 06/09/2014 2014-11-11 14:00 2014-11-11 15:00 C.TURNING INSERT DNMG 150608-TK35/GC435   0.00 Single
1762 OFPM T413214 06/09/2014 2014-09-30 14:00 2014-09-30 15:00 SINGLE POINT DIAMOND DRESS 12X150X1.5 CA C/THREADI INSERT R166 OG 16MM01 125 1020   0.00 Single
1763 OFPM T413314 06/09/2014 2014-10-14 14:00 2014-10-14 15:00 5 DIGIT ROTARY NUMBER PUNCHING.   0.00 Single
1764 OFPM T413414 06/09/2014 2014-10-14 14:00 2014-10-14 15:00 T-MAX SQUARE SHOULDER FACEMILL CUTTER   0.00 Single
1765 OFPM T413514 06/09/2014 2014-10-14 14:00 2014-10-14 15:00 SPECIAL REAMER DIA:80MM.   0.00 Single
1766 OFPM T413614 06/09/2014 2014-10-14 14:00 2014-10-14 15:00 POWER HACKSAW BLADES 525X40X2MM 6 TPI   0.00 Single
1767 OLF 1406010362 06/09/2014 2014-10-20 15:00 2014-10-20 15:00 RANDOM GLASS SLAB/BLOCK LK-105   33939.00 Single
1768 OLF 1406010363 06/09/2014 2014-10-17 11:15 2014-10-17 11:15 S/C CENT.CUT-2 FLUT.P/S SLOT M,S/C 2 FLU CENT.CUT.SLOT MILL12,SOLID CARBIDE CENTER CUT 16 MM,S/C-2 FLU.-SLOT MILL- DIA 6 MM   19450.00 Single
1769 OLF 1406010364 06/09/2014 2014-10-17 15:00 2014-10-17 15:00 CRANK SHAFT,CRANK SHAFT   77275.00 Single
1770 OLF 1406010365 06/09/2014 2014-10-17 15:00 2014-10-17 15:00 LENS HOOLD JACKET   6742.00 Single
1771 AFK 20140449 05/09/2014 2014-10-07 14:00 2014-10-07 14:30 TONER CARTRIDGE NO-C388A, TONER CARTRIDGE NO.CE505A(B&W)FORHP, PRINTER CARTRIDGE C 9351A HP21, PRINTER CARTG. C9352A HP22 COLORED, TONER CARTRIDGE NO. CE278A ETC.   60000.00 Single
1772 HEF TE14150058 05/09/2014 2014-09-25 00:00 2014-09-25 00:00 -RESORCINOL (FLAKES) 1001670703   0.00 Single
1773 HEF TE14150059 05/09/2014 2014-09-25 00:00 2014-09-25 00:00 -ACID HYDROCHLORIC (A.R.G1001011701   0.00 Single
1774 HEF TE14150060 05/09/2014 2014-09-30 00:00 2014-09-30 00:00 -DIMETHYL FORMAMIDE 9910931376   0.00 Single
1775 HEF TE14150061 05/09/2014 2014-09-25 00:00 2014-09-25 00:00 -SPARE BALLAST 70 WATT 1521232001   0.00 Single
1776 HEF TE14150062 05/09/2014 2014-09-30 00:00 2014-09-30 00:00 -STRIKER (DET 3 PART) 6140600400   0.00 Single
1777 HEF TE14150063 05/09/2014 2014-09-30 00:00 2014-09-30 00:00 -DIMETHYL ANILINE 1001132003   0.00 Single
1778 HEF TE14150064 05/09/2014 2014-09-30 00:00 2014-09-30 00:00 -FILLING HOLE PLUG (ALUMN)6140604001   0.00 Single
1779 HEF TE14150065 05/09/2014 2014-09-30 00:00 2014-09-30 00:00 -STRIKER LEVER MKG.FOR HAN5508104056   0.00 Single
1780 HEF TE14150066 05/09/2014 2014-09-30 00:00 2014-09-30 00:00 -LEAD NITRATOR - HE 5075/22026100001   0.00 Single
1781 OPF 110140336 05/09/2014 2014-09-25 14:00 2014-09-25 14:30 (1) CLAMP (2) METAL COMPONENT-PIN (3) PIN (U PIN)   0.00 Single
1782 OPF 110140337 05/09/2014 2014-09-25 14:00 2014-09-25 14:30 (1) METAL COMPONENT-RING(370 MM DIA) (2) ADAPTER LINK(METAL COMPONENT (3) METAL COMPONENT-SPRING   0.00 Single
1783 OPF 110140338 05/09/2014 2014-09-25 14:00 2014-09-25 14:30 (1) RING (14.5 MM DIA) (2) RING 14.5 DIA   0.00 Single
1784 OPF 110140339 05/09/2014 2014-09-25 14:00 2014-09-25 14:30 (1) RING (14.5 MM DIA) (2) RING 14.5 DIA (3) METAL-RING 38 MM DIA (4) METAL RING 50 MM DIA   0.00 Single
1785 OPF 110140340 05/09/2014 2014-09-25 14:00 2014-09-25 14:30 (1) SECTION MULTIPURPOSE PACKING FRAME (2) PACKING PANEL (3) SPIKE   0.00 Single
1786 OFKAT 2014000206 05/09/2014 2014-09-05 14:30 2014-09-05 14:30 CORDLESS TELEPHONE SET   0.00 Single
1787 OFK 14CST-0518 05/09/2014 2014-09-26 14:30 2014-09-26 13:00 BALLAST COPPER WIRE WOUND 400 WATTS   0.00 Single
1788 SAF 3143000686 05/09/2014 2014-09-26 14:30 2014-09-26 15:00 CHEST FOR 9MM CARBINE AS PER D,   0.00 Single
1789 OCFAV 213/14-15 05/09/2014 2014-09-24 14:30 2014-09-24 14:30 ENERGY EFFICIENT STREET LIGHT4X14W   9500.00 Single
1790 OFBA 140415 05/09/2014 2014-09-18 14:30 2014-09-18 14:30 FRESH MILK,AS PER SPECN ATTACH   9000.00 Single
1791 OCFC 2014LTE272 05/09/2014 2014-09-30 00:00 2014-09-30 00:00 ,PLUG SHRG20P4ESH8 ,PLUG FEMALE SHR32P10ESH1 ,PLUG FEMALE SSHR32P10ESH4 ,PLUG FEMALE SHR40P16ESH2   0.00 Single
1792 OFDC 140339M3LT 05/09/2014 2014-09-26 00:00 2014-09-26 14:30 ADHESIVE PACKING TAPE-W 3"XL65 G.I.CLIP PUNCHING MACHINE/EQUI STEEL STRIP PUNCHING MACHINE /   0.00 Single
1793 OFDC 140340M2LT 05/09/2014 2014-09-26 00:00 2014-09-26 14:30 5 WAY SOLENOID VALVE,220 V AC ANGLE PNEUMATIC OPERATED PSA 3/2 SINGLE SOLENOID VALVE 2/2 SINGLE SOLENOID VALVE   0.00 Single
1794 HVF 0211396 05/09/2014 2014-09-22 12:00 2014-09-22 15:00 SCREW WITH COLLET , etc.   0.00 Single
1795 HVF 0413197 05/09/2014 2014-09-17 12:00 2014-09-17 15:00 REAR VALVE ASSY , etc.   0.00 Single
1796 HVF 0413198 05/09/2014 2014-09-15 12:00 2014-09-15 15:00 TUBULAR RIVET , etc.   0.00 Single
1797 HVF 0413199 05/09/2014 2014-09-30 12:00 2014-09-30 15:00 OIL PRIMING PUMP MEH-2C WITH ELECTRIC , etc.   0.00 Single
1798 HVF 0413200 05/09/2014 2014-09-12 12:00 2014-09-12 15:00 BEARING 7000105 OR 6-7000105 , etc.   0.00 Single
1799 OFAJ RS2140240 05/09/2014 2014-10-07 14:00 2014-10-07 15:00 DISPLAY UNIT., GAUGE MANIFOLD SET   0.00 Single
1800 OFAJ RS2140241 05/09/2014 2014-10-07 14:00 2014-10-07 15:00 INSULATION PAPER E-CLASS WHITE10MIL   0.00 Single
1801 OFAJ RS2140242 05/09/2014 2014-10-07 14:00 2014-10-07 15:00 TAPERED GRID COUPLING TYPE 80T 20,   0.00 Single
1802 OFAJ SS2140061 05/09/2014 2014-09-26 14:00 2014-09-26 15:00 NUB TO CQA(AMMN)DRG.NO.155-1050.   0.00 Single
1803 OFAJ TS2140121 05/09/2014 2014-10-08 14:00 2014-10-08 15:00 GRANITE SURFACE PLATE SIZE 2000MM X   0.00 Single
1804 OFT D22UH52347 05/09/2014 2014-09-18 14:30 2014-09-18 15:00 S.C.T SLOT CUTTER 40.8 X 2.5   0.00 Single
1805 OFT D492H52345 05/09/2014 2014-09-30 14:30 2014-09-30 15:00 MG SC CC END MILL DIA 5 MM   0.00 Single
1806 OFT D49UH52346 05/09/2014 2014-09-30 14:30 2014-09-30 15:00 DTD 5124 ,DTD 5124   0.00 Single
1807 OFCH 201400318 05/09/2014 2014-10-09 14:00 2014-10-09 14:30 DATA SHEET   0.00 Single
1808 OFPM A403814 05/09/2014 2014-11-18 14:00 2014-11-18 15:00 HIRING OF 17 LABOURERS TO MEET THE REQUI   0.00 Single
1809 OFPM R403614 05/09/2014 2015-01-24 14:00 2015-01-24 15:00 ST.SHEET TO S:4.0X1250X2500, 30C8IS:5517   0.00 Single
1810 OFPM R403714 05/09/2014 2014-12-19 14:00 2014-12-19 15:00 ST.SHEET 1X1250X2500MM GR Fe330, IS:1079   0.00 Single
1811 OFPM R403814 05/09/2014 2014-10-31 14:00 2014-10-31 15:00 ST.SH:0.5MM THICK IN STD GR-DD TS:513-86   0.00 Single
1812 OFPM R404014 05/09/2014 2014-12-19 14:00 2014-12-19 15:00 ST SH 1.5X STD SIZE GR:DD IS:1079-75   0.00 Single
1813 OFPM R404114 05/09/2014 2014-10-31 14:00 2014-10-31 15:00 ST.SH 0.5X1250X2500MM GR:DD IS:513-86   0.00 Single
1814 OFPM R404214 05/09/2014 2015-02-03 14:00 2015-02-03 15:00 ST.SHEET:1.5X1250X2500MM Gr.DD IS:513-86   0.00 Single
1815 OFPM R404314 05/09/2014 2015-01-21 14:00 2015-01-21 15:00 COLD ROLLED STEEL SHEET 2MM IS:513 DD   0.00 Single
1816 OFPM R404414 05/09/2014 2014-12-19 14:00 2014-12-19 15:00 CR ST SH 1MM THICK O4CR18Ni10Ti20IS:6911   0.00 Single
1817 OFPM U402414 05/09/2014 2014-10-10 14:00 2014-10-10 15:00 MS PLATES 3.15X1250X2500MM   0.00 Single
1818 HAPP 14/0161 05/09/2014 2014-09-30 14:00 2014-09-30 14:30 INSERT DNMG 150604 - CVD/PVD COATED   0.00 Single
1819 HAPP 14/0162 05/09/2014 2014-09-30 14:00 2014-09-30 14:30 INSERT CCMT 09T308-CVD/PVD COATED   0.00 Single
1820 EFA 14100506 05/09/2014 2014-09-20 00:00 2014-09-20 00:00 CLUSTER GEAR   0.00 Single
1821 OLF 1406010358 05/09/2014 2014-10-06 15:00 2014-10-06 15:00 PRESSURE DIE CASTING TO HANDLE,NIE CASTING COVER   0.00 Single
1822 OLF 1406010359 05/09/2014 2014-10-06 15:00 2014-10-06 15:00 INVESTMENT CASTING HOOK,INVESTMENT CASTING FOR CASING   11948.00 Single
1823 OLF 1406010360 05/09/2014 2014-10-06 15:00 2014-10-06 15:00 PRESSURE DIE CASTING COVER,COVER,PRESSURE DIE CASTING HOLDER,DIE CASTING HOLDER,PRESSURE DIE CASTING COVER   8537.00 Single
1824 OLF 1406260361 05/09/2014 2014-09-22 15:00 2014-09-22 15:00 LASER PRINTER CARTRIDGE P1007   12173.00 Single
1825 OFDR 2014000269 05/09/2014 2014-09-19 14:30 2014-09-19 15:00 1. DYE OIL ORANGE COLOUR   3.00 Single
1826 OFDR 2014000270 05/09/2014 2014-09-19 14:30 2014-09-19 15:00 1. HEXACHLOROETHENE POWDER   3.00 Single
1827 OFDR 2014000271 05/09/2014 2014-10-02 14:30 2014-10-02 15:00 1. HYDRAULIC PRESS 120 TON CAPACITY.   2.00 Single
1828 MSF 14TE210393 04/09/2014 2014-10-10 14:30 2014-10-10 14:30 PAINT OLIVE GREEN (FOR BOX G-70) etc.   Single
1829 MSF 14TE210394 04/09/2014 2014-10-10 14:30 2014-10-10 14:30 PAINT RED OXIDE (BOX G-70) etc.   Single
1830 MSF 14TE210395 04/09/2014 2014-10-10 14:30 2014-10-10 14:30 M.S. REVETS 5MM DIA X10 MM MM etc.   Single
1831 MSF 14TE210397 04/09/2014 2014-10-10 14:30 2014-10-10 14:30 150 MM STRAIGHT GRINDER, VOLTAGE- etc.   Single
1832 MSF 14TE220396 04/09/2014 2014-09-26 14:30 2014-09-26 14:30 LOAD SCREW & LOAD NUT ,ESR/1000/62 SCREW CONVEYOR OF BATCHER OF ESR etc.   Single
1833 GSF 1400000859 04/09/2014 2014-09-27 00:00 2014-09-27 00:00 OPERATING EFFLUENT TREATMENT PLANT,   38200.00 Single
1834 GSF 1400000860 04/09/2014 2014-09-27 00:00 2014-09-27 00:00 A.M.C. FOR LOCAL AREA NETWORK & ON-LINE SYSTEM.,   24000.00 Single
1835 GSF 1400000861 04/09/2014 2014-09-27 00:00 2014-09-27 00:00 COLLECTION OF MATERIAL FROM MUMBAI PORT/EMBARKATIO,   44100.00 Single
1836 GSF 1400000862 04/09/2014 2014-09-27 00:00 2014-09-27 00:00 SODIUM STANNATE SPECN. IS:3026-1968,   16900.00 Single
1837 GSF 1400000863 04/09/2014 2014-09-27 00:00 2014-09-27 00:00 MARGO SOAP WEIGHT 90 GRAMS EACH.,   27000.00 Single
1838 OFA B4TE110397 04/09/2014 2014-09-30 14:30 2014-09-30 15:00 ,FINAL DRAW CARBIDE DIE CG84/T/11032 etc.   0.00 Single
1839 OFA B4TE120396 04/09/2014 2014-09-26 14:30 2014-09-26 15:00 ,INDUSTRIAL TRACTOR TYRE WITH TUBE. etc.   0.00 Single
1840 OFKAT 2014000203 04/09/2014 2014-10-14 14:30 2014-10-14 14:30 ASBESTOS CEMENT PLAIN SHEET   0.00 Single
1841 OFKAT 2014000204 04/09/2014 2014-09-04 14:30 2014-09-04 14:30 TPT FROM O.F.KAT.TO OFV   0.00 Single
1842 OFKAT 2014000205 04/09/2014 2014-10-16 14:30 2014-10-16 14:30 MEGGER 500 VOLT, MEGGER 1000 VOLT   0.00 Single
1843 OFK 14CST-0514 04/09/2014 2014-09-26 14:30 2014-09-26 13:00 LADIES SARIES WHITE COTTON 5 1/2MTR   0.00 Single
1844 OFK 14CST-0515 04/09/2014 2014-09-26 14:30 2014-09-26 13:00 TOWEL TURKISH 44"*24"   0.00 Single
1845 OFK 14CST-0517 04/09/2014 2014-09-26 14:30 2014-09-26 13:00 WATER METER SIZE 15MM,IS:779 CLAS B,WATER METER SIZE 20MM,IS:779 CLAS B,WATER METER SIZE 25MM,IS:779 CLAS B,WATER-METER SIZE 80MM,IS-6784/ISO etc.   0.00 Single
1846 SAF 3143000672 04/09/2014 2014-09-29 14:30 2014-09-29 15:00 R216.3412050 AK 26P 1620 SOLID,   0.00 Single
1847 SAF 3143000673 04/09/2014 2014-09-19 14:30 2014-09-19 15:00 INSERT GSFN 3.1 J-R1 IC 328,   0.00 Single
1848 SAF 3143000674 04/09/2014 2014-09-30 14:30 2014-09-30 15:00 SOLID CARBIDE END MILL CUTTER,   0.00 Single
1849 SAF 3143000675 04/09/2014 2014-09-30 14:30 2014-09-30 15:00 FILE TRIANGULAR SECOND CUT 200,FILE SQR.BASTARD 250MM (10"),FILE HALF ROUND SECOND CUT 250,   0.00 Single
1850 SAF 3143000676 04/09/2014 2014-09-30 14:30 2014-09-30 15:00 INSERT CARBIDE NO OCK X 0606 A,FACE MILL ADOPTER MAKE OTTO BI,TWIN CUTTER 52 MM DIA MAKE FET,   0.00 Single
1851 SAF 3143000677 04/09/2014 2014-09-30 14:30 2014-09-30 15:00 SOLID CARBIDE REAMER DIA 7.976,   0.00 Single
1852 SAF 3143000678 04/09/2014 2014-09-30 14:30 2014-09-30 15:00 SOLID CARBIDE FULL FORM REAMER,   0.00 Single
1853 SAF 3143000679 04/09/2014 2014-09-23 14:30 2014-09-23 15:00 SOLID CARBIDE DRILL DIA 8.5 X,   0.00 Single
1854 SAF 3143000680 04/09/2014 2014-09-23 14:30 2014-09-23 15:00 SOLID CARBIDE CORE DRILL DIA 8,   0.00 Single
1855 SAF 3143000681 04/09/2014 2014-09-23 14:30 2014-09-23 15:00 SOLID CARBIDE DRILL DIA 7.8MM,   0.00 Single
1856 SAF 3143000682 04/09/2014 2014-09-23 14:30 2014-09-23 15:00 SOLID CARBIDE TAPER DRILL DIA,   0.00 Single
1857 SAF 3143000683 04/09/2014 2014-09-30 14:30 2014-09-30 15:00 BORING BAR STEEL SHANK SANDVIK,INSERT CERMET CCMT 060202 PF G,   0.00 Single
1858 SAF 3143000684 04/09/2014 2014-09-26 14:30 2014-09-26 15:00 SIDE STOCK TRIGGER GRIP RIGHT,   0.00 Single
1859 SAF 3143000685 04/09/2014 2014-10-10 14:30 2014-10-10 15:00 TANK CAPACITOR 15 KV 4000 PF +,   0.00 Single
1860 OFBA 140407 04/09/2014 2014-10-09 14:30 2014-10-09 14:30 WATER HARDNESS TEST TABLET   0.00 Single
1861 OFBA 140408 04/09/2014 2014-10-09 14:30 2014-10-09 14:30 PIPE WRENCH HEAVY DUTY SZ-24"   0.00 Single
1862 OFBA 140409 04/09/2014 2014-10-09 14:30 2014-10-09 14:30 NOZZLE 500KG/HR FOR BOILER 80A   0.00 Single
1863 OFBA 140410 04/09/2014 2014-10-09 14:30 2014-10-09 14:30 SINGLE PHASE WELDING M/C   0.00 Single
1864 OFBA 140411 04/09/2014 2014-10-14 14:30 2014-10-14 14:30 MORVIS BALANCED SPUR GEAR CHAI   0.00 Single
1865 OFBA 140412 04/09/2014 2014-10-14 14:30 2014-10-14 14:30 SPINDLE ASSY.COMPLETE.SZ:DN-25   0.00 Single
1866 OFBA 140413 04/09/2014 2014-11-12 14:30 2014-11-12 14:30 KIRLOSKAR PUMP,20HP,2900 RPM   21200.00 Single
1867 OCFC 2014LTE270 04/09/2014 2014-09-30 00:00 2014-09-30 00:00 ,PLUG SHRG20P4ESH8 ,PLUG FEMALE SHR32P10ESH1 ,PLUG FEMALE SSHR32P10ESH4 ,PLUG FEMALE SHR40P16ESH2   0.00 Single
1868 HVF 0108917 04/09/2014 2014-09-18 12:00 2014-09-18 15:00 BOSS , etc.   0.00 Single
1869 HVF 0108918 04/09/2014 2014-09-29 12:00 2014-09-29 15:00 PIN , etc.   0.00 Single
1870 HVF 0108919 04/09/2014 2014-10-01 12:00 2014-10-01 15:00 STRIP , etc.   0.00 Single
1871 HVF 0413193 04/09/2014 2014-09-25 12:00 2014-09-25 15:00 VALVE ASSEMBLY DRAWING , etc.   0.00 Single
1872 OFAJ FS2140093 04/09/2014 2014-09-04 14:00 2014-09-04 15:00 EXTENSION TO OFAJ DRG.NO.FS-2759C.   0.00 Single
1873 OFAJ NS2140017 04/09/2014 2014-09-30 14:00 2014-09-30 15:00 AL-TI. B ROD 9.5 MM DIA (COIL FORM)   0.00 Single
1874 OFAJ RS2140237 04/09/2014 2014-09-04 14:00 2014-09-04 15:00 TYRE TUBELESS SIZE 235/70/R/16   0.00 Single
1875 OFAJ RS2140238 04/09/2014 2014-09-30 14:00 2014-09-30 15:00 HALF YRLY.SERVICING OF OJ/4692, PERIODICAL SERV.&CALB, OJ/3951., PERIODICAL SERV.&CALIB. OJ/3897., PERIODICAL SERVICING OF OJ/3089., ROCK.HARD.TESTER : SERV.&CALIB., SERVICING AND CALIBRATION OF M/C.,   0.00 Single
1876 OFAJ SS2140060 04/09/2014 2014-10-01 14:00 2014-10-01 15:00 EXTERNAL GROOVING 2MM TOOLING SET, INT.GROOV.UNDER CUT TOOL 2.5MM T/SE, INT.PRE TUNED DAMP CLY BOR.BAR T/SE, INT.PRE TUNED DAMP.CYL.BOR.BAR,CUTT, INT.THREADING TOOL 2MM PITCH T/SET   0.00 Single
1877 OFT D182G52344 04/09/2014 2014-11-11 14:30 2014-11-11 15:00 BAYONET 2A   0.00 Single
1878 OFT D491H52335 04/09/2014 2014-09-30 14:30 2014-09-30 15:00 TURNING TOOL HOLDER SVJBL 2525   0.00 Single
1879 OFT D49UH52336 04/09/2014 2014-09-30 14:30 2014-09-30 15:00 DOVE TAIL CUTTER DIA 5mm   0.00 Single
1880 OFT D49UH52337 04/09/2014 2014-09-30 14:30 2014-09-30 15:00 S.C.C.C. END MILL DIA 8 MM   0.00 Single
1881 OFT D49UH52338 04/09/2014 2014-09-30 14:30 2014-09-30 15:00 M.G. S.C. CENTRE CUTTING E.M.   0.00 Single
1882 OFT D49UH52339 04/09/2014 2014-09-30 14:30 2014-09-30 15:00 INSERTS DNMG 150604 COATED   0.00 Single
1883 OFT D49UH52340 04/09/2014 2014-09-30 14:30 2014-09-30 15:00 M.G. S.C. CENTRE CUTTING END   0.00 Single
1884 OFT D49UH52341 04/09/2014 2014-09-30 14:30 2014-09-30 15:00 MG.SC.CC.SLOT DRILL DIA 2MM   0.00 Single
1885 OFT D49UH52342 04/09/2014 2014-09-30 14:30 2014-09-30 15:00 CARDIBE 'T' SLOT CUTTER 20 MM   0.00 Single
1886 OFT D49UH52343 04/09/2014 2014-09-30 14:30 2014-09-30 15:00 MG SC CHAMFERING ENDMILL DIA 6   0.00 Single
1887 OFPM C409714 04/09/2014 2014-10-28 14:00 2014-10-28 15:00 BAR CODE BASED FILE TRACKING SYSTEM   0.00 Single
1888 OFPM V411414 04/09/2014 2014-10-15 14:00 2014-10-15 15:00 LINK TO DRG.NO.9H-623   0.00 Single
1889 EFA 14300050 04/09/2014 2014-09-12 00:00 2014-09-12 00:00 CAP OF MASTER CONNECTING ROD   0.00 Single
1890 OLF 1406010357 04/09/2014 2014-09-29 15:00 2014-09-29 15:00 S/R BEARING 8X22X7 BRASS CAGE   0.00 Single
1891 OFDR 2014000266 04/09/2014 2014-09-26 14:30 2014-09-26 15:00 1. PACKING FITMENT FOR C.S.16MM   3.00 Single
1892 OFDR 2014000267 04/09/2014 2014-09-16 14:30 2014-09-16 15:00 1. TAIL ADAPTER FOR 51 MM SMOKE   2.00 Single
1893 OFDR 2014000268 04/09/2014 2014-09-26 14:30 2014-09-26 15:00 1. POTTASSIUM NITRATE GRADE-II   3.00 Single
1894 AFK 20140447 03/09/2014 2014-09-26 14:00 2014-09-26 14:30 DRILL TWIST 1MM HSS   11360.00 Single
1895 OEFC 20140323 03/09/2014 2014-09-03 13:30 2014-09-03 14:00 FABRIC WATER PROOF RUBBERISED WHITE 91CM   0.00 Single
1896 MSF 14TE210392 03/09/2014 2014-09-26 14:30 2014-09-26 14:30 SHIM FOR TOOL HOLDER etc.   Single
1897 CFA 14PVTE0212 03/09/2014 2014-09-23 13:00 2014-09-23 14:00 ANALOG INSULATION TESTER   12416.00 Single
1898 CFA 14PVTE0213 03/09/2014 2014-09-23 13:00 2014-09-23 14:00 FLANGE M.S. SCREWED 100 MM   0.00 Single
1899 CFA 14PVTE0214 03/09/2014 2014-09-23 13:00 2014-09-23 14:00 S/P ARMSTRONG PUMP 4300-40-150S/P ARMSTRONG PUMP 4300-80-150   0.00 Single
1900 CFA 14PVTE0215 03/09/2014 2014-09-19 13:00 2014-09-19 14:00 DIETHYLPHTHLATE   62969.00 Single
1901 GSF 1400000847 03/09/2014 2014-09-15 00:00 2014-09-15 00:00 PIN TO DRG NO PIN 5PR22AX55.40XK38.5..45.5 HRC, BOLT TO DRG NO BOLT M-10-8GX55.109.40X.029 IN F/C.,   0.00 Single
1902 GSF 1400000848 03/09/2014 2014-09-15 00:00 2014-09-15 00:00 NUT M4-6G.10.40KH.026 GOST:5927-70,GRADE EN 19 TO,   0.00 Single
1903 GSF 1400000849 03/09/2014 2014-09-15 00:00 2014-09-15 00:00 Bolt M6-8gx16.109.40x.029 Gost 7805-70, Bolt.2M10-8gx40.109.40x.209 GOST:7798-70,   0.00 Single
1904 GSF 1400000850 03/09/2014 2014-09-15 00:00 2014-09-15 00:00 NUT.2M10-6G.10.40X.029 GOST:5919-73, SCREW.VM4-6GX30.109.40X.029 GOST:17475-80, BOLT.M10-8GX70.109.40X.029 GOST:7798-70, BOLT.M10-8GX75.109.40X.029 GOST:7798-70, BOLT.M6-8GX45.109.40X.029 GOST:7   0.00 Single
1905 GSF 1400000852 03/09/2014 2014-09-15 00:00 2014-09-15 00:00 Bolt to specn.3M8-8G X 45.109.40 X .029, NUT M-6G.10.40 X .029. GOST:11860-85., WASHER. SIZE: A6X1.5.25.029, WASHER.8.01.8 KP.029,   0.00 Single
1906 GSF 1400000853 03/09/2014 2014-09-15 00:00 2014-09-15 00:00 ANGLE PIECE. DRG.NO.AK-630 106-15, PIN. DRG.NO.AK-630 106-6, COVER TO DRG NO AK-630 106-19 IN F/C.,   0.00 Single
1907 GSF 1400000854 03/09/2014 2014-09-15 00:00 2014-09-15 00:00 BRACKET AS PER DRG.NO.AK-630.111.3 GOST.16523-97,   0.00 Single
1908 GSF 1400000855 03/09/2014 2014-09-15 00:00 2014-09-15 00:00 COTTER PIN.2.5X25.029 GOST:397-79, WASHER.10.01.08 KP.029 GOST:13463-77,   0.00 Single
1909 GSF 1400000856 03/09/2014 2014-09-15 00:00 2014-09-15 00:00 BUSH TO DRG NO AK-630 120-9 IN F/C.,   0.00 Single
1910 GSF 1400000857 03/09/2014 2014-09-10 00:00 2014-09-10 00:00 TRANSPORTATION OF AK630 M GUN,GSF TO WED KARWAR,,   0.00 Single
1911 OFA B4TE110395 03/09/2014 2014-09-19 14:30 2014-09-19 15:00 ,TPT OF DEF STORE TO CPE ITARSI 16MT etc.   0.00 Single
1912 OFKAT 2014000198 03/09/2014 2014-10-07 14:30 2014-10-07 14:30 SUBMERSIBLE PUMP WITH 2HPMOTOR, SUBMERSIBLE PUMP WITH MOTOR5HP, SUBMERSIBLE PUMPWITH MOTOR10HP   0.00 Single
1913 OFKAT 2014000199 03/09/2014 2014-09-03 14:30 2014-09-03 14:30 HOUSE KEEPING IN/OUT SIDE FY.   0.00 Single
1914 OFKAT 2014000200 03/09/2014 2014-09-03 14:30 2014-09-03 14:30 T.P.T OF GOVT.MATERIAL   0.00 Single
1915 OFKAT 2014000201 03/09/2014 2014-09-25 14:30 2014-09-25 14:30 SUPPLY & FIXING OF PUMP/MOTOR   0.00 Single
1916 OFKAT 2014000202 03/09/2014 2014-09-25 14:30 2014-09-25 14:30 TPT FROM OKAT TO OFA BY ROAD   0.00 Single
1917 OFK 14CST-0510 03/09/2014 2014-09-26 14:30 2014-09-26 13:00 JERSEY WOOLLEN BLUE FOR LADIES 85CM,JERSEY WOOLLEN BLUE FOR LADIES 90CM,LADIES JERSEY WOLLEN SIZE 95 CM etc.   0.00 Single
1918 OFK 14CST-0511 03/09/2014 2014-09-26 14:30 2014-09-26 13:00 HIR.OFALU.TIL.T/LADDER MOPUNTED VEH   0.00 Single
1919 OFK 14CST-0512 03/09/2014 2014-09-26 14:30 2014-09-26 13:00 HIR.PVT/TRUCK(EX-MI MATHURA TO OFK)   0.00 Single
1920 OFK 14CST-0513 03/09/2014 2014-09-26 14:30 2014-09-26 13:00 BOTTLE TOP DISPENSER WITH SAFETY,DIGITAL TOP BURET CAPACITY 50ML etc.   0.00 Single
1921 SAF 3143000670 03/09/2014 2014-09-23 14:30 2014-09-23 15:00 FILE SQR SECOND CUT 150MM(6"),   0.00 Single
1922 OFBA 140406 03/09/2014 2014-09-25 14:30 2014-09-25 14:30 RING BRASS FOR EXTRUSION   0.00 Single
1923 OCFC 2014LTE269 03/09/2014 2014-09-30 00:00 2014-09-30 00:00 ,PLUG SHRG20P4ESH8 ,PLUG FEMALE SHR32P10ESH1 ,PLUG FEMALE SSHR32P10ESH4 ,PLUG FEMALE SHR40P16ESH2   0.00 Single
1924 OFDC 140334M3LT 03/09/2014 2014-09-23 00:00 2014-09-23 14:30 TONAR CARTRIDGE REFILING   0.00 Single
1925 OFDC 140335M3LT 03/09/2014 2014-09-23 00:00 2014-09-23 14:30 TONAR CARTRIDGE REFILING   0.00 Single
1926 OFDC 140336M1LT 03/09/2014 2014-09-16 00:00 2014-09-16 14:30 HDPE M 5018 L(18MFI)GRANULE.   0.00 Single
1927 HVF 0211392 03/09/2014 2014-09-22 12:00 2014-09-22 15:00 NUTS(CONSISTS OF 32 ITEMS) , etc.   0.00 Single
1928 HVF 0211394 03/09/2014 2014-09-16 12:00 2014-09-16 15:00 GASKET , etc.   0.00 Single
1929 HVF 0211395 03/09/2014 2014-09-13 12:00 2014-09-13 15:00 GASKET , etc.   0.00 Single
1930 HVF 0413184 03/09/2014 2014-09-17 12:00 2014-09-17 15:00 GASKET , etc.   0.00 Single
1931 HVF 0413186 03/09/2014 2014-09-24 12:00 2014-09-24 15:00 SCREW ASSEMBLY DRAWING , etc.   0.00 Single
1932 HVF 0413187 03/09/2014 2014-09-15 12:00 2014-09-15 15:00 SUB ASSY FLOAT , etc.   0.00 Single
1933 HVF 0413188 03/09/2014 2014-10-10 12:00 2014-10-10 15:00 GAUZE , etc.   0.00 Single
1934 HVF 0413189 03/09/2014 2014-09-24 12:00 2014-09-24 15:00 PIPE , etc.   0.00 Single
1935 HVF 0413190 03/09/2014 2014-09-24 12:00 2014-09-24 15:00 PIPE , etc.   0.00 Single
1936 HVF 0413191 03/09/2014 2014-09-24 12:00 2014-09-24 15:00 PIPE , etc.   0.00 Single
1937 HVF 0511385 03/09/2014 2014-09-16 12:00 2014-09-16 15:00 43 GRADE ORDINARY PORTLAND CEMENT , etc.   0.00 Single
1938 OFAJ FS2140092 03/09/2014 2014-10-06 14:00 2014-10-06 15:00 BALLISTIC CAP OFAJ DRG.NO.FS-2771 C   0.00 Single
1939 OFAJ RS2140228 03/09/2014 2014-09-25 14:00 2014-09-25 15:00 AIR CURTAIN FOOT MOUNTED.   0.00 Single
1940 OFAJ RS2140229 03/09/2014 2014-09-25 14:00 2014-09-25 15:00 ELECTRICAL MAINTENANCE KIT.   0.00 Single
1941 OFAJ RS2140230 03/09/2014 2014-09-30 14:00 2014-09-30 15:00 TEL.AUTO EXECUTIVE SECRETARY SYSTEM, TELEPHONE INTSTRUMENT.   0.00 Single
1942 OFAJ RS2140231 03/09/2014 2014-09-30 14:00 2014-09-30 15:00 SET OF`V'BELT ENDLESS   0.00 Single
1943 OFAJ RS2140232 03/09/2014 2014-09-30 14:00 2014-09-30 15:00 COPPER PLATE EARTHING COMPLETE   0.00 Single
1944 OFAJ RS2140233 03/09/2014 2014-09-30 14:00 2014-09-30 15:00 BALLSCREW 40X6X880 Y-AXIS OJ/4052.   0.00 Single
1945 OFAJ RS2140234 03/09/2014 2014-10-07 14:00 2014-10-07 15:00 ONLINE PARTICAL COUNTER   0.00 Single
1946 OFT D150R93277 03/09/2014 2014-09-30 14:30 2014-09-30 15:00 TRACING SHEEET FOR DRAWING -SI   0.00 Single
1947 OFT D150R93278 03/09/2014 2014-09-30 14:30 2014-09-30 15:00 TRACING SHEET FOR DRAWING - SI   0.00 Single
1948 OFT D150R93279 03/09/2014 2014-09-30 14:30 2014-09-30 15:00 TRACING SHEET FOR DRAWING - SI   0.00 Single
1949 OFT D550H93275 03/09/2014 2014-09-30 14:30 2014-09-30 15:00 FEELER STRIPS FOR CHECKING GAP ,FEELER STRIP 0.050X12X300   0.00 Single
1950 OFT D550H93276 03/09/2014 2014-09-30 14:30 2014-09-30 15:00 VERNIER CALIPER 0-200 MM   0.00 Single
1951 OFT D556H93274 03/09/2014 2014-09-30 14:30 2014-09-30 15:00 ARC WELDING ELECTRODE COBALT   0.00 Single
1952 OFT D685D52334 03/09/2014 2014-09-30 14:30 2014-09-30 15:00 PROTECTOR TO DRG NO.29P 0050*   0.00 Single
1953 OFT D685E52333 03/09/2014 2014-09-30 14:30 2014-09-30 15:00 SPRING EXTRACTOR DRG. NO.SP-19   0.00 Single
1954 OFPM H426414 03/09/2014 2014-10-03 14:00 2014-10-03 15:00 FILTER 765-05CD-548 OIL FILTER 765-06-CD234   0.00 Single
1955 OFPM R403514 03/09/2014 2014-09-26 14:00 2014-09-26 15:00 FERRO TITANIUM   0.00 Single
1956 OFPM T412314 03/09/2014 2014-10-14 14:00 2014-10-14 15:00 BORE MEASURING GAUGE DIA.18-35MM BORE MEASURING GAUGE RANGE 50-150MM MITUTOYO MAKE BORE MEASURING GAUGE. VERNIER HEIGHT GAUGE STANDARD 450MM.   0.00 Single
1957 OFPM T412414 03/09/2014 2014-10-14 14:00 2014-10-14 15:00 INSERT TCMT 16T308-TK 35   0.00 Single
1958 OFPM T412514 03/09/2014 2014-10-14 14:00 2014-10-14 15:00 EXTERNAL THREADING INSERT 2MM PITCH 16ER   0.00 Single
1959 EFA 14300049 03/09/2014 2014-09-12 00:00 2014-09-12 00:00 ARTICULATED CONNECTING ROD   0.00 Single
1960 EFA 14600130 03/09/2014 2014-09-19 00:00 2014-09-19 00:00 PULLEY; PULLEY; FILTER ELEMENT PI 4105 SM25 OF MAKE; FILTER ELEMENT2.140H10P FOR FILTER;   0.00 Single
1961 OLF 1406010353 03/09/2014 2014-10-06 15:00 2014-10-06 15:00 SEALED KEY BOARD WITH OMRON,SEALED KEY BOARD WITH OMRON   0.00 Single
1962 OLF 1406010354 03/09/2014 2014-10-17 15:15 2014-10-17 15:15 PVB FILM 0.38MM THICK X300 MTR   0.00 Single
1963 OLF 1406010355 03/09/2014 2014-10-17 15:15 2014-10-17 15:15 POLISHING POWDER (FTOROPOL)   0.00 Single
1964 OLF 1406010356 03/09/2014 2014-10-17 15:15 2014-10-17 15:15 EMI-EMC GASKET   0.00 Single
1965 AFK 20140446 02/09/2014 2014-09-23 14:00 2014-09-23 14:30 DUNNAGE FOR STACKING AFK/SK-168-04   16900.00 Single
1966 MSF 14TE210389 02/09/2014 2014-09-17 14:30 2014-09-17 14:30 M.S.BLACK PIPE SCREWED AT BOTH END etc.   17284.00 Single
1967 MSF 14TE210390 02/09/2014 2014-09-26 14:30 2014-09-26 14:30 LEDGER PAPER : 51CM X 76CM etc.   Single
1968 MSF 14TE210391 02/09/2014 2014-09-26 14:30 2014-09-26 14:30 FILE COVER BOARD(GRAY)/22" X 28". etc.   Single
1969 CFA 14PVTE0211 02/09/2014 2014-09-19 13:00 2014-09-19 14:00 PAINT ENAMEL WHITEPAINT PFU HIGH GLOSSY SKY BLUE   0.00 Single
1970 GSF 1400000837 02/09/2014 2014-09-27 00:00 2014-09-27 00:00 TOP PAINT - COLOUR OLIVE DRAB IS IS:5-2007,   0.00 Single
1971 GSF 1400000838 02/09/2014 2014-09-28 00:00 2014-09-28 00:00 BETANOX-C ELECTRODES ; 2.5MMX350MM.,   0.00 Single
1972 GSF 1400000839 02/09/2014 2014-09-29 00:00 2014-09-29 00:00 DEVELOPMENT OF LAWN BY PLANTATION OF KOREAN GRASS,   0.00 Single
1973 GSF 1400000840 02/09/2014 2014-09-29 00:00 2014-09-29 00:00 COTTON WASTE WHITE IS:5485-1980 TYPE-1.,   0.00 Single
1974 GSF 1400000841 02/09/2014 2014-09-29 00:00 2014-09-29 00:00 BOOT POLISH BLACK,   0.00 Single
1975 GSF 1400000842 02/09/2014 2014-09-29 00:00 2014-09-29 00:00 BRINELL HARDNESS TESTER WITH MOBILE DATA PROCESSIN,   0.00 Single
1976 GSF 1400000864 02/09/2014 2014-09-22 00:00 2014-09-22 00:00 TRIGGER TO DRG.NO.GF-125069.,   0.00 Single
1977 OCFS 2014000219 02/09/2014 2014-09-12 14:30 2014-09-12 15:00 CUFF STOCKINET NYLON OG WIDTH 6CM   0.00 Single
1978 OPF 110140334 02/09/2014 2014-09-16 14:00 2014-09-16 14:30 (1) FAB.OF COAT COMBAT,DISV.(TRADE ASST   0.00 Single
1979 OPF 110140335 02/09/2014 2014-09-16 14:00 2014-09-16 14:30 (1) FABRIC NYLN 75 GMS UD   0.00 Single
1980 OFK 14CST-0509 02/09/2014 2014-10-07 14:30 2014-10-07 13:00 ANIMAL GLUE IS-852-1969   0.00 Single
1981 OCFAV 205/14-15 02/09/2014 2014-09-29 14:30 2014-09-29 14:30 COMPUTER STNRY.BLANK 10"X12"-1.PLY. COMPUTER STNRY.BLANK 10"X12"-2.PLY. COMPUTER STNRY.BLANK 10" X 12"-3PLY   10100.00 Single
1982 OFBA 140403 02/09/2014 2014-10-09 14:30 2014-10-09 14:30 DIAPHRAGM(BUNA-N)SB1-A.   0.00 Single
1983 OFBA 140404 02/09/2014 2014-10-09 14:30 2014-10-09 14:30 RO50/0100 GLASS PIPE SECTION   0.00 Single
1984 OFBA 140405 02/09/2014 2014-10-07 14:30 2014-10-07 14:30 RUBBER FLEXIBLE HOSE ID-38 MM.   0.00 Single
1985 OCFC 2014LTE268 02/09/2014 2014-09-25 00:00 2014-09-25 00:00 ,PLUG SHRG20P4ESH8 ,PLUG FEMALE SHR32P10ESH1 ,PLUG FEMALE SSHR32P10ESH4 ,PLUG FEMALE SHR40P16ESH2   12713.00 Single
1986 HVF 0211391 02/09/2014 2014-09-15 12:00 2014-09-15 15:00 BOLT , etc.   0.00 Single
1987 HVF 0413183 02/09/2014 2014-09-23 12:00 2014-09-23 15:00 SPRING , etc.   0.00 Single
1988 HVF 0613313 02/09/2014 2014-09-26 12:00 2014-09-26 15:00 THREAD PLUG GAUGE DOUBLE ENDED GO & NOGO , etc.   0.00 Single
1989 OFT D225H52325 02/09/2014 2014-09-23 14:30 2014-09-23 15:00 IND. END MILL DIA 25 MM (MGL) ,INSERT XOMX 120408TR-ME08(MGL)   0.00 Single
1990 OFT D225H52326 02/09/2014 2014-09-23 14:30 2014-09-23 15:00 Ind.SQ.Sh Dia 50mm (ICR 1325) ,INSERT BDMT ( ICR 1325 )   0.00 Single
1991 OFT D330H52328 02/09/2014 2014-09-23 14:30 2014-09-23 15:00 THREE JAW POWER OPERATED HOLLO   0.00 Single
1992 OFT D330H52329 02/09/2014 2014-09-23 14:30 2014-09-23 15:00 THREEJAW POWER OPERATED HOLLOW   0.00 Single
1993 OFT D490H52330 02/09/2014 2014-09-23 14:30 2014-09-23 15:00 TURNING TOOL HOLDER SVJBR 2525   0.00 Single
1994 OFT D491H52323 02/09/2014 2014-09-23 14:30 2014-09-23 15:00 INSERTS VBMT 160404 COATED   0.00 Single
1995 OFT D491H52324 02/09/2014 2014-09-23 14:30 2014-09-23 15:00 CERMET INSERT VBMT 160404 WITH   0.00 Single
1996 OFT D49UH52322 02/09/2014 2014-09-23 14:30 2014-09-23 15:00 DIE FOR HOUSING SIGHT ASSY   0.00 Single
1997 OFT D49UH52327 02/09/2014 2014-09-23 14:30 2014-09-23 15:00 SC REAMER DIA 2.51MM   0.00 Single
1998 OFT D49UH52331 02/09/2014 2014-09-23 14:30 2014-09-23 15:00 INDEXABLE INSERT CCMT 09T304   0.00 Single
1999 OFT D49UH52332 02/09/2014 2014-09-23 14:30 2014-09-23 15:00 S.C. CENTRE CUTTING E.M.DIA 2.   0.00 Single
2000 OFCH 201400316 02/09/2014 2014-09-25 14:00 2014-09-25 14:30 CAP PT.NO.2-4 & SMALL CUP PT.N   0.00 Single
2001 OFCH 201400317 02/09/2014 2014-09-29 14:00 2014-09-29 14:30 TRIMMING CUTTER FOT P.T.TRIMIN TRIMMING CUTTER FOR P.T.TRIMMI TRIMMING CUTTER FOR P.T.TRIMMI   13576.00 Single
2002 FGK 340446 02/09/2014 2014-09-18 00:00 2014-09-18 00:00 OIL SERVOSYSTEM - 68 KINEMATIC,   889725.90 Single
2003 FGK 340447 02/09/2014 2014-09-30 00:00 2014-09-30 00:00 DYNAMIC HARDNESS TESTER PROBE,   0.00 Single
2004 FGK 340448 02/09/2014 2014-10-28 00:00 2014-10-28 00:00 TRANSPORTATION OF RBU-6000,RBU,   0.00 Single
2005 FGK 340449 02/09/2014 2014-10-28 00:00 2014-10-28 00:00 "TRANSPORTATION OF RBU-6000,RB,   0.00 Single
2006 OFPM D404414 02/09/2014 2014-09-23 14:00 2014-09-23 15:00 CLOTH FOR PANT "BROWN" COLOUR CLOTH FOR SHIRT "FAWN" COLOUR.   0.00 Single
2007 EFA 14100504 02/09/2014 2014-09-26 00:00 2014-09-26 00:00 SEALING RING   0.00 Single
2008 EFA 14100505 02/09/2014 2014-10-03 00:00 2014-10-03 00:00 STUD M9x40   0.00 Single
2009 EFA 14600128 02/09/2014 2014-09-19 00:00 2014-09-19 00:00 RECORD OF ENGINE TEST VALUES   0.00 Single
2010 EFA 14600129 02/09/2014 2014-09-10 00:00 2014-09-10 00:00 SERVO SUPER MULTIGRADEOIL20W50   0.00 Single
2011 OLF 1406010349 02/09/2014 2014-10-13 15:15 2014-10-13 15:15 BIMETAL SAW BLADE,HAND HACKSAW BLADE300X12.5X.63   0.00 Single
2012 OLF 1406010350 02/09/2014 2014-10-13 15:00 2014-10-13 15:00 INDEXABLE STEEL SHANK WITH THR,INDEXABLE PLUNG MILLING CUTTER,CROOVE MILLING HEAD ITEM CODE,GROOVE MILLING HEAD   10070.00 Single
2013 OLF 1406010351 02/09/2014 2014-10-13 15:00 2014-10-13 15:00 DIGI.DEPTH MICROMETER 0-100 MM,DIGITAL INDICATOR RANGE 50 MM,DIGITAL INDICATOR RANGE 50 MM,DIGITAL DEPTH MICROMETER   8460.00 Single
2014 OLF 1406010352 02/09/2014 2014-10-17 15:00 2014-10-17 15:00 P/S END MILL CUTTER 8.0 LONG,HSS PS ENDMILL CUTTER 12X63X12,HSS P/S END MILL CUTTER 14 MM,HSS T - SLOT CUTTER,HSS T - SLOT CUTTER,HSS T - SLOT CUTTER,SOLID CARBIDE E/M CUTTER 5 MM,SOLID CARBIDE E/M CU   12150.00 Single
2015 OFDR 2014000265 02/09/2014 2014-09-23 14:30 2014-09-23 15:00 1. FERROSILICONE 63 MICROMETRE IS   3.00 Single
2016 OEFC 20140322 01/09/2014 2014-09-01 13:30 2014-09-01 14:00 PERSONAL COMPUTER AS PER ENCLOSED SPECIFICATION   0.00 Single
2017 MSF 14TE210381 01/09/2014 2014-09-24 14:30 2014-09-24 14:30 TRUMPET FOR BOTTOM POURING etc.   15396.00 Single
2018 MSF 14TE210382 01/09/2014 2014-09-24 14:30 2014-09-24 14:30 BOTTOM PLATE FOR INGOT MOULD etc.   22816.00 Single
2019 MSF 14TE210383 01/09/2014 2014-09-24 14:30 2014-09-24 14:30 SLAG BOX FOR ELECTRIC ARC FURNACE etc.   17558.00 Single
2020 MSF 14TE210384 01/09/2014 2014-09-24 14:30 2014-09-24 14:30 FIRE BRICK SIZE 230 MMX115MMX75MM etc.   Single
2021 MSF 14TE210386 01/09/2014 2014-09-24 14:30 2014-09-24 14:30 PAPER WHITE CARTRIDGE. etc.   Single
2022 MSF 14TE210387 01/09/2014 2014-09-24 14:30 2014-09-24 14:30 GLOSSY ART BOARD etc.   Single
2023 MSF 14TE220385 01/09/2014 2014-09-24 14:30 2014-09-24 14:30 HEIDENHAIN UV 111A etc.   Single
2024 GSF 1400000830 01/09/2014 2014-09-11 00:00 2014-09-11 00:00 STEEL BLOCK SIZE:35 MM X 35 MM X 275 MM(MULT.LENGT, STEEL ROD.50 MM DIA.SPECN:IS:5517-93 DESIG 42CRMO2, STEEL BLOCK TO SPECN IS:6603-01,   0.00 Single
2025 GSF 1400000831 01/09/2014 2014-09-11 00:00 2014-09-11 00:00 STEEL TUBE.SIZE:OD 20,ID 16(MM).SPECN:IS:3074-05GR, STEEL ROUND 22MM(7/8") DIA.TO BS-970 EN-19U-1955, STEEL ROD.20MM DIA.SPECN:IS:5517-93 DESIG 45C8, STEEL PLATE.THICKNESS 20MM +0.1(TOL)TO SPECN GRAD   0.00 Single
2026 GSF 1400000832 01/09/2014 2014-09-11 00:00 2014-09-11 00:00 STEEL ROD 10 MM DIA TO SPECN IS:1570-97 PT-2., STEEL ROD 30MM DIA TO SPECN.IS:5517-93, STEEL ROD 15MM DIA TO SPECN.IS:2507-75,   0.00 Single
2027 GSF 1400000833 01/09/2014 2014-09-11 00:00 2014-09-11 00:00 STEEL ROD.32 MM DIA.SPECN:IS:5517-93 DESIG.42CR4MO, STEEL ROD.20 MM DIA.SPECN:IS:5517-93 DESIG 40C8,   0.00 Single
2028 GSF 1400000834 01/09/2014 2014-10-06 00:00 2014-10-06 00:00 Forging of Horizontal Stop to Drg.No.F-2314 for Co,   0.00 Single
2029 GSF 1400000835 01/09/2014 2014-10-06 00:00 2014-10-06 00:00 SET OF FORGINGS REQUIRED FOR RACE RING CONSISTS OF,   0.00 Single
2030 GSF 1400000836 01/09/2014 2014-10-06 00:00 2014-10-06 00:00 MACHINING OF CARRIAGE FOR AK-630M TO SB-102 FROM, MACHINING OF CRADEL FOR AK-630M TO SB-101 FROM CAS,   0.00 Single
2031 HEF TE14150055 01/09/2014 2014-09-02 00:00 2014-09-02 00:00 -PETROL 87 ON 1036110000   0.00 Single
2032 HEF TE14150056 01/09/2014 2014-09-23 00:00 2014-09-23 00:00 -CARTG HP 802 BLACK 2012010002-CARTG HP 802 COLOUR 2012010003   0.00 Single
2033 HEF TE14150057 01/09/2014 2014-09-16 00:00 2014-09-16 00:00 -ORTHO NITRO TOLUENE (ONT)9910933509   0.00 Single
2034 OFA B4TE110393 01/09/2014 2014-09-26 14:30 2014-09-26 15:00 ,ABRASIVE FLAP WHEEL 100MM-GRIT-120,ABRASIVE FLAP WHEEL 100MM - 80 GRIT,ABRASIVE FLAP WHEEL 110MM -120 GRIT,ABRASIVE FLAP WHEEL 110MM - 80 GRIT etc.   0.00 Single
2035 OFA B4TE110394 01/09/2014 2014-09-26 14:30 2014-09-26 15:00 ,SQ.HD.BOLT/NUT ITM.3 NCC/SP/3703/C etc.   0.00 Single
2036 OFKAT 2014000197 01/09/2014 2014-09-25 14:30 2014-09-25 14:30 HIGH PRESSURE HOSE REEL PIPE, DRY CHEMICAL POWDER FOR REFIL.   0.00 Single
2037 SAF 3143000662 01/09/2014 2014-09-23 14:30 2014-09-23 15:00 PIPE PVC 25 MM DIA 2 MM WALL T,   0.00 Single
2038 SAF 3143000664 01/09/2014 2014-09-12 14:30 2014-09-12 15:00 PIN FRONT MIDDLE ASSEMBLY TO D,   0.00 Single
2039 SAF 3143000666 01/09/2014 2014-09-12 14:30 2014-09-12 15:00 GUARD HAND RIGHT TO DRG NO. AR,   0.00 Single
2040 OFBA 140401 01/09/2014 2014-10-07 14:30 2014-10-07 14:30 SQ.CAGE IND.MOTOR,18.5KW,1500R   0.00 Single
2041 OFBA 140402 01/09/2014 2014-10-07 14:30 2014-10-07 14:30 CABLE ELECTRIC PVC .   0.00 Single
2042 OFBA 145070 01/09/2014 2014-09-25 14:30 2014-09-25 14:30 PLASTICIZER ESTER TY I (DBP)   22000.00 Single
2043 OFBA 145071 01/09/2014 2014-09-25 14:30 2014-09-25 14:30 ISOPHORONE=DI-ISOCYNATE(IPDI)   39000.00 Single
2044 OFBA 145072 01/09/2014 2014-09-25 14:30 2014-09-25 14:30 AMMONIA ANHYDROUS   17100.00 Single
2045 OCFC 2014LTE267 01/09/2014 2014-09-25 00:00 2014-09-25 00:00 ,PLUG SHRG20P4ESH8 ,PLUG FEMALE SHR32P10ESH1 ,PLUG FEMALE SSHR32P10ESH4 ,PLUG FEMALE SHR40P16ESH2   0.00 Single
2046 OFDC 140332M3LT 01/09/2014 2014-09-23 00:00 2014-09-23 14:30 ALUMINIUM OXIDE.VARGIN GRADE,   0.00 Single
2047 HVF 0108914 01/09/2014 2014-09-15 12:00 2014-09-15 15:00 INSERT , etc.   0.00 Single
2048 HVF 0108915 01/09/2014 2014-09-25 12:00 2014-09-25 15:00 BOSS , etc.   0.00 Single
2049 HVF 0108916 01/09/2014 2014-09-27 12:00 2014-09-27 15:00 HINGE , etc.   0.00 Single
2050 HVF 0413176 01/09/2014 2014-09-22 12:00 2014-09-22 15:00 PACKING , etc.   0.00 Single
2051 HVF 0413177 01/09/2014 2014-09-24 12:00 2014-09-24 15:00 LEVER ASSY. , etc.   0.00 Single
2052 HVF 0413178 01/09/2014 2014-09-22 12:00 2014-09-22 15:00 PIPE LINE ASSY. , etc.   0.00 Single
2053 HVF 0413179 01/09/2014 2014-09-22 12:00 2014-09-22 15:00 BAND ASSY , etc.   0.00 Single
2054 HVF 0413180 01/09/2014 2014-09-22 12:00 2014-09-22 15:00 CLIP ASSY , etc.   0.00 Single
2055 OFV 20140233 01/09/2014 2014-10-07 14:30 2014-10-07 15:00 THROUGH FEED WORK REST CENTRELESS,THROUGHFEED WORK REST,DRG. NO.,   107088.80 Single
2056 OFV 20140234 01/09/2014 2014-10-07 14:30 2014-10-07 15:00 HSS P/S DRILL EXTRA LONG,   40965.00 Single
2057 OFV 20140235 01/09/2014 2014-10-07 14:30 2014-10-07 15:00 GO & NO GO PLUG GAUGE (CARBIDE),   27493.20 Single
2058 OFV 20140236 01/09/2014 2014-10-10 14:30 2014-1